[[{"header":{"parameterUnit":"m.s-1","parameterCategory":1,"la1":30.6,"la2":28.766,"lo1":-90.7593,"lo2":-88.6598,"dy":0.0162,"dx":0.0183,"nx":116,"ny":114,"refTime":"2024-04-26T12:00:00:Z","depth":0,"parameterNumber":2,"parameterNumberName":"U-component_of_WINDS"},"data":[0.0,0.0,0.0,0.0,0.0,0.0,0.0,0.0,0.0,0.0,0.0,0.0,0.0,0.0,0.0,0.0,0.0,0.0,0.0,0.0,0.0,0.0,0.0,0.0,0.0,0.0,0.0,0.0,0.0,0.0,0.0,0.0,0.0,0.0,0.0,0.0,0.0,0.0,0.0,0.0,0.0,0.0,0.0,0.0,0.0,0.0,0.0,0.0,0.0,0.0,0.0,0.0,0.0,0.0,0.0,0.0,0.0,0.0,0.0,0.0,0.0,0.0,0.0,0.0,0.0,0.0,0.0,0.0,0.0,0.0,0.0,0.0,0.0,0.0,0.0,0.0,0.0,0.0,0.0,0.0,0.0,0.0,0.0,0.0,0.0,0.0,0.0,0.0,0.0,0.0,0.0,0.0,0.0,0.0,0.0,0.0,0.0,0.0,0.0,0.0,0.0,0.0,0.0,0.0,0.0,0.0,0.0,0.0,0.0,0.0,0.0,0.0,0.0,0.0,0.0,0.0,0.0,0.0,0.0,0.0,0.0,0.0,0.0,0.0,0.0,0.0,0.0,0.0,0.0,0.0,0.0,0.0,0.0,0.0,0.0,0.0,0.0,0.0,0.0,0.0,0.0,0.0,0.0,0.0,0.0,0.0,0.0,0.0,0.0,0.0,0.0,0.0,0.0,0.0,0.0,0.0,0.0,0.0,0.0,0.0,0.0,0.0,0.0,0.0,0.0,0.0,0.0,0.0,0.0,0.0,0.0,0.0,0.0,0.0,0.0,0.0,0.0,0.0,0.0,0.0,0.0,0.0,0.0,0.0,0.0,0.0,0.0,0.0,0.0,0.0,0.0,0.0,0.0,0.0,0.0,0.0,0.0,0.0,0.0,0.0,0.0,0.0,0.0,0.0,0.0,0.0,0.0,0.0,0.0,0.0,0.0,0.0,0.0,0.0,0.0,0.0,0.0,0.0,0.0,0.0,0.0,0.0,0.0,0.0,0.0,0.0,0.0,0.0,0.0,0.0,0.0,0.0,0.0,0.0,0.0,0.0,0.0,0.0,0.0,0.0,0.0,0.0,0.0,0.0,0.0,0.0,0.0,0.0,0.0,0.0,0.0,0.0,0.0,0.0,0.0,0.0,0.0,0.0,0.0,0.0,0.0,0.0,0.0,0.0,0.0,0.0,0.0,0.0,0.0,0.0,0.0,0.0,0.0,0.0,0.0,0.0,0.0,0.0,0.0,0.0,0.0,0.0,0.0,0.0,0.0,0.0,0.0,0.0,0.0,0.0,0.0,0.0,0.0,0.0,0.0,0.0,0.0,0.0,0.0,0.0,0.0,0.0,0.0,0.0,0.0,0.0,0.0,0.0,0.0,0.0,0.0,0.0,0.0,0.0,0.0,0.0,0.0,0.0,0.0,0.0,0.0,0.0,0.0,0.0,0.0,0.0,0.0,0.0,0.0,0.0,0.0,0.0,0.0,0.0,0.0,0.0,0.0,0.0,0.0,0.0,0.0,0.0,0.0,0.0,0.0,0.0,0.0,0.0,0.0,0.0,0.0,0.0,0.0,0.0,0.0,0.0,0.0,0.0,0.0,0.0,0.0,0.0,0.0,0.0,0.0,0.0,0.0,0.0,0.0,0.0,0.0,0.0,0.0,0.0,0.0,0.0,0.0,0.0,0.0,0.0,0.0,0.0,0.0,0.0,0.0,0.0,0.0,0.0,0.0,0.0,0.0,0.0,0.0,0.0,0.0,0.0,0.0,0.0,0.0,0.0,0.0,0.0,0.0,0.0,0.0,0.0,0.0,0.0,0.0,0.0,0.0,0.0,0.0,0.0,0.0,0.0,0.0,0.0,0.0,0.0,0.0,0.0,0.0,0.0,0.0,0.0,0.0,0.0,0.0,0.0,0.0,0.0,0.0,0.0,0.0,0.0,0.0,0.0,0.0,0.0,0.0,0.0,0.0,0.0,0.0,0.0,0.0,0.0,0.0,0.0,0.0,0.0,0.0,0.0,0.0,0.0,0.0,0.0,0.0,0.0,0.0,0.0,0.0,0.0,0.0,0.0,0.0,0.0,0.0,0.0,0.0,0.0,0.0,0.0,0.0,0.0,0.0,0.0,0.0,0.0,0.0,0.0,0.0,0.0,0.0,0.0,0.0,0.0,0.0,0.0,0.0,0.0,0.0,0.0,0.0,0.0,0.0,0.0,0.0,0.0,0.0,0.0,0.0,0.0,0.0,0.0,0.0,0.0,0.0,0.0,0.0,0.0,0.0,0.0,0.0,0.0,0.0,0.0,0.0,0.0,0.0,0.0,0.0,0.0,0.0,0.0,0.0,0.0,0.0,0.0,0.0,0.0,0.0,0.0,0.0,0.0,0.0,0.0,0.0,0.0,0.0,0.0,0.0,0.0,0.0,0.0,0.0,0.0,0.0,0.0,0.0,0.0,0.0,0.0,0.0,0.0,0.0,0.0,0.0,0.0,0.0,0.0,0.0,0.0,0.0,0.0,0.0,0.0,0.0,0.0,0.0,0.0,0.0,0.0,0.0,0.0,0.0,0.0,0.0,0.0,0.0,0.0,0.0,0.0,0.0,0.0,0.0,0.0,0.0,0.0,0.0,0.0,0.0,0.0,0.0,0.0,0.0,0.0,0.0,0.0,0.0,0.0,0.0,0.0,0.0,0.0,0.0,0.0,0.0,0.0,0.0,0.0,0.0,0.0,0.0,0.0,0.0,0.0,0.0,0.0,0.0,0.0,0.0,0.0,0.0,0.0,0.0,0.0,0.0,0.0,0.0,0.0,0.0,0.0,0.0,0.0,0.0,0.0,0.0,0.0,0.0,0.0,0.0,0.0,0.0,0.0,0.0,0.0,0.0,0.0,0.0,0.0,0.0,0.0,0.0,0.0,0.0,0.0,0.0,0.0,0.0,0.0,0.0,0.0,0.0,0.0,0.0,0.0,0.0,0.0,0.0,0.0,0.0,0.0,0.0,0.0,0.0,0.0,0.0,0.0,0.0,0.0,0.0,0.0,0.0,0.0,0.0,0.0,0.0,0.0,0.0,0.0,0.0,0.0,0.0,0.0,0.0,0.0,0.0,0.0,0.0,0.0,0.0,0.0,0.0,0.0,0.0,0.0,0.0,0.0,0.0,0.0,0.0,0.0,0.0,0.0,0.0,0.0,0.0,0.0,0.0,0.0,0.0,0.0,0.0,0.0,0.0,0.0,0.0,0.0,0.0,0.0,0.0,0.0,0.0,0.0,0.0,0.0,0.0,0.0,0.0,0.0,0.0,0.0,0.0,0.0,0.0,0.0,0.0,0.0,0.0,0.0,0.0,0.0,0.0,0.0,0.0,0.0,0.0,0.0,0.0,0.0,0.0,0.0,0.0,0.0,0.0,0.0,0.0,0.0,0.0,0.0,0.0,0.0,0.0,0.0,0.0,0.0,0.0,0.0,0.0,0.0,0.0,0.0,0.0,0.0,0.0,0.0,0.0,0.0,0.0,0.0,0.0,0.0,0.0,0.0,0.0,0.0,0.0,0.0,0.0,0.0,0.0,0.0,0.0,0.0,0.0,0.0,0.0,0.0,0.0,0.0,0.0,0.0,0.0,0.0,0.0,0.0,0.0,0.0,0.0,0.0,0.0,0.0,0.0,0.0,0.0,0.0,0.0,0.0,0.0,0.0,0.0,0.0,0.0,0.0,0.0,0.0,0.0,0.0,0.0,0.0,0.0,0.0,0.0,0.0,0.0,0.0,0.0,0.0,0.0,0.0,0.0,0.0,0.0,0.0,0.0,0.0,0.0,0.0,0.0,0.0,0.0,0.0,0.0,0.0,0.0,0.0,0.0,0.0,0.0,0.0,0.0,0.0,0.0,0.0,0.0,0.0,0.0,0.0,0.0,0.0,0.0,0.0,0.0,0.0,0.0,0.0,0.0,0.0,0.0,0.0,0.0,0.0,0.0,0.0,0.0,0.0,0.0,0.0,0.0,0.0,0.0,0.0,0.0,0.0,0.0,0.0,0.0,0.0,0.0,0.0,0.0,0.0,0.0,0.0,0.0,0.0,0.0,0.0,0.0,0.0,0.0,0.0,0.0,0.0,0.0,0.0,0.0,0.0,0.0,0.0,0.0,0.0,0.0,0.0,0.0,0.0,0.0,0.0,0.0,0.0,0.0,0.0,0.0,0.0,0.0,0.0,0.0,0.0,0.0,0.0,0.0,0.0,0.0,0.0,0.0,0.0,0.0,0.0,0.0,0.0,0.0,0.0,0.0,0.0,0.0,0.0,0.0,0.0,0.0,0.0,0.0,0.0,0.0,0.0,0.0,0.0,0.0,0.0,0.0,0.0,0.0,0.0,0.0,0.0,0.0,0.0,0.0,0.0,0.0,0.0,0.0,0.0,0.0,0.0,0.0,0.0,0.0,0.0,0.0,0.0,0.0,0.0,0.0,0.0,0.0,0.0,0.0,0.0,0.0,0.0,0.0,0.0,0.0,0.0,0.0,0.0,0.0,0.0,0.0,0.0,0.0,0.0,0.0,0.0,0.0,0.0,0.0,0.0,0.0,0.0,0.0,0.0,0.0,0.0,0.0,0.0,0.0,0.0,0.0,0.0,0.0,0.0,0.0,0.0,0.0,0.0,0.0,0.0,0.0,0.0,0.0,0.0,0.0,0.0,0.0,0.0,0.0,0.0,0.0,0.0,0.0,0.0,0.0,0.0,0.0,0.0,0.0,0.0,0.0,0.0,0.0,0.0,0.0,0.0,0.0,0.0,0.0,0.0,0.0,0.0,0.0,0.0,0.0,0.0,0.0,0.0,0.0,0.0,0.0,0.0,0.0,0.0,0.0,0.0,0.0,0.0,0.0,0.0,0.0,0.0,0.0,0.0,0.0,0.0,0.0,0.0,0.0,0.0,0.0,0.0,0.0,0.0,0.0,0.0,0.0,0.0,0.0,0.0,0.0,0.0,0.0,0.0,0.0,0.0,0.0,0.0,0.0,0.0,0.0,0.0,0.0,0.0,0.0,0.0,0.0,0.0,0.0,0.0,0.0,0.0,0.0,0.0,0.0,0.0,0.0,0.0,0.0,0.0,0.0,0.0,0.0,0.0,0.0,0.0,0.0,0.0,0.0,0.0,0.0,0.0,0.0,0.0,0.0,0.0,0.0,0.0,0.0,0.0,0.0,0.0,0.0,0.0,0.0,0.0,0.0,0.0,0.0,0.0,0.0,0.0,0.0,0.0,0.0,0.0,0.0,0.0,0.0,0.0,0.0,0.0,0.0,0.0,0.0,0.0,0.0,0.0,0.0,0.0,0.0,0.0,0.0,0.0,0.0,0.0,0.0,0.0,0.0,0.0,0.0,0.0,0.0,0.0,0.0,0.0,0.0,0.0,0.0,0.0,0.0,0.0,0.0,0.0,0.0,0.0,0.0,0.0,0.0,0.0,0.0,0.0,0.0,0.0,0.0,0.0,0.0,0.0,0.0,0.0,0.0,0.0,0.0,0.0,0.0,0.0,0.0,0.0,0.0,0.0,0.0,0.0,0.0,0.0,0.0,0.0,0.0,0.0,0.0,0.0,0.0,0.0,0.0,0.0,0.0,0.0,0.0,0.0,0.0,0.0,0.0,0.0,0.0,0.0,0.0,0.0,0.0,0.0,0.0,0.0,0.0,0.0,0.0,0.0,0.0,0.0,0.0,0.0,0.0,0.0,0.0,0.0,0.0,0.0,0.0,0.0,0.0,0.0,0.0,0.0,0.0,0.0,0.0,0.0,0.0,0.0,0.0,0.0,0.0,0.0,0.0,0.0,0.0,0.0,0.0,0.0,0.0,0.0,0.0,0.0,0.0,0.0,0.0,0.0,0.0,0.0,0.0,0.0,0.0,0.0,0.0,0.0,0.0,0.0,0.0,0.0,0.0,0.0,0.0,0.0,0.0,0.0,0.0,0.0,0.0,0.0,0.0,0.0,0.0,0.0,0.0,0.0,0.0,0.0,0.0,0.0,0.0,0.0,0.0,0.0,0.0,0.0,0.0,0.0,0.0,0.0,0.0,0.0,0.0,0.0,0.0,0.0,0.0,0.0,0.0,0.0,0.0,0.0,0.0,0.0,-5.2544,-5.2818,0.0,0.0,0.0,0.0,0.0,0.0,0.0,0.0,0.0,0.0,0.0,0.0,0.0,0.0,0.0,0.0,0.0,0.0,0.0,0.0,0.0,0.0,0.0,-6.6302,-6.6689,-6.5746,-6.4387,-6.2726,-6.0677,-5.9627,0.0,0.0,0.0,0.0,0.0,0.0,-5.4787,-5.4164,-5.417,-5.3954,-5.3621,-5.4279,-5.6236,-5.9352,0.0,0.0,0.0,0.0,0.0,0.0,0.0,0.0,0.0,0.0,0.0,0.0,0.0,0.0,0.0,0.0,0.0,0.0,0.0,0.0,0.0,0.0,0.0,0.0,0.0,0.0,0.0,0.0,0.0,0.0,0.0,0.0,0.0,0.0,0.0,0.0,0.0,0.0,0.0,0.0,0.0,0.0,0.0,0.0,0.0,0.0,0.0,0.0,0.0,0.0,0.0,0.0,0.0,0.0,0.0,0.0,0.0,0.0,0.0,0.0,0.0,0.0,0.0,0.0,0.0,0.0,0.0,0.0,0.0,0.0,-5.197,-5.1862,0.0,0.0,0.0,0.0,0.0,0.0,0.0,0.0,0.0,0.0,0.0,0.0,0.0,0.0,0.0,0.0,0.0,0.0,0.0,0.0,0.0,-6.1009,-6.2901,-6.4833,-6.5864,-6.5504,-6.4647,-6.3381,-6.165,-6.0115,-5.9279,-5.9279,-5.7186,-5.6031,-5.6031,-5.397,-5.2698,-5.2396,-5.0698,-5.0286,-5.1134,-5.0896,-5.3159,-5.7405,-5.9032,0.0,0.0,0.0,0.0,0.0,0.0,0.0,0.0,0.0,0.0,0.0,0.0,0.0,0.0,0.0,0.0,0.0,0.0,0.0,0.0,0.0,0.0,0.0,0.0,0.0,0.0,0.0,0.0,0.0,0.0,0.0,0.0,0.0,0.0,0.0,0.0,0.0,0.0,0.0,0.0,0.0,0.0,0.0,0.0,0.0,0.0,0.0,0.0,0.0,0.0,0.0,0.0,0.0,0.0,0.0,0.0,0.0,0.0,0.0,0.0,0.0,0.0,0.0,-5.3231,-5.3833,-5.5139,-5.4662,-5.4436,-5.4336,-5.2503,-5.1747,-5.1758,-5.0881,0.0,0.0,0.0,0.0,0.0,0.0,0.0,0.0,0.0,0.0,0.0,0.0,0.0,0.0,0.0,0.0,0.0,0.0,0.0,-6.1588,-6.2932,-6.4926,-6.6392,-6.6895,-6.5156,-6.396,-6.3707,-6.1328,-5.9967,-5.9967,-5.7442,-5.6031,-5.6031,-5.397,-5.205,-5.041,-4.9525,-4.9175,-4.9409,-5.0412,-5.2322,-5.4927,-5.628,-5.8181,-6.0504,0.0,0.0,0.0,0.0,0.0,0.0,0.0,0.0,0.0,0.0,0.0,0.0,0.0,0.0,0.0,0.0,0.0,0.0,0.0,0.0,0.0,0.0,0.0,0.0,0.0,0.0,0.0,0.0,0.0,0.0,0.0,0.0,0.0,0.0,0.0,0.0,0.0,0.0,0.0,0.0,0.0,-5.5539,-5.5922,0.0,0.0,0.0,0.0,0.0,0.0,0.0,0.0,0.0,0.0,0.0,0.0,0.0,-5.2126,-5.2603,-5.4561,-5.5641,-5.5792,-5.6696,-5.7248,-5.7449,-5.7374,-5.7349,-5.7323,-5.7047,0.0,-5.2085,-5.1933,0.0,0.0,0.0,0.0,0.0,0.0,0.0,0.0,0.0,0.0,0.0,0.0,0.0,0.0,0.0,0.0,0.0,0.0,0.0,0.0,0.0,-6.345,-6.4695,-6.5334,-6.496,-6.4336,-6.3561,-6.1722,-6.0475,-6.0116,-5.8061,-5.6609,-5.6004,-5.3192,-5.0183,-4.6988,-4.7213,-4.787,-4.9006,-4.9467,-5.1026,-5.3337,-5.3578,-5.5694,-5.9116,-5.9728,0.0,0.0,0.0,0.0,0.0,0.0,0.0,0.0,0.0,0.0,0.0,0.0,0.0,0.0,0.0,0.0,0.0,0.0,0.0,0.0,0.0,0.0,0.0,0.0,0.0,0.0,0.0,0.0,0.0,0.0,0.0,0.0,0.0,0.0,0.0,0.0,0.0,0.0,0.0,-5.367,-5.4423,-5.3382,-5.3166,-5.1995,0.0,0.0,0.0,0.0,0.0,0.0,0.0,0.0,0.0,-5.2703,-5.3532,-5.4361,-5.5239,-5.652,-5.7449,-5.8052,-5.8554,-5.9131,-5.9734,-5.9734,-5.9558,-5.9282,-5.9935,-5.8529,-5.5691,-5.4135,-5.2553,-5.0921,0.0,0.0,0.0,0.0,-4.733,-4.7282,0.0,0.0,0.0,0.0,0.0,0.0,0.0,0.0,0.0,0.0,0.0,0.0,-6.0894,-6.1825,-6.2879,-6.4166,-6.4296,-6.4087,-6.3547,-6.1819,-6.0775,-6.0595,-5.8663,-5.7097,-5.6093,-5.1878,-4.8052,-4.4524,-4.5291,-4.6495,-4.8145,-4.839,-4.987,-5.2265,-5.1699,-5.3683,-5.7472,-5.8043,-5.8292,-5.8499,0.0,0.0,0.0,0.0,0.0,0.0,0.0,0.0,0.0,0.0,0.0,0.0,0.0,0.0,0.0,0.0,0.0,0.0,0.0,0.0,0.0,0.0,0.0,0.0,0.0,0.0,0.0,0.0,0.0,0.0,0.0,0.0,0.0,0.0,0.0,0.0,0.0,-5.3049,-5.3388,-5.1445,-5.2138,-5.1524,0.0,0.0,0.0,0.0,0.0,0.0,-5.2302,-5.298,-5.4059,-5.5566,-5.6143,-5.6897,-5.7876,-5.8579,-5.9357,-6.0136,-6.0286,-6.0788,-6.1592,-6.1466,-6.1165,-6.0788,-6.1492,-6.0788,-5.8956,-5.6595,-5.4813,-5.3356,-5.1423,-5.0218,-4.9615,-4.9615,-4.9292,-4.878,0.0,0.0,0.0,0.0,0.0,0.0,0.0,0.0,0.0,0.0,0.0,-5.889,-6.0894,-6.0591,-6.1552,-6.473,-6.3351,-6.3036,-6.4878,-6.1935,-6.0685,-6.1942,-5.9159,-5.7156,-5.6182,-4.9777,-4.5713,-4.4117,-4.4381,-4.4954,-4.5876,-4.7091,-4.9089,-5.1723,-5.1173,-5.2844,-5.6049,-5.5066,-5.6571,-5.944,-5.8516,0.0,0.0,0.0,0.0,0.0,0.0,0.0,0.0,0.0,0.0,0.0,0.0,0.0,0.0,0.0,0.0,0.0,0.0,0.0,0.0,0.0,0.0,0.0,0.0,0.0,0.0,0.0,0.0,0.0,0.0,0.0,0.0,0.0,0.0,0.0,0.0,0.0,0.0,-5.1431,-5.2261,0.0,0.0,0.0,0.0,-5.1071,-5.2603,-5.4009,-5.5114,-5.6194,-5.7298,-5.8428,-5.9006,-5.9558,-6.0161,-6.124,-6.1818,-6.1893,-6.2395,-6.2697,-6.2722,-6.2195,-6.1943,-6.1893,-6.1441,-6.0839,-6.0161,-5.8981,-5.7223,-5.5139,-5.3959,-5.2854,-5.1925,-5.1925,-5.072,-4.8988,0.0,0.0,0.0,0.0,0.0,-5.8405,-5.715,-5.7061,-5.7094,-5.7094,-5.8441,-5.9817,-6.0984,-6.1283,-6.2048,-6.3698,-6.3544,-6.3459,-6.3819,-6.2311,-6.1403,-6.1463,-5.9592,-5.6477,-5.1981,-4.7811,-4.4651,-4.2617,-4.347,-4.4551,-4.5703,-4.6699,-4.7968,-4.9412,-4.9252,-5.0637,-5.3159,-5.4381,-5.4859,-5.4915,-5.6741,-5.7075,0.0,0.0,0.0,0.0,0.0,0.0,0.0,0.0,0.0,0.0,0.0,0.0,0.0,0.0,0.0,0.0,0.0,0.0,0.0,0.0,0.0,0.0,0.0,0.0,0.0,0.0,0.0,0.0,0.0,0.0,0.0,0.0,0.0,0.0,0.0,0.0,0.0,-5.3532,-5.5013,0.0,-5.3281,-5.3733,-5.4084,-5.3934,-5.5792,-5.7248,-5.8001,-5.8755,-5.9659,-6.0788,-6.1014,-6.1366,-6.1918,-6.232,-6.2521,-6.2546,-6.2747,-6.2822,-6.2822,-6.2245,-6.1818,-6.1466,-6.1266,-6.0638,-5.9784,-5.9759,-5.8654,-5.6922,-5.6143,-5.4347,-5.2259,-5.2259,-5.0693,-4.839,0.0,0.0,0.0,0.0,0.0,-5.8542,-5.7714,-5.7331,-5.7094,-5.7094,-5.865,-6.0086,-6.1014,-6.1493,-6.2121,-6.2989,-6.3258,-6.3288,-6.3079,-6.2032,-6.1433,-6.1433,-5.9112,-5.5409,-5.027,-4.7661,-4.5114,-4.2539,-4.386,-4.4727,-4.5254,-4.5957,-4.6738,-4.7578,-4.7715,-4.8544,-5.0114,-5.2817,-5.3234,-5.223,-5.4417,-5.5344,-5.5439,0.0,0.0,0.0,0.0,0.0,0.0,0.0,0.0,0.0,0.0,0.0,0.0,0.0,0.0,0.0,0.0,0.0,0.0,0.0,0.0,0.0,0.0,0.0,0.0,0.0,0.0,0.0,0.0,0.0,0.0,0.0,0.0,0.0,0.0,-5.4637,-5.6143,-5.5239,-5.7072,-5.765,-5.5591,-5.642,-5.6972,-5.6796,-5.8504,-5.9859,-6.0588,-6.0964,-6.1592,-6.2546,-6.2395,-6.2446,-6.2822,-6.2822,-6.2822,-6.2822,-6.2822,-6.2822,-6.2797,-6.2069,-6.1542,-6.1165,-6.0788,-6.0186,-5.9533,-5.9885,-5.9408,-5.8327,-5.7219,-5.5221,-5.3025,-5.2242,-5.0162,-4.7257,0.0,0.0,0.0,0.0,0.0,-5.8857,-5.8857,-5.7863,-5.7116,-5.7146,-5.8344,-5.9638,-6.0984,-6.1164,-6.1702,-6.2959,-6.248,-6.2361,-6.3019,-6.1194,-6.0655,-6.1972,-5.7735,-5.4166,-5.1646,-4.9512,-4.7019,-4.4301,-4.5383,-4.5432,-4.442,-4.4785,-4.5449,-4.6308,-4.6738,-4.6953,-4.71,-5.0189,-5.1573,-5.1767,-5.1847,-5.2604,-5.3704,0.0,0.0,0.0,0.0,0.0,0.0,0.0,0.0,0.0,0.0,0.0,0.0,0.0,0.0,0.0,0.0,0.0,0.0,0.0,0.0,0.0,0.0,0.0,0.0,0.0,0.0,0.0,0.0,0.0,0.0,0.0,0.0,0.0,-5.3783,-5.5691,-5.6922,-5.642,-5.8278,-5.8956,-5.7349,-5.8202,-5.9056,-5.9533,-6.0613,-6.1718,-6.2797,-6.2873,-6.3124,-6.3676,-6.3149,-6.2847,-6.2822,-6.2822,-6.2822,-6.2822,-6.2822,-6.2822,-6.2797,-6.1692,-6.119,-6.1115,-5.9985,-5.9483,-5.9483,-5.9483,-5.9483,-5.9226,-5.7011,-5.5573,-5.4334,-5.2059,-4.9076,-4.5711,0.0,0.0,0.0,-6.2313,-6.1119,-6.0118,-6.0118,-5.8797,-5.7917,-5.8377,-5.9206,-6.0146,-6.1014,-6.1972,-6.269,-6.3049,-6.248,-6.2181,-6.2361,-6.0924,-6.0236,-6.0625,-5.7505,-5.5582,-5.5203,-5.1895,-4.9503,-4.8085,-4.6052,-4.5091,-4.508,-4.435,-4.4707,-4.5879,-4.6601,-4.7266,-4.7891,-4.9148,-4.9432,-4.9392,-5.118,-5.1662,-5.1363,0.0,0.0,0.0,0.0,0.0,0.0,0.0,0.0,0.0,0.0,0.0,0.0,0.0,0.0,0.0,0.0,0.0,0.0,0.0,0.0,0.0,0.0,0.0,0.0,0.0,0.0,0.0,0.0,0.0,0.0,0.0,-5.3381,-5.5064,-5.5465,-5.7424,-5.9056,-5.9734,-6.1065,-6.1567,-6.0713,-6.1291,-6.1592,-6.1341,-6.237,-6.3149,-6.345,-6.3802,-6.3927,-6.3701,-6.3525,-6.3249,-6.2822,-6.2822,-6.2822,-6.2822,-6.2822,-6.2822,-6.2797,-6.1692,-6.119,-6.1115,-5.9985,-5.9483,-5.9458,-5.9081,-5.893,-5.87,-5.6637,-5.4428,-5.2173,-4.9679,-4.6673,-4.3718,0.0,0.0,0.0,-6.2313,-6.1399,-6.0685,-6.0981,-5.9306,-5.8674,-6.0446,-6.1082,-6.1643,-6.2287,-6.3619,-6.3914,-6.2777,-6.2301,-6.1972,-6.1702,-6.0954,-6.0146,-5.9308,-5.7842,-5.7138,-5.7407,-5.488,-5.2623,-5.0819,-4.9073,-4.7589,-4.6342,-4.5016,-4.5146,-4.637,-4.6146,-4.6699,-4.7715,-4.832,-4.8437,-4.8287,-4.9738,-5.0463,-5.072,-5.0616,-5.139,-5.2777,-5.3939,-5.5433,-5.6876,-5.6982,0.0,0.0,0.0,0.0,0.0,0.0,0.0,0.0,0.0,0.0,0.0,0.0,0.0,0.0,0.0,0.0,0.0,0.0,0.0,0.0,0.0,0.0,0.0,0.0,-5.534,-5.7123,-5.8152,-5.9382,-6.0613,-6.1743,-6.2446,-6.2697,-6.2395,-6.2647,-6.2697,-6.237,-6.3174,-6.3776,-6.4002,-6.4103,-6.4103,-6.4028,-6.3576,-6.3174,-6.2822,-6.2822,-6.2822,-6.2822,-6.2822,-6.2822,-6.2797,-6.1692,-6.119,-6.1115,-5.9985,-5.9483,-5.9458,-5.893,-5.873,-5.8374,0.0,0.0,0.0,0.0,-4.412,-4.2441,0.0,0.0,-6.2279,-6.2381,-6.148,-6.106,-6.1787,-5.9727,-5.9283,-6.2731,-6.3136,-6.3338,-6.4137,-6.5498,-6.5324,-6.2863,-6.2431,-6.1961,-6.1164,-6.0894,-6.0116,-5.865,-5.883,-5.8987,-5.9014,-5.8095,-5.6205,-5.3385,-5.3186,-5.1364,-4.8197,-4.6474,-4.6369,-4.7412,-4.6239,-4.6352,-4.7582,-4.8544,-4.878,-4.8547,-4.8449,-4.934,-5.0621,-5.008,-5.1966,-5.4752,-5.3699,-5.4376,-5.593,-5.6695,0.0,0.0,0.0,0.0,0.0,0.0,0.0,0.0,0.0,0.0,0.0,0.0,0.0,0.0,0.0,0.0,0.0,0.0,0.0,0.0,0.0,0.0,0.0,0.0,-5.7474,-5.9433,-6.104,-6.1341,-6.1743,-6.2722,-6.2898,-6.2898,-6.2847,-6.2948,-6.2998,-6.2923,-6.3525,-6.4078,-6.453,-6.4178,0.0,0.0,0.0,-6.2948,-6.2822,-6.2822,-6.2822,-6.2822,-6.2822,-6.2822,-6.2797,-6.1692,-6.1215,-6.1215,-6.001,-5.9533,-5.9533,-5.8956,-5.8477,-5.7665,-5.3148,-5.0669,-4.9096,-4.3832,-4.1836,-4.1738,0.0,-6.1298,-6.1704,-6.2279,-6.2223,-6.23,-6.304,-6.0587,-5.9864,-6.3224,-6.2441,-6.2484,-6.4678,-6.6166,-6.6794,-6.628,-6.4666,-6.3006,-6.119,-5.9608,-5.9488,-6.1253,-6.0883,-6.11,-6.2227,-6.0638,-5.9578,-5.893,-5.4666,-5.2266,-5.153,-4.8644,-4.7825,-4.8808,-4.9687,-5.066,-5.1623,-5.2581,-5.2192,-5.0812,-5.0089,-4.9216,-4.8522,-5.0617,-5.1689,-5.2423,-5.4762,-5.6626,-5.7926,-5.6735,-5.7134,-5.7935,-5.7177,-5.5606,0.0,0.0,0.0,0.0,0.0,0.0,0.0,0.0,0.0,0.0,0.0,0.0,0.0,0.0,0.0,0.0,0.0,0.0,0.0,-5.7198,-5.8855,-6.0437,-6.1667,-6.222,-6.2596,-6.2797,-6.3249,-6.335,-6.2873,-6.3626,-6.3977,-6.355,-6.4429,-6.5032,-6.5132,-6.5459,-6.5283,-6.4479,-6.4254,-6.3726,-6.2847,-6.2822,-6.2822,-6.2822,-6.2822,0.0,-6.2797,-6.1692,-6.1441,-6.1768,-6.0186,-5.9759,-6.0085,-5.9106,-5.7139,-5.4578,-5.1931,-4.9311,-4.659,-4.344,-4.209,-4.1738,0.0,-6.1603,-6.1975,-6.2313,-6.2381,-6.2651,-6.3396,-6.0834,-6.0129,-6.3878,-6.3404,-6.3341,-6.4938,-6.6934,-6.7374,-6.518,-6.3158,-6.176,-6.1218,-6.0829,-6.1226,-6.2512,-6.2909,-6.3122,-6.3107,-6.2233,-6.1377,-6.048,-5.7811,-5.5601,-5.3917,-5.1596,-5.0517,-5.0588,-5.0668,-5.1318,-5.2444,-5.3158,-5.3086,-5.2498,-5.2346,-5.1702,-5.0896,-5.1122,-5.2197,-5.4035,-5.5926,-5.7487,-5.8554,-5.7424,-5.7625,-5.8152,-5.7261,-5.5985,-5.4754,0.0,0.0,0.0,0.0,0.0,0.0,0.0,0.0,0.0,0.0,0.0,0.0,0.0,0.0,-5.4336,-5.4913,0.0,-5.8001,-5.9684,-6.0864,-6.1969,-6.3073,-6.3475,-6.355,-6.3299,-6.3249,-6.3249,-6.3249,-6.35,-6.3651,-6.3701,-6.4429,-6.5007,-6.5283,-6.5559,-6.5333,-6.4505,-6.4228,-6.3676,-6.2847,-6.2822,-6.2822,-6.2822,-6.2822,-6.2822,-6.2797,-6.1969,-6.1592,-6.1542,-6.0387,-5.991,-5.9834,-5.8755,-5.7172,-5.5202,-5.2888,-4.9429,-4.5598,-4.3022,-4.1855,-4.1465,0.0,-6.1772,-6.2212,-6.2347,-6.2381,-6.2651,-6.3396,-6.0834,-6.0161,-6.3977,-6.4114,-6.4159,-6.4996,-6.7552,-6.7692,-6.3966,-6.1943,-6.1364,-6.2516,-6.3183,-6.3725,-6.4308,-6.5076,-6.5032,-6.3902,-6.3649,-6.2786,-6.1408,-6.0781,-5.9076,-5.6375,-5.4531,-5.3508,-5.3034,-5.1693,-5.1858,-5.3222,-5.3611,-5.3938,-5.4267,-5.4387,-5.4591,-5.4536,-5.2468,-5.3664,-5.6429,-5.7197,-5.7981,-5.8504,-5.8177,-5.8001,-5.7826,-5.7474,-5.7047,-5.6344,-5.4561,-5.4612,0.0,0.0,0.0,0.0,0.0,0.0,0.0,0.0,-4.7496,-4.9836,-5.1216,-5.3789,-5.6327,-5.8051,-5.9081,-6.0261,-6.2044,-6.2797,-6.345,-6.4354,-6.4454,-6.4354,-6.4028,-6.3601,-6.34,-6.3676,-6.355,-6.3626,-6.3977,-6.4479,-6.4982,-6.5434,-6.5459,-6.5157,-6.4479,-6.4053,-6.3525,-6.2847,-6.2822,-6.2822,-6.2822,-6.2822,-6.2822,-6.2822,-6.2245,-6.1768,-6.1291,-6.0512,-5.991,-5.9408,-5.8227,-5.7524,-5.69,-5.4216,-5.0529,-4.6403,-4.3569,-4.1974,-4.1172,0.0,-6.1366,-6.1637,-6.2279,-6.2381,-6.2651,-6.3396,-6.0834,-5.9806,-6.2629,-6.2607,-6.3042,-6.4839,-6.7458,-6.8406,-6.6705,-6.524,-6.5313,-6.74,-6.5892,-6.6103,-6.8563,-6.7584,-6.6855,-6.6751,-6.5544,-6.4782,-6.4586,-6.1821,-6.0298,-5.9843,-5.6661,-5.5663,-5.647,-5.5282,-5.5707,-5.727,-5.732,-5.6999,-5.6442,-5.5569,-5.5782,-5.6583,-5.6326,-5.6523,-5.7043,-5.8669,-5.865,-5.8052,-5.8478,-5.8303,-5.7976,-5.8403,-5.8478,-5.8001,-5.5842,-5.4938,-5.4034,-5.1122,-4.891,-4.777,-4.9511,-4.8163,-4.7312,0.0,-5.1135,-5.1436,-5.414,-5.6176,-5.7984,-5.9694,-6.1743,-6.3224,-6.3475,-6.3952,-6.4329,-6.4454,-6.4454,-6.463,-6.5057,-6.5057,-6.4655,-6.3776,-6.4931,-6.5559,-6.5132,-6.5609,-6.5961,-6.6011,-6.6011,-6.5534,-6.4505,-6.4404,-6.3877,-6.2847,-6.2822,-6.2822,-6.2822,-6.2822,-6.2822,-6.2822,-6.2245,-6.1969,-6.1818,-6.0261,-5.9558,-5.9382,-5.7775,-5.7399,-5.745,-5.4361,-5.2234,-5.0452,-4.6634,-4.3522,-4.1172,0.0,-6.0588,-6.0994,-6.2178,-6.2381,-6.2482,-6.2821,-6.1152,-6.0141,-6.0927,-6.1898,-6.2704,-6.3191,-6.558,-6.6748,-6.5849,-6.5276,-6.6067,-6.8764,-6.8536,-6.9351,-7.1798,-7.0917,-6.9761,-6.8516,-6.6672,-6.5513,-6.5111,-6.3014,-6.1701,-6.1056,-5.9942,-5.9366,-5.9223,-5.9097,-5.9026,-5.8993,-5.9355,-5.8908,-5.7908,-5.7839,-5.8035,-5.8404,-5.8109,-5.779,-5.7622,-5.8673,-5.8328,0.0,-5.7298,-5.7123,-5.7072,-5.7951,-5.7801,-5.7022,-5.5742,-5.544,-5.5189,-5.3708,-5.0481,-4.779,-4.8913,-4.7397,-4.6063,-4.7817,-4.9175,-5.1144,-5.4576,-5.7064,-5.9474,-6.2213,-6.35,-6.4254,-6.458,-6.4806,-6.5057,-6.5383,-6.5434,-6.5283,-6.4856,-6.5082,-6.5107,-6.4655,-6.4957,-6.5183,-6.5283,-6.5509,-6.5785,-6.6086,-6.6112,-6.576,-6.4982,-6.463,-6.4103,-6.335,-6.2998,-6.2822,-6.2822,-6.2822,-6.2672,-6.2345,-6.2119,-6.1642,-6.0964,-5.9608,-5.9056,-5.893,-5.76,-5.7173,-5.7199,-5.5238,-5.3253,-5.114,-4.7061,-4.4452,-4.2713,0.0,-5.981,-6.0216,-6.1535,-6.1941,-6.2144,-6.2347,-6.1358,-6.0325,-5.9652,-6.0959,-6.2077,-6.2169,-6.4285,-6.543,-6.4883,-6.5194,-6.6633,-6.9437,-7.05,-7.1996,-7.419,-7.3758,-7.2647,-7.0899,-6.8946,-6.7597,-6.688,-6.5249,-6.4123,-6.3353,-6.3076,-6.2523,-6.1753,-6.1669,-6.1289,-6.0722,-6.0989,-6.0889,-6.0521,-6.0754,-6.0555,-5.9998,-5.9463,-5.8377,-5.7273,-5.7801,-5.7173,-5.6043,-5.5491,-5.5315,-5.5465,-5.6445,-5.6394,-5.5867,-5.5315,-5.5013,-5.4813,-5.4561,-5.1657,-4.8763,-4.9617,-4.8055,-4.637,-4.6729,-4.8149,-5.0621,-5.4929,-5.7372,-6.002,-6.3975,-6.4831,-6.5057,-6.5459,-6.5509,-6.5609,-6.586,-6.5886,-6.5484,-6.4379,-6.4605,-6.4856,-6.4856,-6.4756,-6.4931,-6.5484,-6.5509,-6.5685,-6.6086,-6.6112,-6.5785,-6.5082,-6.468,-6.4128,-6.345,-6.3048,-6.2822,-6.2822,-6.2822,-6.2546,-6.1994,-6.1692,-6.109,-6.0261,-5.9031,-5.8579,-5.8604,-5.7173,-5.6671,-5.6696,-5.5591,-5.3975,-5.1753,-4.8306,-4.6117,-4.4677,0.0,0.0,-5.9268,-6.0047,-6.0825,-6.1569,-6.2279,-6.1358,-6.0161,-5.8979,-5.9498,-6.067,-6.2563,-6.4522,-6.5425,-6.4674,-6.5925,-6.7751,-7.0016,-7.1537,-7.3329,-7.556,-7.5628,-7.5208,-7.4452,-7.3126,-7.2051,-7.1309,-6.9105,-6.806,-6.7945,-6.5571,-6.4345,-6.4124,-6.2529,-6.2326,-6.3267,-6.2783,-6.3487,-6.4989,-6.4481,-6.3126,-6.139,-6.081,-5.8523,-5.5541,-5.6093,-5.5214,-5.3733,-5.3206,-5.303,-5.313,-5.3658,-5.4561,-5.5315,-5.4762,-5.308,-5.1548,-5.2076,-5.1101,-5.0555,-5.2921,-5.1514,-4.9845,-5.1186,-5.0195,-5.0408,-5.5623,-5.7175,-5.9112,-6.4342,-6.571,-6.6061,-6.6086,-6.6086,-6.5911,-6.5383,-6.5308,-6.4931,-6.3852,-6.3726,-6.3751,-6.3751,-6.4655,-6.5484,-6.6036,-6.6086,-6.6086,-6.6112,-6.6112,-6.5609,-6.453,-6.4479,-6.3952,-6.2873,-6.2847,-6.2822,-6.2822,-6.2822,-6.2546,-6.1969,-6.0864,-6.0362,-6.0236,-5.8629,-5.8227,-5.8554,-5.6344,-5.5742,-5.6118,-5.5013,-5.4235,-5.3358,-5.1369,-4.909,-4.6882,0.0,0.0,0.0,0.0,0.0,-6.1535,-6.2279,-6.207,-6.1524,-6.0826,-6.1774,0.0,0.0,0.0,0.0,0.0,-6.5493,-6.7049,-6.9316,-7.0872,-7.2665,-7.4864,-7.5439,-7.5574,-7.5337,-7.3524,-7.248,-7.2216,-7.0524,-6.9958,-7.0379,-6.9012,-6.8547,-6.8849,-6.6845,-6.5665,-6.5259,-6.4538,-6.4431,-6.4594,-6.3432,-6.2878,-6.2448,-6.0306,-5.7538,-5.4744,0.0,-5.2628,-5.1448,-5.0896,-5.0469,-5.0318,-5.1247,-5.1272,-5.1096,-5.1649,-5.1825,-5.2101,-5.3381,-5.2641,-5.2149,-5.4609,-5.3769,-5.2678,-5.4171,-5.4016,-5.4609,-5.8253,-5.8555,-5.9304,-6.2921,-6.3802,-6.4053,-6.4429,-6.5107,-6.5634,-6.581,-6.5835,-6.5434,-6.4329,-6.4203,-6.4078,-6.3726,-6.4028,-6.4605,-6.5509,-6.5559,-6.5735,-6.6086,-6.576,-6.5383,-6.5032,-6.4329,-6.3776,-6.34,-6.3023,-6.2822,-6.2822,-6.2446,-6.1994,-6.1441,-6.0663,-5.9935,-5.9207,-5.8303,-5.7801,-5.7474,-5.5993,-5.5717,-5.6093,-5.4988,-5.4436,-5.4165,-5.3106,-5.1978,-5.0576,0.0,0.0,0.0,0.0,0.0,0.0,0.0,0.0,0.0,0.0,0.0,0.0,0.0,0.0,0.0,0.0,0.0,-6.6034,-6.776,-6.9282,-7.1075,-7.3341,-7.4119,-7.4525,-7.4525,-7.3194,-7.2541,-7.2541,-7.1313,-7.1096,-7.1787,-7.0988,-7.0437,-7.0072,-6.8695,-6.7356,-6.6201,-6.5635,-6.5369,-6.5222,-6.3837,-6.2981,-6.232,-5.9714,-5.6455,0.0,-5.1898,-5.0318,-4.8937,-4.8761,-4.8611,-4.856,-4.9088,-4.9289,-4.954,-5.0469,-5.1649,-5.303,-5.4712,-5.4768,-5.4805,-5.6982,-5.6489,-5.5664,-5.6587,-5.6351,-5.6664,-5.9333,-5.8997,-5.9041,-6.1739,-6.1918,-6.1943,-6.2923,-6.3676,-6.4454,-6.5383,-6.5358,-6.4906,-6.3977,-6.3701,-6.345,-6.3124,-6.3099,-6.3626,-6.4906,-6.5183,-6.5434,-6.581,-6.566,-6.5409,-6.5007,-6.4329,-6.3776,-6.34,-6.3023,-6.2822,-6.2822,-6.227,-6.1718,-6.1165,-6.0588,-5.9834,-5.8956,-5.8227,-5.77,-5.7223,-5.5717,-5.5315,-5.5516,-5.4411,-5.3984,-5.3934,-5.3557,-5.3206,-5.256,0.0,0.0,0.0,0.0,0.0,0.0,0.0,0.0,0.0,0.0,0.0,0.0,0.0,0.0,0.0,0.0,0.0,0.0,-6.5527,-6.6914,-6.8707,-7.0939,-7.1819,-7.2259,-7.2293,-7.2326,-7.236,-7.2394,-7.1615,-7.1605,-7.233,-7.1498,-7.0086,-6.8287,-6.806,-6.7255,-6.6072,-6.5892,-6.6251,-6.6729,-6.5353,-6.3384,-6.1084,-5.9182,-5.5412,-5.1012,-5.0477,-4.8567,-4.6426,-4.6979,-4.7531,-4.7908,-4.7405,-4.8736,-5.0569,-5.1197,-5.2528,-5.4185,-5.5867,-5.7173,-5.8403,-6.001,-5.9487,-5.8712,-5.8736,-5.7407,-5.6787,-5.8959,-5.8521,-5.8353,-6.0517,-6.0111,-5.9985,-6.1617,-6.2019,-6.2697,-6.4279,-6.4103,-6.3601,-6.3023,-6.2496,-6.2169,-6.2144,-6.2094,-6.2747,-6.4354,-6.4957,-6.5283,-6.5333,-6.5785,-6.5534,-6.4505,-6.4404,-6.3877,-6.2847,-6.2822,-6.2822,-6.2822,-6.2295,-6.1743,-6.1165,-6.0613,-6.001,-5.9357,-5.8328,-5.7876,-5.765,-5.5465,-5.4658,-5.4486,-5.3406,-5.298,-5.298,-5.298,-5.2955,-5.2861,0.0,0.0,0.0,0.0,0.0,0.0,0.0,0.0,0.0,0.0,0.0,0.0,0.0,0.0,0.0,0.0,0.0,0.0,-6.4072,-6.4918,-6.5933,-6.7083,-6.8944,-7.0195,-7.0737,-7.1312,-7.1853,-7.2394,-7.2208,-7.219,-7.2344,-7.1539,-7.0894,-7.0287,-6.7676,-6.6576,-6.6606,-6.4654,-6.4186,-6.4605,-6.2839,-6.1717,-6.0875,-5.8581,-5.5415,-5.2171,-5.1581,-4.947,-4.7004,-4.7531,-4.836,-4.9138,-4.9012,-4.9916,-5.1247,-5.2226,-5.3959,-5.5942,-5.76,-5.8855,-6.001,-6.1266,-6.1365,-6.1234,-6.1655,-6.1014,-6.0351,-6.0107,-5.8851,-5.7742,-5.755,-5.8278,-5.9182,-6.001,-6.222,-6.4128,-6.4957,-6.5308,-6.5283,-6.4731,-6.453,-6.4279,-6.3877,-6.3475,-6.3601,-6.4404,-6.4605,-6.5032,-6.586,-6.5258,-6.4756,-6.4479,-6.3676,-6.3099,-6.2822,-6.2822,-6.2822,-6.2822,-6.2697,-6.2119,-6.1165,-6.104,-5.9985,-5.8303,-5.8027,-5.7424,-5.6545,-5.5139,-5.4813,-5.5064,-5.3934,-5.3507,-5.3507,-5.3507,-5.3256,-5.2698,0.0,0.0,0.0,0.0,0.0,0.0,0.0,0.0,0.0,0.0,0.0,0.0,0.0,0.0,0.0,0.0,0.0,0.0,0.0,-6.4072,-6.458,-6.5628,-6.6914,-6.7929,-6.8707,-6.9451,-7.0195,-7.0939,-7.0939,-7.1109,-7.1447,-7.0636,-6.9945,-6.9221,-6.6428,-6.5192,-6.5077,-6.244,-6.1702,0.0,0.0,-5.9338,-5.917,-5.75,-5.5353,-5.3108,-5.238,-5.0724,-4.9113,-5.0117,-5.0569,-5.077,-5.1247,-5.2327,-5.3658,-5.4787,-5.6319,-5.7951,-5.9382,-6.0412,-6.1215,-6.1843,-6.2195,-6.2195,-6.1517,-6.1316,-6.0814,-5.9207,-5.7775,-5.6445,-5.5315,-5.6294,-5.7499,-5.8303,-6.1014,-6.3475,-6.4756,-6.5208,-6.5358,-6.5308,-6.5082,-6.4806,-6.4505,-6.4203,-6.4254,-6.4781,-6.4605,-6.4856,-6.571,-6.5383,-6.4982,-6.4479,-6.3877,-6.3324,-6.2822,-6.2822,-6.2822,-6.2822,-6.2822,-6.2245,-6.119,-6.119,-6.0111,-5.8252,-5.8001,-5.7399,-5.647,-5.5114,-5.4737,-5.4913,-5.3808,-5.3356,-5.3356,-5.3356,-5.2645,-5.1443,0.0,0.0,0.0,0.0,0.0,0.0,0.0,0.0,0.0,0.0,-5.921,-5.9789,0.0,0.0,0.0,0.0,0.0,0.0,0.0,0.0,-6.4241,-6.5493,-6.5628,-6.6,-6.6643,-6.7387,-6.8098,-6.8808,-6.8808,-6.9113,-6.9722,-6.9079,-6.8137,-6.6885,-6.5026,-6.3712,-6.2705,-6.0282,-5.9351,-5.9428,-5.7663,-5.6915,-5.6795,0.0,-5.5306,-5.3895,-5.2851,-5.205,-5.1756,-5.3275,-5.3306,-5.2829,-5.3909,-5.5315,-5.6746,-5.7801,-5.888,-5.996,-6.1014,-6.1692,-6.2119,-6.2119,-6.2421,-6.2169,-6.0085,-5.9859,-5.9483,-5.7273,-5.5993,-5.4938,-5.3808,-5.4587,-5.5767,-5.6947,-5.9408,-6.1943,-6.4153,-6.453,-6.4781,-6.5333,-6.4982,-6.468,-6.468,-6.4605,-6.4806,-6.5358,-6.4881,-6.4831,-6.5383,-6.5785,-6.5509,-6.4404,-6.4354,-6.3877,-6.2847,-6.2822,-6.2822,-6.2822,-6.2822,-6.2245,-6.119,-6.119,-6.0236,-5.8579,-5.8102,-5.7524,-5.6722,-5.4977,-5.4256,-5.4081,-5.2754,-5.2169,-5.2119,-5.2119,-5.1068,-4.9534,0.0,0.0,0.0,0.0,0.0,0.0,0.0,0.0,0.0,0.0,-6.0703,-6.0816,0.0,0.0,0.0,0.0,0.0,0.0,0.0,0.0,0.0,-6.4783,-6.5358,-6.5764,-6.5865,-6.6609,-6.7083,-6.7218,-6.7218,-6.7286,-6.7387,-6.7286,-6.7057,-6.6767,-6.5357,-6.3808,-6.2076,-6.0559,-5.8756,-5.6877,-5.6466,-5.6017,-5.5568,-5.6017,0.0,0.0,-5.2696,-5.2288,-5.2737,-5.3992,-5.4888,-5.5691,-5.6821,-5.7675,-5.8403,-5.9031,-6.001,-6.104,-6.1692,-6.227,-6.2697,-6.2697,-6.2421,-6.1793,-6.0487,-5.9558,-5.8353,-5.6143,-5.5164,-5.4361,-5.3256,-5.4336,-5.5892,-5.7499,-5.9684,-6.1943,-6.4153,-6.4856,-6.5358,-6.5911,-6.5886,-6.5835,-6.5835,-6.5409,-6.5383,-6.5936,-6.5459,-6.5383,-6.5936,-6.5634,-6.4931,-6.3852,-6.3827,-6.35,-6.2847,-6.2822,-6.2822,-6.2822,-6.2822,-6.2245,-6.119,-6.119,-6.0035,-5.8027,-5.7951,-5.7323,-5.6148,-5.3692,-5.245,-5.1921,-4.9507,-4.8365,-4.7999,-4.7999,-4.7854,-4.7321,0.0,0.0,0.0,0.0,0.0,0.0,0.0,-6.2516,-6.3606,-6.5325,-6.4647,-6.3432,-6.1782,-6.0584,-6.0465,0.0,0.0,0.0,0.0,0.0,0.0,0.0,-6.5865,-6.6271,-6.6271,-6.7015,-6.7387,-6.7387,0.0,-6.7387,-6.7354,-6.6981,-6.6812,-6.6736,-6.5116,-6.3842,-6.2755,-6.0512,-5.8627,-5.707,-5.6444,-5.5987,-5.5777,0.0,0.0,0.0,-5.5228,-5.4588,-5.4248,-5.5064,-5.5929,-5.6997,-5.8981,-5.9985,-6.0537,-6.1065,-6.1416,-6.1743,-6.2295,-6.2621,-6.2822,-6.2822,-6.2421,-6.1492,-5.9508,-5.8428,-5.7123,-5.4612,-5.3909,-5.3457,-5.2653,-5.4084,-5.5566,-5.6093,-5.8252,-6.0563,-6.2496,-6.3475,-6.4429,-6.5559,-6.5936,-6.6112,-6.6112,-6.5886,-6.5835,-6.6086,-6.586,-6.5835,-6.6086,-6.5584,-6.4931,-6.4128,-6.3827,-6.3425,-6.2847,-6.2822,-6.2822,-6.2822,-6.2822,-6.2245,-6.119,-6.119,-6.0136,-5.8303,-5.8027,-5.6775,-5.4839,-5.2808,-5.1154,-4.9789,-4.8049,-4.7179,-4.7029,-4.7029,-4.6367,-4.5351,0.0,0.0,0.0,0.0,0.0,0.0,-6.3057,-6.3666,-6.5256,-6.8876,-6.8202,-6.6059,-6.2663,-6.0819,-6.0028,0.0,0.0,0.0,0.0,0.0,0.0,0.0,0.0,0.0,-6.6812,0.0,0.0,-6.7895,-6.8064,0.0,0.0,0.0,0.0,0.0,-6.5344,-6.4421,-6.3648,-6.0868,-5.9145,0.0,0.0,-5.6376,-5.6436,0.0,0.0,0.0,0.0,-5.6768,-5.5746,-5.6172,-5.6512,-5.7213,-5.9535,-6.0914,-6.1718,-6.2019,-6.2069,-6.2094,-6.2521,-6.2747,-6.2822,-6.2822,-6.232,-6.114,-5.8504,-5.7349,-5.6118,-5.3482,-5.2929,-5.2804,-5.2352,-5.3683,-5.4838,-5.4762,-5.657,-5.8755,-6.0889,-6.2019,-6.3299,-6.5082,-6.5785,-6.6112,-6.6112,-6.6112,-6.6112,-6.6112,-6.6011,-6.5986,-6.6112,-6.571,-6.5157,-6.4479,-6.4078,-6.3525,-6.2847,-6.2822,-6.2822,-6.2822,-6.2822,-6.232,-6.1366,-6.124,-6.0337,-5.8855,-5.8303,-5.6469,-5.379,-5.208,-5.0008,-4.7759,-4.6461,-4.5897,-4.5797,-4.5797,-4.4774,-4.3511,0.0,0.0,0.0,0.0,0.0,0.0,-6.2381,-6.4208,-6.6609,-6.9688,-6.8936,-6.7537,-6.597,-6.4086,-6.2633,0.0,0.0,0.0,0.0,0.0,0.0,0.0,0.0,0.0,0.0,0.0,0.0,-6.7895,-6.8639,0.0,0.0,0.0,0.0,0.0,0.0,-6.6196,-6.3814,-6.2353,0.0,0.0,0.0,0.0,0.0,0.0,0.0,0.0,0.0,-5.7226,-5.6641,-5.6927,-5.6652,-5.633,-5.7111,-5.883,-6.0387,-5.9935,-6.0839,-6.2019,-6.2069,-6.2446,-6.2822,-6.2822,-6.2044,-6.0663,-5.8403,-5.7072,-5.5641,-5.3381,-5.2929,-5.2904,-5.2854,-5.3005,-5.3632,-5.5089,-5.5541,-5.6972,-6.0663,-6.1692,-6.2873,-6.5032,-6.5785,-6.6112,-6.6112,-6.6112,-6.6112,-6.6112,-6.566,-6.5584,-6.6086,-6.6061,-6.5559,-6.4505,-6.4429,-6.3877,-6.2847,-6.2822,-6.2822,-6.2822,-6.2822,-6.2521,-6.1918,-6.1416,-6.0537,-5.9382,-5.883,-5.6789,-5.3708,-5.1689,-4.8884,-4.5694,-4.3636,-4.2368,-4.1773,-4.1773,-4.1618,-4.1463,0.0,0.0,0.0,0.0,0.0,0.0,-6.4072,-6.4749,-6.644,-7.0364,-6.9996,-6.8904,-6.758,-6.6007,-6.3609,-5.9992,0.0,0.0,0.0,0.0,0.0,0.0,0.0,0.0,0.0,0.0,-6.7455,-6.7895,-6.8233,0.0,0.0,0.0,0.0,0.0,0.0,-6.6837,-6.4872,-6.3288,0.0,0.0,0.0,0.0,0.0,0.0,0.0,0.0,0.0,0.0,-5.7712,-5.7566,-5.645,-5.5129,-5.5102,-5.5938,-5.7072,-5.8202,-5.9458,-6.0638,-6.1316,-6.2144,-6.2822,-6.2822,-6.1743,-6.0186,-5.8328,-5.6771,-5.5189,-5.3306,-5.2929,-5.2929,-5.2929,-5.2929,-5.313,-5.3808,-5.3909,-5.4787,-5.7349,-5.8177,-5.9709,-6.2923,-6.3802,-6.4655,-6.5986,-6.6112,-6.6112,-6.6112,-6.5911,-6.5886,-6.6112,-6.5785,-6.5409,-6.4982,-6.463,-6.4103,-6.335,-6.2998,-6.2822,-6.2822,-6.2822,-6.2546,-6.1994,-6.1441,-6.0738,-5.9935,-5.9081,-5.6395,-5.2451,-5.0995,-4.7791,-4.3538,-4.2447,-4.1699,-4.1172,-4.1172,-4.1172,-4.1172,0.0,0.0,0.0,0.0,0.0,-6.2076,-6.4343,-6.4816,-6.6373,-7.0432,-7.0534,-6.9682,-6.8351,-6.6882,-6.4208,-5.9669,-5.8893,0.0,0.0,0.0,0.0,0.0,0.0,0.0,0.0,0.0,-6.7348,-6.8267,-6.8707,-6.9079,0.0,0.0,-6.9079,-6.7895,0.0,0.0,0.0,0.0,0.0,0.0,0.0,0.0,0.0,0.0,0.0,0.0,0.0,0.0,0.0,0.0,0.0,-5.4837,-5.4092,-5.3834,-5.421,-5.6093,-5.7901,-5.9483,-6.0437,-6.1617,-6.2621,-6.2797,-6.1441,-5.9684,-5.8227,-5.647,-5.4712,-5.3231,-5.2929,-5.2929,-5.2929,-5.2929,-5.2929,-5.2929,-5.2929,-5.3507,-5.5164,-5.5867,-5.7399,-6.0638,-6.1517,-6.2697,-6.4931,-6.5735,-6.6112,-6.6112,-6.581,-6.571,-6.586,-6.5208,-6.4881,-6.5032,-6.453,-6.3977,-6.345,-6.3023,-6.2822,-6.2822,-6.2822,-6.2546,-6.1994,-6.1441,-6.0864,-6.0261,-5.9357,-5.6484,-5.2411,-5.1153,-4.7784,-4.34,-4.2367,-4.1797,-4.1523,-4.1269,-4.125,-4.1348,0.0,0.0,0.0,0.0,0.0,-6.1569,-6.2313,-6.4275,-6.6779,-6.9789,-7.0195,-6.9729,-6.8454,-6.6465,-6.4358,-6.2254,-5.9638,0.0,0.0,0.0,0.0,0.0,0.0,0.0,0.0,0.0,-6.7721,-6.9079,-7.0567,-7.0906,-7.0195,-7.0939,-7.0094,-6.7929,0.0,0.0,0.0,0.0,0.0,0.0,0.0,0.0,-6.0057,0.0,0.0,0.0,0.0,0.0,0.0,0.0,0.0,0.0,0.0,-5.3008,-5.2352,-5.3432,-5.6118,-5.8855,-5.9357,-6.0738,-6.2144,-6.2697,-6.1165,-5.9232,-5.8152,-5.6168,-5.426,-5.3155,-5.2929,-5.2929,-5.2929,-5.2929,-5.2929,-5.2929,-5.2929,-5.3507,-5.5164,-5.5867,-5.6821,-5.8504,-5.9182,-6.0412,-6.2647,-6.4831,-6.6112,-6.6112,-6.5107,-6.4731,-6.5258,-6.4279,-6.3952,-6.4454,-6.3977,-6.3425,-6.2847,-6.2822,-6.2822,-6.2822,-6.2822,-6.2546,-6.1994,-6.1441,-6.0864,-6.0286,-5.9734,-5.765,-5.449,-5.2456,-4.9438,-4.5932,-4.334,-4.2422,-4.2305,-4.1484,-4.1426,-4.1738,0.0,0.0,0.0,0.0,0.0,0.0,-6.2956,-6.3328,-6.4512,-6.7489,-6.7421,-6.7046,-6.6809,-6.539,-6.3803,-6.2254,-6.0086,0.0,0.0,0.0,0.0,0.0,0.0,0.0,0.0,-6.5623,-6.7493,-6.8427,-6.9861,-7.0703,-7.0973,-7.121,-7.0398,-6.8741,-6.8977,-6.8017,0.0,0.0,0.0,0.0,0.0,-6.0086,-6.0086,0.0,0.0,0.0,0.0,0.0,0.0,0.0,0.0,0.0,0.0,0.0,0.0,-5.195,-5.4135,-5.657,-5.7097,-5.8202,-5.9232,-5.9408,-5.8353,-5.7072,-5.6344,-5.5039,-5.3783,-5.308,-5.2929,-5.2929,-5.2929,-5.2929,-5.3181,-5.3934,-5.3708,-5.3783,-5.4687,-5.5616,-5.6972,-5.9006,-6.2069,-6.4304,-6.5007,-6.571,-6.6112,-6.6112,-6.5434,-6.5107,-6.5283,-6.4279,-6.3927,-6.4454,-6.3952,-6.3601,-6.3425,-6.3023,-6.2822,-6.2822,-6.2446,-6.2169,-6.1969,-6.1014,-6.0487,-6.0286,-5.9734,-5.765,-5.4568,-5.2456,-4.9438,-4.5953,-4.336,-4.2246,-4.1933,-4.1387,-4.125,-4.1348,0.0,0.0,0.0,0.0,0.0,0.0,-6.2584,-6.2753,-6.3565,-6.5696,-6.5797,-6.5875,-6.6355,-6.5027,-6.383,-6.3254,-6.1408,0.0,0.0,0.0,0.0,0.0,0.0,0.0,-6.2022,-6.5055,-6.7277,-6.8511,-7.0486,-7.1548,-7.1718,-7.1988,-7.1041,-6.9113,-6.9113,-6.7974,0.0,0.0,0.0,0.0,-6.0475,-6.0475,-6.0446,0.0,0.0,0.0,0.0,0.0,0.0,0.0,0.0,0.0,0.0,0.0,0.0,0.0,-5.2955,-5.4662,-5.5641,-5.6721,-5.7625,-5.7851,-5.6897,-5.5817,-5.5465,-5.4361,-5.3306,-5.3005,-5.2929,-5.2929,-5.2929,-5.2929,-5.3155,-5.3833,-5.3632,-5.3683,-5.4461,-5.534,-5.6721,-5.893,-6.2546,-6.4881,-6.4881,-6.5634,-6.6112,-6.6112,-6.5409,-6.4982,-6.4982,-6.3952,-6.35,-6.3827,-6.3525,-6.3375,-6.3375,-6.2998,-6.2822,-6.2822,-6.227,-6.1893,-6.1667,-6.0738,-6.0211,-5.9985,-5.9633,-5.8139,0.0,-5.2796,-4.9914,-4.7033,-4.3659,-4.2266,-4.1973,-4.1387,-4.1269,-4.1387,0.0,0.0,0.0,0.0,0.0,0.0,0.0,-6.2584,-6.37,-6.4444,-6.5155,-6.5908,-6.6615,-6.5061,-6.421,-6.4832,-6.3208,0.0,0.0,0.0,0.0,0.0,0.0,0.0,-6.1967,-6.469,-6.7078,-6.9073,-7.1868,-7.2911,-7.2428,-7.3105,-7.1921,-6.9248,-6.9214,-6.759,0.0,0.0,0.0,0.0,-6.1014,-6.1014,0.0,0.0,0.0,0.0,0.0,0.0,0.0,0.0,0.0,0.0,0.0,0.0,0.0,0.0,0.0,0.0,0.0,-5.5968,-5.6872,-5.7399,-5.6369,-5.5214,-5.5214,-5.4034,0.0,-5.2929,-5.2929,-5.2929,-5.2929,-5.2929,-5.2955,-5.303,-5.3005,-5.3356,-5.4461,-5.5265,-5.6545,-5.878,-6.1416,-6.3048,-6.2998,-6.4881,-6.6112,-6.6112,-6.5082,-6.4454,-6.4454,-6.3425,-6.2822,-6.2822,-6.2822,-6.2822,-6.2822,-6.2797,-6.2772,-6.2772,-6.2169,-6.1617,-6.1115,-6.0512,-5.9985,-5.9483,-5.9458,-5.8779,-5.7323,-5.3246,-5.0546,-4.8708,-4.4136,-4.2422,-4.2324,-4.1484,-4.1426,-4.1699,0.0,0.0,0.0,0.0,0.0,0.0,0.0,0.0,0.0,0.0,-6.441,-6.4766,-6.4563,-6.4203,-6.3848,0.0,0.0,0.0,0.0,0.0,0.0,0.0,0.0,0.0,-6.2087,-6.4243,-6.6154,-6.7673,-6.9401,-7.0964,-7.2394,-7.2563,-7.1988,-7.077,-7.0195,-6.8059,0.0,0.0,0.0,0.0,-6.0373,-6.0176,0.0,0.0,0.0,0.0,-5.9099,-5.9967,0.0,0.0,0.0,0.0,0.0,0.0,0.0,0.0,-5.2503,-5.3005,-5.3406,0.0,-5.3934,-5.4059,-5.3808,-5.3507,0.0,-5.3206,-5.2929,-5.2929,-5.2929,-5.2929,-5.2929,-5.2929,-5.3206,-5.4059,-5.3808,-5.3909,-5.5039,-5.7474,-5.9985,-6.2245,-6.4178,-6.5183,-6.4756,-6.5559,-6.6112,-6.6112,-6.5082,-6.4454,-6.4454,-6.3425,-6.2822,-6.2822,-6.2822,-6.2822,-6.2822,-6.2395,-6.2195,-6.2195,-6.119,-6.0638,-6.0512,-5.9935,-5.9608,-5.9483,-5.9081,-5.7613,-5.5188,-5.2248,-4.961,-4.7093,-4.372,-4.2422,-4.2324,-4.1484,-4.123,-4.1308,0.0,0.0,0.0,0.0,0.0,0.0,0.0,0.0,0.0,0.0,-6.3937,-6.4469,-6.4176,-6.4337,-6.4289,0.0,0.0,0.0,0.0,0.0,0.0,0.0,0.0,-6.2391,-6.2121,-6.4064,-6.5646,-6.6754,-6.9119,-7.0659,-7.1459,-7.2422,-7.2157,-7.0737,-6.962,-6.7758,-6.535,-6.4013,-6.311,-6.2359,-6.0385,0.0,0.0,0.0,0.0,0.0,-5.9099,-5.9757,0.0,-5.774,-5.6964,-5.6656,0.0,0.0,0.0,0.0,-5.2703,-5.2929,-5.2929,-5.2929,-5.2929,-5.2929,-5.2929,-5.2929,-5.2929,-5.2929,-5.2929,-5.2929,-5.2929,-5.2929,-5.2929,-5.2929,-5.313,-5.3708,-5.3959,-5.4762,-5.6646,-5.9106,-6.1466,-6.345,-6.4906,-6.571,-6.566,-6.5936,-6.6011,-6.576,-6.4957,-6.4354,-6.4128,-6.3299,-6.2722,-6.2446,-6.2446,-6.2446,-6.2446,-6.2144,-6.1893,-6.1617,-6.0738,-6.0311,-6.0311,-5.9759,-5.8868,-5.7716,-5.7422,-5.565,-5.2663,-5.0095,-4.792,-4.5995,-4.3241,-4.2031,-4.1797,-4.1348,-4.1172,-4.1172,0.0,0.0,0.0,0.0,0.0,0.0,0.0,0.0,0.0,0.0,0.0,0.0,0.0,0.0,0.0,0.0,0.0,0.0,0.0,0.0,0.0,0.0,-6.278,-6.281,-6.2271,-6.3904,-6.5201,-6.6003,-6.9258,-7.078,-7.0699,-7.2625,-7.2414,-7.0466,-6.918,-6.7812,-6.6382,-6.4913,-6.3599,-6.2353,-6.0859,0.0,0.0,0.0,0.0,0.0,0.0,0.0,0.0,-5.7002,-5.6492,-5.6522,-5.3767,0.0,0.0,0.0,0.0,0.0,-5.2904,-5.298,-5.303,-5.2955,-5.2929,-5.2929,-5.2929,-5.2929,-5.2929,-5.2929,-5.2929,-5.2929,-5.2929,-5.3005,-5.308,-5.3155,-5.4235,-5.5993,-5.8604,-6.0311,-6.1893,-6.35,-6.463,-6.5434,-6.5835,-6.5936,-6.576,-6.5208,-6.4655,-6.4153,-6.3726,-6.3073,-6.2496,-6.2019,-6.1918,-6.1843,-6.1743,-6.1743,-6.1517,-6.104,-6.0387,-6.0085,-6.006,-5.9173,-5.7516,-5.5445,-5.4964,-5.3042,-5.0016,-4.7703,-4.6095,-4.4894,-4.2645,-4.1582,-4.125,-4.1191,-4.1172,-4.1172,0.0,0.0,0.0,0.0,0.0,0.0,0.0,0.0,0.0,0.0,0.0,0.0,0.0,0.0,0.0,0.0,0.0,0.0,0.0,0.0,0.0,-6.2929,-6.3019,-6.3019,-6.2929,-6.3219,-6.3989,-6.5266,-6.6948,-6.9319,-7.2249,-7.3076,-7.2956,-7.2056,-7.1819,-7.058,-6.8493,-6.656,-6.5253,-6.4379,-6.1897,0.0,0.0,0.0,0.0,0.0,0.0,0.0,0.0,-5.7396,-5.6764,-5.6491,-5.371,0.0,0.0,0.0,0.0,0.0,-5.2804,-5.3256,-5.3482,-5.303,-5.2929,-5.2929,-5.2929,-5.2929,-5.2929,-5.2929,-5.2929,-5.2929,-5.2929,-5.3281,-5.3733,-5.4235,-5.6043,-5.8027,-5.9809,-6.1115,-6.232,-6.355,-6.463,-6.5132,-6.4756,-6.5132,-6.5183,-6.463,-6.4103,-6.3776,-6.3701,-6.2697,-6.2094,-6.1994,-6.1542,-6.1065,-6.0588,-6.0588,-6.0537,-6.0437,-5.9433,-5.8956,-5.8879,-5.6517,-5.5249,-5.4717,-5.217,-4.974,-4.7507,-4.6263,-4.4687,-4.2843,-4.2111,-4.1758,-4.166,-4.1308,-4.1172,-4.1172,0.0,0.0,0.0,0.0,0.0,0.0,0.0,0.0,0.0,0.0,0.0,0.0,0.0,0.0,0.0,0.0,0.0,0.0,0.0,0.0,-6.272,-6.3049,-6.3079,-6.3079,-6.3079,-6.3408,-6.4236,-6.5596,-6.735,-6.9396,-7.172,-7.1649,-7.1089,-7.0157,-7.0073,-6.9503,-6.849,-6.7156,-6.6434,-6.595,0.0,0.0,0.0,0.0,0.0,0.0,0.0,0.0,0.0,0.0,-5.6858,-5.6053,-5.391,0.0,0.0,0.0,0.0,0.0,-5.1975,-5.1624,-5.1205,-5.1184,-5.189,-5.2376,-5.1498,-5.1522,-5.1856,-5.2773,-5.2929,-5.2659,-5.181,-5.2233,-5.3278,-5.5054,-5.7294,-5.9232,-6.0588,-6.1492,-6.2421,-6.355,-6.4128,-6.4555,-6.4881,-6.4881,-6.463,-6.4078,-6.3827,-6.355,-6.3249,-6.2446,-6.1868,-6.1567,-6.1014,-6.0311,-5.9458,-5.8295,-5.8295,-5.9458,-5.7802,-5.6842,-5.6448,-5.3834,-5.1931,-5.0433,-4.8881,-4.6796,-4.4421,-4.3794,-4.3,-4.2051,-4.1621,-4.1465,-4.1426,-4.125,-4.1172,-4.1172,0.0,0.0,0.0,0.0,0.0,0.0,0.0,0.0,0.0,0.0,0.0,0.0,0.0,0.0,0.0,0.0,0.0,0.0,0.0,-6.2091,-6.2391,-6.3049,-6.3079,-6.3139,-6.3288,-6.4066,-6.5054,-6.6251,-6.8423,-7.0184,-7.1469,-7.113,-7.0128,-6.87,-6.8516,-6.8354,-6.8313,-6.7603,-6.732,-6.718,0.0,0.0,0.0,0.0,0.0,0.0,0.0,0.0,0.0,0.0,0.0,0.0,0.0,0.0,0.0,-5.1398,-5.1197,-5.1055,-5.0904,-5.002,-4.9014,-4.8352,-4.9637,-5.0818,-5.0115,-5.0089,-5.0595,-5.1968,-5.2203,-5.187,-5.0961,-5.1592,-5.3105,-5.5589,-5.7832,-5.9835,-6.1336,-6.1943,-6.2571,-6.3576,-6.3701,-6.4002,-6.4831,-6.453,-6.4002,-6.335,-6.3299,-6.3048,-6.2471,-6.1918,-6.1416,-6.0989,-6.0311,-5.9558,-5.873,-5.6899,-5.6826,-5.8453,-5.565,-5.4358,-5.4265,-5.1184,-4.8575,-4.6648,-4.5732,-4.4195,-4.2246,-4.1836,-4.166,-4.1621,-4.1308,-4.1172,-4.1172,-4.1172,-4.1172,-4.1172,0.0,0.0,0.0,0.0,0.0,0.0,0.0,0.0,0.0,0.0,0.0,0.0,0.0,0.0,0.0,0.0,0.0,0.0,0.0,-6.2091,-6.2391,-6.3049,-6.3079,-6.3348,-6.3917,-6.5203,-6.6221,-6.6909,-6.952,-7.1486,-7.2953,-7.3206,-7.2211,-7.0086,-6.953,-6.9242,-6.9085,-6.8313,-6.8064,-6.8045,-6.7166,0.0,0.0,0.0,0.0,0.0,0.0,0.0,0.0,0.0,0.0,0.0,0.0,0.0,-5.1322,-5.1297,-5.0896,-5.034,-4.9652,-4.9362,-4.8357,-4.4337,-4.5355,-4.7804,-4.9282,-4.9349,-4.9381,-5.0233,-5.0131,-5.0108,-5.111,-5.2494,-5.3992,-5.5547,-5.7362,-5.9505,-6.227,-6.2747,-6.2998,-6.3626,-6.3701,-6.3726,-6.3802,-6.3776,-6.3299,-6.2195,-6.2119,-6.1893,-6.1341,-6.0763,-6.0412,-6.0387,-5.9382,-5.8805,-5.873,-5.7525,-5.7274,-5.7876,-5.2928,-5.1616,-5.3195,-4.8267,-4.5919,-4.5544,-4.3138,-4.2033,-4.1816,-4.1387,-4.1211,-4.1211,-4.1191,-4.1172,-4.1172,-4.1172,-4.1172,-4.1172,0.0,0.0,0.0,0.0,0.0,0.0,0.0,0.0,0.0,0.0,0.0,0.0,0.0,0.0,0.0,0.0,0.0,0.0,0.0,-6.0835,-6.1164,-6.1822,-6.2241,-6.278,-6.3408,-6.5533,-6.7747,-7.0021,-7.1876,-7.2234,-7.1185,-7.0434,-6.8769,-6.637,-6.6605,-6.6679,-6.6751,-6.8161,-6.8789,-6.8723,-6.7998,-6.6242,0.0,0.0,0.0,0.0,0.0,0.0,0.0,0.0,-5.8514,-5.6974,-5.5238,-5.3877,-5.253,-5.0746,-5.0067,-4.9501,-4.7828,-4.7095,-4.6223,-4.3388,-4.3052,-4.3995,-4.6393,-4.7326,-4.8115,-4.9835,-5.0317,-5.0158,-4.9386,-5.0081,-5.1123,-5.2282,-5.4998,-5.7778,-6.0254,-6.0927,-6.1855,-6.3485,-6.3375,-6.3299,-6.3651,-6.3048,-6.2471,-6.2044,-6.1692,-6.124,-6.0663,-6.0111,-5.9659,-5.9332,-5.8604,-5.7876,-5.7173,-5.5409,-5.5041,-5.5817,-5.1647,-5.0054,-5.0643,-4.5559,-4.3255,-4.3136,-4.1974,-4.1406,-4.1406,-4.123,-4.1172,-4.1172,-4.1172,-4.1172,-4.1172,-4.1172,-4.1172,-4.1172,0.0,0.0,0.0,0.0,0.0,0.0,0.0,0.0,0.0,0.0,0.0,0.0,0.0,0.0,0.0,0.0,0.0,0.0,-6.0136,-6.0086,-6.0386,-6.1074,-6.1732,-6.248,-6.3348,-6.5742,-6.8405,-7.1278,-7.2834,-7.2355,-6.9961,-6.8375,-6.658,-6.4634,-6.4527,-6.4826,-6.553,-6.7208,-6.8044,-6.8209,-6.7719,-6.6208,0.0,0.0,0.0,0.0,0.0,0.0,0.0,0.0,-5.8735,-5.7656,-5.6009,-5.4412,-5.2892,-5.0895,-4.9604,-4.8248,-4.613,-4.4822,-4.3658,-4.1949,-4.1158,-4.1501,-4.4213,-4.5553,-4.6763,-4.8916,-4.9588,-4.9145,-4.7237,-4.7797,-4.886,-4.9785,-5.3253,-5.6604,-5.8945,-6.0255,-6.1639,-6.3235,-6.3073,-6.2923,-6.3149,-6.2471,-6.1793,-6.124,-6.0864,-6.0337,-5.9583,-5.9207,-5.8755,-5.8202,-5.765,-5.6922,-5.5968,-5.4206,-5.3765,-5.4561,-5.1187,-4.9322,-4.8678,-4.4473,-4.2189,-4.1582,-4.1308,-4.1172,-4.1172,-4.1172,-4.1172,-4.1172,-4.1172,-4.1172,-4.1172,-4.1172,-4.1172,-4.1172,0.0,0.0,0.0,0.0,0.0,0.0,0.0,0.0,0.0,0.0,0.0,0.0,0.0,0.0,0.0,0.0,0.0,0.0,-6.0136,-6.0086,-6.0386,-6.1074,-6.1732,-6.269,-6.3947,-6.5951,-6.7956,-6.9991,-7.1936,-7.1876,-6.9901,-6.7897,-6.664,-6.5892,-6.3947,-6.4209,-6.6016,-6.5335,-6.5533,-6.619,-6.6158,-6.4602,-6.2208,0.0,0.0,0.0,0.0,0.0,0.0,0.0,-5.8611,-5.6822,-5.7513,-5.5067,-5.2051,-5.1962,-4.9517,-4.6398,-4.4573,-4.2709,-4.0954,-3.9578,-3.9551,-4.0586,-4.3125,-4.4394,-4.5508,-4.7226,-4.7435,-4.6701,-4.4813,-4.6,-4.771,-4.8839,-5.2468,-5.6132,-5.8898,-6.1242,-6.2741,-6.2822,-6.2822,-6.2596,-6.2044,-6.1994,-6.1291,-5.9608,-5.9483,-5.9006,-5.7951,-5.7876,-5.7625,-5.7022,-5.647,-5.5942,-5.539,-5.426,-5.3984,-5.4536,-5.1507,-4.929,-4.7865,-4.5266,-4.3075,-4.125,-4.1172,-4.1172,-4.1172,-4.1172,-4.1172,-4.1172,-4.1172,-4.1172,-4.1172,-4.1172,-4.1172,-4.1172,0.0,0.0,0.0,0.0,0.0,0.0,0.0,0.0,0.0,0.0,0.0,0.0,0.0,0.0,0.0,0.0,0.0,0.0,-6.0221,-5.9668,-5.9697,-6.0356,-6.1044,-6.1792,-6.266,-6.5054,-6.7508,-6.9991,-7.1009,-7.0021,-6.7178,-6.658,-6.5443,-6.3947,-6.3797,-6.3848,-6.4005,-6.4272,-6.4511,-6.4737,-6.5243,-6.4393,-6.2777,0.0,0.0,0.0,0.0,0.0,0.0,0.0,0.0,0.0,-5.6814,-5.5721,-5.4494,-5.212,-4.9304,-4.6319,-4.3437,-4.195,-4.0891,-3.9222,-4.0,-4.1758,-4.373,-4.4394,-4.5234,-4.7539,-4.7455,-4.6828,-4.6259,-4.6674,-4.7168,-4.7494,-4.9094,-5.182,-5.6309,-5.7435,-5.8935,-6.1864,-6.2245,-6.2044,-6.1492,-6.0713,-6.0035,-5.9533,-5.8805,-5.7901,-5.6771,-5.6721,-5.6269,-5.534,-5.5139,-5.4787,-5.421,-5.3858,-5.3607,-5.3406,-5.2476,-5.1289,-4.978,-4.5844,-4.3794,-4.3151,-4.1753,-4.1172,-4.1172,-4.1172,-4.1172,-4.1172,-4.1172,-4.1172,-4.1172,-4.1172,-4.1172,-4.1172,0.0,0.0,0.0,0.0,0.0,0.0,0.0,0.0,0.0,0.0,-7.1041,-7.1142,0.0,0.0,0.0,0.0,0.0,0.0,-6.0276,-5.9458,-5.9398,-6.0057,-6.0745,-6.1672,-6.2839,-6.4665,-6.6281,-6.7597,-6.9034,-6.8315,-6.5622,-6.6161,-6.5622,-6.4276,-6.5173,-6.4934,-6.3885,-6.4566,-6.4106,-6.2962,-6.3614,-6.3105,-6.1867,0.0,0.0,0.0,0.0,0.0,0.0,0.0,0.0,0.0,-5.7382,-5.6023,-5.4428,-5.2923,-4.904,-4.492,-4.3488,-4.1657,-4.0124,-3.9711,-4.0723,-4.2344,-4.4433,-4.543,-4.6406,-4.8105,-4.7656,-4.6992,-4.7148,-4.6914,-4.6797,-4.7129,-4.8544,-5.0641,-5.3799,-5.5738,-5.7691,-6.0106,-6.116,-6.1466,-6.0889,-6.0035,-5.9307,-5.8905,-5.8052,-5.7072,-5.5942,-5.5892,-5.5365,-5.426,-5.421,-5.3959,-5.3406,-5.3381,-5.3231,-5.2929,-5.2929,-5.2432,-5.1554,-4.8041,-4.5552,-4.4021,-4.2062,-4.1172,-4.1172,-4.1172,-4.1172,-4.1172,-4.1172,-4.1172,-4.1172,-4.1172,-4.1172,-4.1172,0.0,0.0,-7.0432,-7.1176,0.0,0.0,0.0,0.0,0.0,0.0,-7.1278,-7.1278,0.0,0.0,0.0,0.0,0.0,0.0,0.0,-5.9512,-5.9428,-6.0146,-6.0894,-6.2121,-6.3887,-6.4545,-6.4545,-6.3917,-6.652,-6.6789,-6.4874,-6.6251,-6.655,-6.5981,-6.7238,-6.6729,-6.4964,-6.5383,-6.3797,-6.1074,-6.1672,-6.1164,-6.0086,-6.0027,0.0,0.0,0.0,0.0,0.0,0.0,0.0,0.0,-5.862,-5.6179,-5.304,-5.3976,-4.8948,-4.3306,-4.425,-4.1699,-3.9146,-4.076,-4.1601,-4.2734,-4.5215,-4.7012,-4.8281,-4.8711,-4.7871,-4.7168,-4.7558,-4.7031,-4.6777,-4.7519,-4.9778,-5.1428,-5.1673,-5.5415,-5.8011,-5.7843,-5.9736,-6.0864,-6.0236,-5.9684,-5.8905,-5.7826,-5.7223,-5.6394,-5.529,-5.5239,-5.4737,-5.3658,-5.3632,-5.3406,-5.2929,-5.2929,-5.2929,-5.2929,-5.2929,-5.2929,-5.2861,-5.0857,-4.7904,-4.4247,-4.235,-4.1463,-4.1463,-4.125,-4.1172,-4.1172,-4.1172,-4.1172,-4.1172,-4.1172,-4.1172,-4.1172,0.0,0.0,-7.0432,-7.1176,0.0,0.0,0.0,0.0,0.0,0.0,0.0,0.0,0.0,0.0,0.0,0.0,0.0,0.0,0.0,-6.0022,-5.9638,-6.0835,-6.2032,-6.2839,-6.3258,-6.3408,-6.3438,-6.3258,-6.5383,-6.5413,-6.3528,-6.5383,-6.5862,-6.5263,-6.6071,-6.5622,-6.4126,-6.275,-6.1433,-6.0326,-6.0446,-6.0356,-6.0027,-5.9518,-5.9548,0.0,0.0,0.0,0.0,0.0,0.0,0.0,-5.8231,-5.7134,-5.5339,-5.3605,-4.9947,-4.5988,-4.3551,-4.1538,-4.0218,-4.0594,-4.2519,-4.4746,-4.6308,-4.7207,-4.7832,-4.8262,-4.8125,-4.7969,-4.8047,-4.8203,-4.8262,-4.8105,-4.8579,-4.9592,-5.1407,-5.3774,-5.5725,-5.7027,-5.9146,-6.0136,-5.9156,-5.8554,-5.7775,-5.6671,-5.6068,-5.5239,-5.4135,-5.4059,-5.3758,-5.3105,-5.308,-5.303,-5.2929,-5.2929,-5.2929,-5.2929,-5.2929,-5.2929,-5.2861,-5.0857,-4.865,-4.6293,-4.4323,-4.3511,-4.3359,-4.183,-4.1172,-4.1172,-4.1172,-4.1172,-4.1172,-4.1172,-4.1172,-4.1172,0.0,0.0,0.0,0.0,0.0,0.0,0.0,0.0,0.0,0.0,0.0,0.0,0.0,0.0,0.0,0.0,0.0,0.0,0.0,-5.9861,-5.9697,-6.1044,-6.2061,-6.275,-6.3079,-6.2292,-6.1851,-6.1851,-6.2096,-6.246,-6.3109,-6.4755,-6.5353,-6.5084,-6.637,-6.5682,-6.3528,-6.3139,-6.1852,-6.0116,-6.0446,-6.0176,-5.9578,-5.9249,-5.8919,-5.8471,-5.7124,0.0,0.0,0.0,0.0,0.0,0.0,0.0,-5.5216,-5.4743,-5.1046,-4.7035,-4.6138,-4.3643,-4.1296,-4.1657,-4.3242,-4.5,-4.6074,-4.666,-4.709,-4.75,-4.7754,-4.791,-4.791,-4.8262,-4.8398,-4.7969,-4.8066,-4.85,-4.9276,-5.116,-5.291,-5.451,-5.6638,-5.7974,-5.785,-5.7424,-5.6746,-5.5892,-5.5315,-5.4612,-5.3758,-5.3708,-5.3457,-5.2955,-5.2929,-5.2929,-5.2929,-5.2929,-5.2929,-5.2929,-5.2929,-5.2929,-5.2861,-5.0857,-4.925,-4.7898,-4.594,-4.4432,-4.3297,-4.2514,-4.1666,-4.0879,-4.1094,-4.1172,-4.1172,-4.1172,-4.1172,-4.1172,0.0,0.0,0.0,0.0,0.0,0.0,0.0,0.0,0.0,0.0,0.0,0.0,0.0,0.0,0.0,0.0,0.0,0.0,0.0,0.0,0.0,-6.0715,-6.1613,-6.2301,-6.272,-6.141,-6.0578,-6.0223,-5.8907,-5.9659,-6.2381,-6.3892,-6.4696,-6.5114,-6.6729,-6.5832,-6.3139,-6.3857,-6.245,-5.9787,-6.0236,-5.9757,-5.874,-5.865,-5.7962,-5.7004,-5.6406,-5.6308,-5.6346,-5.6346,0.0,0.0,0.0,0.0,-5.4525,-5.5756,-5.2188,-4.806,-4.8873,-4.5918,-4.268,-4.3259,-4.3988,-4.4774,-4.5241,-4.5664,-4.6074,-4.6426,-4.7012,-4.7461,-4.7461,-4.7871,-4.8047,-4.7539,-4.7832,-4.7832,-4.7031,-4.8974,-5.0929,-5.1968,-5.4237,-5.5998,-5.6749,-5.6394,-5.5792,-5.5139,-5.4687,-5.416,-5.3607,-5.3557,-5.3381,-5.2929,-5.2929,-5.2929,-5.2929,-5.2929,-5.2929,-5.2929,-5.2929,-5.2929,-5.2861,-5.1233,-5.0193,-4.9525,-4.7693,-4.5584,-4.3585,-4.3415,-4.2358,-4.0887,-4.1033,-4.1055,-4.1074,-4.1152,-4.1172,-4.1172,0.0,0.0,0.0,0.0,0.0,0.0,0.0,0.0,0.0,0.0,-7.0669,-6.9958,0.0,0.0,-6.7208,-6.514,-6.3865,-6.2294,-6.0217,0.0,0.0,-5.9368,-6.1134,-6.1882,-6.1373,-6.1685,-6.0937,-5.8926,-5.9147,-5.931,-5.9444,-6.1753,-6.3579,-6.5054,-6.5293,-6.4545,-6.2959,-6.1403,-5.9847,-5.8351,-5.7842,-5.7513,-5.7304,-5.6765,-5.6795,-5.7004,-5.6406,-5.6526,-5.6974,-5.6974,-5.6974,0.0,0.0,0.0,-5.5701,-5.4579,-5.3277,-5.1376,-4.7803,-4.5841,-4.4713,-4.4447,-4.5084,-4.549,-4.4261,-4.4316,-4.4668,-4.4726,-4.5957,-4.7012,-4.7012,-4.7676,-4.7949,-4.7148,-4.7383,-4.75,-4.6992,-4.9786,-5.193,-5.2042,-5.4878,-5.67,-5.6321,-5.5817,-5.5064,-5.4009,-5.3858,-5.3582,-5.3055,-5.303,-5.3005,-5.2929,-5.2929,-5.2929,-5.2929,-5.2929,-5.2929,-5.2929,-5.2929,-5.2929,-5.2861,-5.2629,-5.2192,-5.1625,-5.0098,-4.8709,-4.7353,-4.459,-4.3025,-4.2195,-4.1019,-4.0605,-4.0644,-4.1035,-4.1172,-4.1172,0.0,0.0,0.0,0.0,0.0,0.0,0.0,0.0,0.0,0.0,0.0,-6.7869,-6.7969,-6.6935,-6.5276,-6.2924,-6.1894,-6.0534,-5.8552,-5.8151,-5.8321,-5.9069,-5.9967,-6.0446,-6.0535,-6.0257,-5.8957,-5.6739,-5.636,-5.6614,-5.7447,-5.8805,-6.0899,-6.3427,-6.3076,-6.2558,-6.1882,-6.0625,-5.9338,-5.8052,-5.7363,-5.6885,-5.6555,-5.6286,-5.6107,-5.5987,-5.5718,-5.5807,-5.6017,-5.6017,-5.6286,-5.6585,-5.6585,0.0,0.0,0.0,-5.438,-5.2682,-4.9215,-4.7775,-4.7117,-4.6514,-4.6399,-4.6091,-4.4936,-4.4987,-4.4986,-4.3899,-4.4433,-4.5351,-4.6094,-4.6738,-4.7012,-4.6641,-4.6933,-4.707,-4.6641,-4.7703,-4.9151,-5.0938,-5.2239,-5.3456,-5.4699,-5.4587,-5.411,-5.3331,-5.3281,-5.3181,-5.2929,-5.2929,-5.2929,-5.2929,-5.2929,-5.2929,-5.2929,-5.2929,-5.2929,-5.2929,-5.2929,-5.2929,-5.2929,-5.2603,-5.2176,-5.1582,-5.1012,-4.9495,-4.74,-4.6194,-4.4994,-4.3745,-4.3699,-4.3052,-4.2159,-4.2607,-4.2119,-4.1172,0.0,0.0,0.0,0.0,0.0,0.0,0.0,0.0,0.0,0.0,0.0,-6.5736,-6.626,0.0,0.0,0.0,-6.0358,-5.9184,-5.7019,-5.6855,-5.7304,-5.8321,-5.868,-5.9009,-5.9308,-5.871,-5.734,-5.5113,-5.476,-5.5232,-5.6446,-5.7157,-5.9197,-6.2146,-6.1536,-6.1235,-6.1106,-5.9921,-5.9105,-5.8501,-5.6974,-5.6077,-5.5658,-5.5658,-5.5359,-5.497,-5.5119,-5.5179,-5.5179,-5.5179,-5.5508,-5.5948,-5.5718,-5.5658,0.0,0.0,0.0,-5.2505,-5.088,-5.0043,-4.9341,-4.8474,-4.8082,-4.7568,-4.6138,-4.6103,-4.5896,-4.3899,-4.3858,-4.435,-4.4889,-4.5547,-4.5976,-4.5976,-4.6328,-4.6465,-4.6035,-4.6003,-4.7028,-4.9901,-5.0084,-5.104,-5.3458,-5.3582,-5.3331,-5.2955,-5.2929,-5.2929,-5.2929,-5.2929,-5.2929,-5.2929,-5.2929,-5.2929,-5.2929,-5.2929,-5.2929,-5.2929,-5.2779,-5.2729,-5.2703,-5.2151,-5.1599,-5.1071,-5.1222,-4.9867,-4.7533,-4.7551,-4.6652,-4.5277,-4.5666,-4.4699,-4.3204,-4.3739,-4.2744,-4.1172,0.0,0.0,0.0,0.0,0.0,0.0,0.0,0.0,0.0,0.0,0.0,-6.4223,-6.4255,-6.3565,-6.2282,-6.0353,-6.0109,-5.9,-5.6389,-5.6278,-5.6308,-5.6368,-5.7513,0.0,-5.7274,-5.7796,-5.7016,-5.4814,-5.6566,-5.7154,-5.6778,-5.8114,-5.9895,-6.2117,-6.1545,-6.1379,-6.1293,-5.8635,-5.8487,-5.9668,-5.5867,-5.4341,-5.4311,-5.4311,-5.4281,-5.4341,-5.497,-5.5179,-5.5179,-5.5179,-5.5209,-5.5119,-5.4491,-5.4311,-5.4192,0.0,0.0,0.0,-5.2223,-5.2071,-5.1134,-4.9898,-5.0439,-5.0514,-4.7595,-4.7277,-4.7034,-4.5061,-4.4997,-4.4889,-4.3512,-4.4238,-4.5098,-4.5098,-4.5449,-4.5586,-4.5156,-4.6022,-4.7491,-4.9562,-5.0336,-5.1513,-5.3498,-5.3256,-5.2955,-5.2929,-5.2929,-5.2929,-5.2929,-5.2929,-5.2929,-5.2929,-5.2929,-5.2929,-5.2929,-5.2929,-5.2929,-5.2929,-5.2402,-5.2151,-5.2126,-5.1574,-5.1021,-5.0494,-5.1046,-5.0579,-4.9357,-4.8179,-4.7298,-4.656,-4.5254,-4.3916,-4.2722,-4.3204,-4.2424,-4.1172,0.0,0.0,0.0,0.0,0.0,0.0,0.0,0.0,0.0,0.0,0.0,0.0,0.0,-6.1577,-6.0372,-5.8337,-5.781,-5.7,-5.5649,-5.5538,-5.5718,-5.6188,-5.7004,-5.7363,-5.7094,-5.7782,-5.703,-5.478,-5.5471,-5.6148,-5.678,-5.6584,-5.7351,-5.892,-5.9445,-5.9696,-5.9514,-5.7024,-5.6249,-5.6446,-5.3672,-5.2886,-5.3296,-5.1947,-5.2272,-5.337,-5.2756,-5.3698,-5.5119,-5.47,-5.485,-5.5089,-5.4431,-5.4221,-5.4072,-5.3384,-5.2702,-5.2229,-5.2583,-5.2206,-5.1847,-5.2373,-5.2025,-5.1252,-4.9748,-4.8967,-4.7967,-4.5625,-4.4315,-4.3572,-4.3592,-4.3678,-4.3867,-4.4141,-4.4316,-4.4355,-4.4199,-4.431,-4.5065,-4.6791,-4.808,-4.9494,-5.1148,-5.2288,-5.2929,-5.2929,-5.2929,-5.2929,-5.2929,-5.2929,-5.2929,-5.2929,-5.2929,-5.2754,-5.2402,-5.2754,-5.2578,-5.1875,-5.2402,-5.2251,-5.1574,-5.1373,-5.0971,-5.0419,-5.0268,-4.9967,-4.9551,-4.9116,-4.9002,-4.9109,-4.898,-4.7813,-4.6207,-4.5815,-4.4358,-4.2383,0.0,0.0,0.0,-6.3079,0.0,-6.254,-6.1882,-6.1194,-6.1012,-6.1653,0.0,0.0,0.0,0.0,-5.8735,-5.6959,-5.6196,-5.5658,-5.5209,-5.5179,-5.5388,-5.5837,-5.6226,-5.6555,-5.6765,-5.7004,-5.6532,-5.5279,-5.5484,-5.6048,-5.6887,-5.6595,-5.6742,-5.7299,-5.7483,-5.7795,-5.808,-5.588,-5.516,-5.5338,-5.2434,-5.185,-5.2592,-5.121,-5.1682,-5.2956,-5.2105,-5.289,-5.4171,-5.3634,-5.3579,-5.3769,-5.3595,-5.3384,-5.3114,-5.2665,-5.2516,-5.2532,-5.2493,-5.2355,-5.2654,-5.4146,-5.3622,-5.2722,-5.2775,-5.1513,-4.9748,-4.7818,-4.5901,-4.4576,-4.4687,-4.3875,-4.3201,-4.3226,-4.3281,-4.3281,-4.3281,-4.291,-4.33,-4.4982,-4.5955,-4.741,-4.9771,-5.1138,-5.2189,-5.2861,-5.2929,-5.2929,-5.2929,-5.2929,-5.2929,-5.2929,-5.2754,-5.2477,-5.2101,-5.2477,-5.2176,-5.1297,-5.2026,-5.1875,-5.0996,-5.0795,-5.0519,-5.0117,-4.9741,-4.959,-4.959,-4.959,-4.9816,-5.0193,-5.077,-4.9885,-4.828,-4.7857,-4.594,-4.3452,-6.3079,-6.3079,-6.3079,-6.3079,-6.254,-6.1912,-6.1253,-6.0565,-5.9877,-5.9219,0.0,0.0,0.0,0.0,0.0,-5.6346,-5.5628,-5.5239,-5.5209,-5.5209,-5.5179,-5.5179,-5.5209,-5.5508,-5.6218,-5.5538,-5.5457,-5.6115,-5.6631,-5.6942,-5.705,-5.8306,-5.8416,-5.7407,-5.5797,-5.5867,-5.7059,-5.5037,-5.527,-5.6651,-5.2336,-5.1203,-5.216,-5.2103,-5.2459,-5.301,-5.3041,-5.2773,-5.2344,-5.2063,-5.1563,-5.1164,-5.1943,-5.169,-5.1199,-5.1199,-5.1199,-5.1319,0.0,0.0,0.0,-5.5137,-5.5015,-5.494,-5.6571,-5.4656,-5.2384,-5.1731,-4.9835,-4.7886,-4.6631,-4.469,-4.3146,-4.2625,-4.2463,-4.2383,-4.2383,-4.2031,-4.2446,-4.4363,-4.4272,-4.5627,-4.9534,-4.9961,-5.0787,-5.2767,-5.2929,-5.2929,-5.2929,-5.2929,-5.2929,-5.2904,-5.2377,-5.2076,-5.2051,-5.2076,-5.1825,-5.1247,-5.1297,-5.0996,-5.0393,-4.9866,-4.9615,-4.959,-4.9615,-4.9615,-4.9615,-4.9615,-4.964,-4.9715,-5.0268,-4.959,-4.8463,-4.8916,-4.7015,-4.4205,-6.3079,-6.3079,-6.3079,-6.3079,-6.2929,-6.26,-6.1942,-6.1253,-6.0595,0.0,0.0,0.0,-5.8441,-5.8231,-5.7992,-5.7633,-5.6944,-5.6376,-5.5927,-5.5448,-5.5179,-5.5179,-5.5658,-5.5987,-5.6218,-5.4936,-5.4351,-5.4555,-5.3137,-5.349,-5.5501,-5.4654,-5.4635,-5.5228,-5.4368,-5.3101,-5.1776,-5.1569,-5.2168,-5.3095,-5.0773,-5.0437,-5.1189,-4.9646,-4.9871,-5.0916,-5.0063,-5.0868,-5.2285,-5.1294,-5.1404,-5.1931,-5.1356,-5.0875,-5.0465,-5.0465,-5.0465,-5.0614,-5.1319,0.0,0.0,0.0,0.0,0.0,-5.4372,-5.3097,-5.1977,-5.3301,-5.0418,-4.8117,-4.984,-4.6957,-4.4655,-4.5577,-4.3367,-4.1523,-4.1523,-4.1426,-4.1562,-4.2086,-4.3289,-4.5052,-4.7613,-4.9153,-5.0787,-5.2767,-5.2929,-5.2929,-5.2929,-5.2929,-5.2754,-5.2352,-5.2176,-5.1699,-5.0896,-5.1699,-5.1624,-5.067,-5.1473,-5.1373,-5.0419,-5.0268,-4.9967,-4.9615,-5.0017,-5.0193,-5.0193,-5.0193,-5.067,-5.1423,-5.1574,-5.1362,-5.0925,-5.0073,-4.8615,-4.6851,-6.3079,-6.3079,-6.3079,-6.3079,-6.2839,-6.254,-6.2151,-6.1283,-6.0535,0.0,0.0,0.0,-5.8201,-5.862,-5.862,-5.7782,-5.7334,-5.6825,-5.6226,-5.5568,-5.5179,-5.5179,-5.5568,-5.6017,-5.6526,-5.4545,-5.3794,-5.4313,-5.1902,-5.1516,-5.3128,-5.2184,-5.1914,-5.2284,-5.1899,-5.0643,-4.8937,-4.949,-5.0155,-5.0764,-4.9697,-5.0015,-5.097,-4.9799,-5.0142,-5.12,-5.0002,-5.0777,-5.2032,-5.0524,-5.0533,-5.0988,-4.9655,-4.9831,-5.0434,-4.9952,-5.0567,-5.1498,-5.1588,-5.1828,-5.2366,-5.3683,0.0,0.0,-5.4393,-5.3077,-5.2044,-5.4061,-5.1782,-4.9871,-5.1473,-4.9047,-4.7024,-4.7438,-4.514,-4.3098,-4.2463,-4.2406,-4.2119,-4.1327,-4.2196,-4.3663,-4.5574,-4.754,-4.9534,-5.1513,-5.2421,-5.2829,-5.2603,-5.2578,-5.2327,-5.1774,-5.1523,-5.1197,-5.077,-5.1197,-5.1071,-5.0419,-5.1071,-5.0946,-5.0067,-5.0067,-5.0017,-4.9967,-5.0268,-5.0695,-5.1122,-5.1122,-5.1373,-5.1774,-5.2026,-5.2101,-5.204,-5.1387,-5.0307,-4.8779,0.0,-6.3079,-6.3079,-6.3079,-6.26,-6.2241,-6.2301,-6.1164,-6.0326,0.0,-5.9787,-5.9129,-5.862,-5.9548,-5.9488,-5.7693,-5.7334,-5.6944,-5.6368,-5.5538,-5.5119,-5.5179,-5.5119,-5.5658,-5.6855,-5.4176,-5.3238,-5.4354,-5.1544,-5.0214,-5.0381,-5.0381,-4.9924,-4.9212,-4.9265,-4.8687,-4.7782,-4.8485,-4.9012,-4.9389,-4.9063,-4.9891,-5.1272,-5.1272,-5.185,-5.2528,-5.1548,-5.1448,-5.1548,-4.9784,-4.9263,-4.9173,-4.7558,-4.8686,-5.0354,-4.9316,-5.0699,-5.2456,-5.2156,-5.2621,-5.3505,-5.47,-5.4281,0.0,-5.5559,-5.3914,-5.2555,-5.4313,-5.3387,-5.2218,-5.2231,-5.0931,-4.9626,-4.8734,-4.7586,-4.6207,-4.4613,-4.4247,-4.3435,-4.1773,-4.1327,-4.1985,-4.3945,-4.5849,-4.7854,-4.9819,-5.1816,-5.2678,-5.2126,-5.2101,-5.1825,-5.1197,-5.0695,-5.0645,-5.1096,-5.0645,-5.0419,-5.0419,-5.0419,-5.0167,-4.969,-4.9615,-4.9891,-5.0419,-5.0494,-5.1122,-5.2101,-5.2176,-5.19,-5.1523,-5.2,-5.2201,-5.2251,-5.2754,-5.1792,-5.0197,-6.3079,-6.3079,-6.3079,-6.3079,-6.2959,-6.3049,-6.3558,-6.254,-6.1882,-6.2421,-6.1463,-6.0864,-6.1283,-6.1074,-6.0745,-6.0356,-5.886,-5.7633,-5.6944,-5.5329,-5.464,-5.5179,-5.467,-5.476,-5.5538,-5.2677,-5.1097,-5.09,-4.7925,-4.7126,-4.8273,-4.8273,-4.8421,-4.8658,-4.9106,-4.8332,-4.6728,-4.8159,-4.856,-4.8335,-4.959,-5.0569,-5.1272,-5.1272,-5.1122,-5.087,-5.067,-5.0368,-4.9981,-4.9166,-4.879,-4.8501,-4.7592,-4.7541,-4.7823,-4.7993,-4.8168,-4.8652,-5.071,-5.2114,-5.3121,-5.3496,-5.497,0.0,-5.4162,-5.3784,-5.398,-5.487,-5.2949,-5.1875,-5.4403,-5.2193,-5.0114,-5.0436,-5.0368,-4.94,-4.6844,-4.5127,-4.3945,-4.3587,-4.2119,-4.1985,-4.3945,-4.5849,-4.7854,-4.9819,-5.1816,-5.2678,-5.2126,-5.2101,-5.1649,-5.0619,-5.0469,-5.0268,-4.9916,-5.0243,-5.0419,-5.0419,-5.0419,-5.0368,-5.0243,-4.9791,-4.9891,-5.0444,-5.0921,-5.1498,-5.2126,-5.2578,-5.2703,-5.2628,-5.2729,-5.2754,-5.2779,-5.2879,-5.2423,-5.1525,-6.3079,-6.3079,-6.3079,-6.3079,-6.3079,-6.3288,-6.3917,-6.2929,-6.245,-6.3408,-6.269,-6.1822,-6.1164,-6.1104,-6.0715,-5.9697,-5.8381,-5.7184,-5.6226,-5.494,-5.4192,-5.4192,-5.4192,-5.467,-5.5658,-5.2177,-5.0519,-5.0878,-4.7002,-4.5429,-4.6128,-4.6128,-4.6283,-4.6592,-4.7159,-4.6874,-4.5999,-4.7657,-4.8184,-4.8033,-4.9439,-5.0519,-5.1272,-5.1272,-5.1272,-5.1272,-5.1272,-5.072,-4.9916,-4.9364,-4.9089,-4.8737,-4.7349,-4.7822,-4.8803,-4.7889,-4.8437,-4.9441,-5.0135,-5.1076,-5.2156,-5.3237,-5.4038,0.0,0.0,-5.3443,-5.3503,-5.4491,-5.297,-5.2129,-5.4316,-5.2658,-5.0884,-5.088,-5.0976,-5.0514,-4.8929,-4.7734,-4.6662,-4.5648,-4.4699,-4.4096,-4.4096,-4.6735,-4.932,-5.1303,-5.2327,-5.2578,-5.1724,-5.1699,-5.1172,-5.0042,-5.0017,-5.0017,-5.0017,-5.0017,-5.0142,-5.0419,-5.0142,-5.0017,-4.9992,-4.9715,-5.0067,-5.087,-5.1147,-5.1749,-5.2528,-5.2804,-5.2929,-5.2929,-5.2929,-5.2929,-5.2929,-5.2929,-5.2754,-5.2416,-6.3079,-6.3079,-6.3079,-6.3079,-6.3079,-6.3288,-6.3917,-6.3019,-6.2515,-6.3238,-6.2499,-6.1465,-6.0149,-6.0119,-5.9815,-5.8776,-5.7483,-5.6466,-5.5807,-5.4551,-5.3623,-5.3204,-5.3593,-5.4311,-5.5388,-5.1957,-5.0458,-5.1183,-4.6922,-4.4731,-4.4468,-4.4468,-4.4593,-4.4794,-4.5171,-4.5497,-4.5899,-4.7205,-4.7883,-4.8159,-4.9188,-5.0218,-5.1122,-5.1247,-5.1548,-5.1925,-5.1825,-5.1272,-5.0469,-4.9816,-4.9665,-4.9414,-4.7531,-4.8595,-5.0228,-4.842,-4.9409,-5.0905,-5.0292,-5.0705,-5.1622,-5.3096,-5.3267,-5.314,0.0,0.0,0.0,-5.3503,-5.2755,-5.2326,-5.3315,-5.2468,-5.1409,-5.0932,-5.0703,-5.0565,-5.041,-5.0124,-4.9297,-4.744,-4.6973,-4.6279,-4.4827,-4.7744,-5.057,-5.2767,-5.2729,-5.2226,-5.1322,-5.1272,-5.077,-4.964,-4.959,-4.9816,-5.0243,-4.9816,-4.9816,-5.0243,-4.9816,-4.959,-4.959,-4.959,-5.0218,-5.1272,-5.1272,-5.19,-5.2929,-5.2929,-5.2929,-5.2929,-5.2929,-5.2929,-5.2929,-5.2929,-5.2929,-5.2929,-6.3079,-6.3079,-6.3079,-6.3079,-6.3079,-6.3288,-6.3917,-6.3408,-6.2496,-6.1077,-5.9111,-5.8292,-5.9416,-5.8147,-5.8165,-6.0574,-5.7483,-5.6077,-5.7693,-5.4431,-5.2665,-5.3144,-5.2695,-5.2486,-5.2636,-5.1482,-5.0124,-4.8526,-4.665,-4.5137,-4.389,-4.389,-4.4443,-4.5372,-4.492,-4.5547,-4.6954,-4.7093,-4.7782,-4.8736,-4.9339,-4.9967,-5.0569,-5.1096,-5.1322,-5.1297,-5.0795,-5.0845,-5.1021,-4.9967,-4.9916,-5.0193,-4.9464,-4.914,-4.9103,-4.9292,-4.9217,-4.949,-5.1163,-5.2439,-5.3174,-5.2116,-5.446,-5.5845,-5.1613,0.0,-5.3533,-5.1887,0.0,-5.1541,-5.2263,0.0,0.0,-5.1028,-5.0506,-5.0104,-5.0175,-4.9863,-4.9281,-4.8301,-4.7039,-4.6413,-4.6617,-4.7816,-4.9749,-5.2717,-5.2026,-5.1423,-5.1297,-5.1272,-5.077,-4.964,-4.959,-4.9615,-4.969,-4.9615,-4.9615,-4.969,-4.9615,-4.959,-4.959,-4.959,-5.0218,-5.1272,-5.1272,-5.19,-5.2929,-5.2929,-5.2929,-5.2929,-5.2929,-5.2929,-5.2929,-5.2929,-5.2929,-5.2929,-6.3079,-6.2292,-6.1468,-6.1175,-6.1028,-6.0908,-6.0646,-6.1232,-6.1126,-5.9273,-5.8836,-5.8646,-5.8547,-5.8044,-5.8061,-5.8867,-5.7695,-5.6765,-5.6436,-5.485,-5.3892,-5.3773,-5.3144,-5.3144,-5.3922,-5.0896,-4.9078,-4.8664,-4.5706,-4.3904,-4.3313,-4.3313,-4.3915,-4.497,-4.4744,-4.5547,-4.7093,-4.7456,-4.8234,-4.9264,-4.9515,-4.9916,-5.0469,-5.1046,-5.1674,-5.2126,-5.1247,-5.1272,-5.1599,-5.0444,-5.067,-5.1197,-4.9967,-5.0117,-5.0569,-4.9816,-4.9665,-4.9819,-5.0397,-5.096,-5.1379,-5.1409,-5.2108,-5.2482,-5.1528,-5.1599,-5.1964,-5.2282,0.0,0.0,0.0,0.0,0.0,0.0,-5.1586,-5.1062,-4.942,-4.9611,-4.9824,-4.9569,-4.8439,-4.7921,-4.8448,-4.8103,-4.8836,-5.1289,-5.1046,-5.0645,-5.0318,-5.0619,-5.0419,-4.9615,-4.959,-4.959,-4.959,-4.9264,-4.9289,-4.959,-4.9264,-4.9289,-4.959,-4.959,-5.0218,-5.1272,-5.1272,-5.19,-5.2929,-5.2929,-5.2929,-5.2929,-5.2929,-5.2929,-5.2929,-5.2929,-5.2929,-5.2929,-6.1586,-6.0817,-6.0223,-5.9935,-5.9231,-5.8451,-5.7931,-5.8439,-5.8526,-5.7414,-5.738,-5.7439,-5.7357,-5.7231,-5.7302,-5.769,-5.7678,-5.703,-5.5663,-5.5364,-5.482,-5.3952,-5.3443,-5.3473,-5.4072,-5.0513,-4.8614,-4.8553,-4.5199,-4.3427,-4.3212,-4.3062,-4.3639,-4.4869,-4.4869,-4.5799,-4.738,-4.8083,-4.8937,-4.9841,-4.9992,-5.0293,-5.0695,-5.1122,-5.1975,-5.2804,-5.185,-5.185,-5.2176,-5.1197,-5.1523,-5.2126,-5.0896,-5.1247,-5.1875,-5.0645,-5.0569,-5.077,-5.0218,-5.0167,-5.0265,-5.0182,-4.9711,-4.9423,-5.0032,-5.0429,-5.1157,-5.2605,-5.2483,0.0,0.0,0.0,-5.2683,-5.2952,0.0,-5.2085,-4.9852,-4.9531,-4.9507,-4.9531,-4.9339,-4.9389,-4.9791,-4.8599,-4.8572,-5.0262,-4.9866,-4.954,-4.959,-4.9841,-4.9841,-4.9615,-4.959,-4.9515,-4.9364,-4.8962,-4.8962,-4.9364,-4.8962,-4.9063,-4.959,-4.9741,-5.0268,-5.1046,-5.1222,-5.1724,-5.2477,-5.2628,-5.2703,-5.2729,-5.2879,-5.2929,-5.2929,-5.2929,-5.2929,-5.2929,-5.779,-5.8625,-5.9848,-6.0425,-5.8184,-5.6587,-5.7162,-5.5429,-5.4399,-5.5353,-5.3196,-5.2731,-5.5797,-5.4655,-5.4944,-5.8264,-5.7253,-5.6479,-5.6535,-5.5689,-5.461,-5.3264,-5.3204,-5.2606,-5.1379,-5.0524,-4.9171,-4.715,-4.5688,-4.4549,-4.3765,-4.3212,-4.3865,-4.5472,-4.5472,-4.6376,-4.7958,-4.9063,-4.9866,-5.0444,-5.0996,-5.1247,-5.1247,-5.1272,-5.1975,-5.2854,-5.2277,-5.2427,-5.2804,-5.2251,-5.2427,-5.2879,-5.2829,-5.2477,-5.2101,-5.2051,-5.2026,-5.1925,-5.1373,-5.1624,-5.1247,-4.8045,-4.8232,-4.8521,-4.5841,-4.8767,-5.2082,-5.211,-5.4687,-5.6885,-5.6944,-5.6436,-5.6017,-5.6055,-5.4345,0.0,0.0,-4.969,-4.7638,-4.7288,-4.9088,-5.0368,-5.0393,-4.9375,-4.9199,-5.0343,-4.8435,-4.7933,-4.9515,-4.9113,-4.9063,-4.9565,-4.959,-4.9339,-4.8812,-4.8786,-4.8786,-4.8786,-4.8786,-4.9063,-4.9615,-5.0142,-5.0419,-5.0469,-5.1046,-5.1297,-5.1373,-5.19,-5.2126,-5.2176,-5.2729,-5.2929,-5.2929,-5.2929,-5.2929,-5.2929,-5.7854,-5.6663,-5.5749,-5.5558,-5.4681,-5.419,-5.4717,-5.3622,-5.3222,-5.4636,-5.4075,-5.4144,-5.5974,-5.5985,-5.6172,-5.6864,-5.6856,-5.6936,-5.7254,-5.693,-5.6887,-5.7072,-5.6675,-5.5837,-5.4521,-5.1995,-4.9724,-4.7754,-4.5356,-4.4097,-4.379,-4.3614,-4.4217,-4.5497,-4.5874,-4.6728,-4.7983,-4.9113,-5.0142,-5.1046,-5.1599,-5.2051,-5.2302,-5.1548,-5.1749,-5.2402,-5.2578,-5.2779,-5.2904,-5.2703,-5.2779,-5.2854,-5.2503,-5.2503,-5.2503,-5.1774,-5.2076,-5.2528,-5.1975,-5.2226,-5.2026,-4.9414,-4.8559,-4.7923,-4.6428,-4.7616,-4.931,-5.0262,-5.2235,-5.3809,-5.3809,-5.4898,-5.5638,-5.523,-5.5477,-5.4584,0.0,-4.7251,-4.4973,-4.5933,-4.7355,-4.8109,-4.7732,-4.7682,-4.7832,-4.8209,-4.6878,-4.6602,-4.7908,-4.8109,-4.846,-4.9038,-4.9414,-4.9515,-4.9314,-4.8962,-4.8962,-4.9314,-4.8937,-4.9063,-4.9615,-4.9791,-5.0067,-5.0419,-5.0619,-5.0921,-5.1322,-5.1875,-5.2101,-5.2151,-5.2703,-5.2929,-5.2929,-5.2929,-5.2929,-5.2929,-5.6095,-5.4076,-5.2801,-5.3467,-5.2889,-5.2375,-5.2738,-5.2521,-5.2929,-5.4386,-5.4561,-5.4988,-5.6093,-5.6232,-5.6055,-5.5624,-5.6265,-5.6475,-5.5862,-5.713,-5.7915,-5.7926,-5.8053,-5.7513,-5.6248,-5.374,-5.1091,-4.8362,-4.652,-4.5177,-4.4392,-4.4192,-4.4694,-4.5799,-4.6351,-4.7079,-4.8008,-4.954,-5.0494,-5.0996,-5.1373,-5.195,-5.2528,-5.1624,-5.185,-5.2703,-5.2854,-5.2929,-5.2929,-5.2929,-5.2929,-5.2854,-5.2503,-5.2503,-5.2503,-5.1774,-5.2076,-5.2528,-5.1975,-5.2226,-5.2151,-5.0117,-4.9038,-4.8257,-4.7313,-4.8329,-4.9717,-5.059,-5.2584,-5.4199,-5.4199,-5.5119,-5.5507,-5.4686,-5.5068,-5.3949,0.0,-4.6021,-4.4192,-4.507,-4.6175,-4.6928,-4.7154,-4.7154,-4.7068,-4.7068,-4.5924,-4.5573,-4.6502,-4.7054,-4.7682,-4.8435,-4.9012,-4.9314,-4.9314,-4.8962,-4.8962,-4.9289,-4.8937,-4.9063,-4.9615,-4.9791,-4.9967,-5.0142,-5.0343,-5.0519,-5.0745,-5.1498,-5.18,-5.1875,-5.2628,-5.2929,-5.2929,-5.2929,-5.2929,-5.2929,-5.2565,-5.1272,-5.1321,-5.3948,-5.2627,-5.1222,-5.1272,-5.2176,-5.3256,-5.4411,-5.4612,-5.5039,-5.6093,-5.5239,-5.4658,-5.4536,-5.5503,-5.5142,-5.287,-5.6298,-5.7597,-5.5934,-5.7374,-5.7617,-5.6273,-5.5586,-5.3254,-4.9138,-4.8913,-4.769,-4.5547,-4.4945,-4.5246,-4.6301,-4.6903,-4.7431,-4.8008,-5.0268,-5.0946,-5.0469,-5.0494,-5.1172,-5.2076,-5.1523,-5.2302,-5.3632,-5.3105,-5.2929,-5.2929,-5.2929,-5.2929,-5.2929,-5.2929,-5.2578,-5.2126,-5.2126,-5.2126,-5.2026,-5.1473,-5.1724,-5.1749,-5.0117,-4.9665,-4.9339,-4.8234,-5.0518,-5.2886,-5.2886,-5.5447,-5.7724,-5.7669,-5.6796,-5.5673,-5.4405,-5.3082,-5.0949,-4.7333,-4.6013,-4.5146,-4.4719,-4.5547,-4.6803,-4.846,-4.7657,-4.6993,-4.7004,-4.5472,-4.4794,-4.5422,-4.5999,-4.6778,-4.7832,-4.8485,-4.8812,-4.8812,-4.8812,-4.8812,-4.8812,-4.8812,-4.9088,-4.9615,-5.0142,-5.0092,-4.9615,-5.0142,-5.0092,-4.9715,-5.082,-5.1297,-5.1423,-5.2503,-5.2929,-5.2929,-5.2929,-5.2929,-5.2929,-5.2797,-5.2151,-5.1758,-5.2047,-5.0973,-5.0318,-5.1147,-5.1523,-5.2402,-5.4381,-5.529,-5.5892,-5.6168,-5.5591,-5.4838,-5.3984,-5.3822,-5.4029,-5.4616,-5.5644,-5.6341,-5.6698,-5.8744,-5.9016,-5.7245,-5.722,-5.5566,-5.2344,-4.9906,-4.8016,-4.6702,-4.5723,-4.5422,-4.5748,-4.7104,-4.7581,-4.7481,-4.969,-5.0795,-5.1096,-5.1498,-5.2101,-5.2653,-5.2101,-5.2653,-5.3632,-5.3105,-5.2929,-5.2929,-5.2929,-5.2929,-5.2929,-5.2929,-5.2829,-5.2628,-5.2226,-5.2402,-5.2603,-5.2051,-5.2302,-5.2528,-5.1674,-5.082,-5.0017,-4.9314,-5.0178,-5.111,-5.111,-5.2766,-5.3932,-5.3174,-5.3813,-5.3708,-5.1677,-4.9706,-4.788,-4.6453,-4.4369,-4.362,-4.5095,-4.4418,-4.4493,-4.6175,-4.6075,-4.5723,-4.5296,-4.4116,-4.3815,-4.4794,-4.5773,-4.6627,-4.7305,-4.8661,-4.9389,-4.9389,-4.9389,-4.9389,-4.9389,-4.9389,-4.9464,-4.959,-4.9741,-4.9715,-4.9615,-4.9741,-4.9967,-5.0268,-5.0971,-5.1523,-5.1975,-5.2653,-5.2929,-5.2929,-5.2929,-5.2929,-5.2929,-5.2929,-5.2678,-5.2226,-5.1423,-5.1147,-5.1348,-5.2201,-5.2151,-5.2703,-5.4662,-5.5265,-5.539,-5.5139,-5.4838,-5.431,-5.3432,-5.3105,-5.3189,-5.387,-5.4851,-5.5548,-5.5925,-5.7896,-5.8664,-5.8002,-5.8089,-5.6591,-5.3505,-5.1734,-4.9561,-4.7043,-4.625,-4.5849,-4.5899,-4.7054,-4.7531,-4.7581,-4.9314,-5.082,-5.1975,-5.1548,-5.2,0.0,-5.2327,-5.2628,-5.3331,-5.303,-5.2929,-5.2929,-5.2929,-5.2929,-5.2929,-5.2929,-5.2929,-5.2879,-5.2553,-5.2678,-5.2854,-5.2553,-5.2678,-5.2804,-5.2251,-5.18,-5.1373,-5.082,-5.1122,-5.1523,-5.1523,-5.2277,-5.2653,-5.18,-5.2031,-5.1548,-4.9273,-4.747,-4.6099,-4.5473,-4.4153,-4.3689,-4.497,-4.4719,-4.4719,-4.5422,-4.4819,-4.4468,-4.4618,-4.3815,-4.3514,-4.389,-4.5422,-4.6451,-4.6753,-4.8385,-4.9339,-4.959,-4.9841,-4.9841,-4.959,-4.959,-4.959,-4.959,-4.959,-4.959,-4.9615,-4.9841,-5.0117,-5.0469,-5.1297,-5.1825,-5.2151,-5.2703,-5.2929,-5.2929,-5.2929,-5.2929,-5.2929,-5.2829,-5.2879,-5.2603,-5.1574,-5.2251,-5.3155,-5.3808,-5.3532,-5.3758,-5.5189,-5.5039,-5.4536,-5.3884,-5.3758,-5.3482,-5.298,-5.2929,-5.2729,-5.2251,-5.4015,-5.4879,-5.438,-5.5942,-5.7203,-5.8068,-5.8135,-5.6663,-5.3512,-5.3386,-5.1174,-4.723,-4.6527,-4.625,-4.6326,-4.6803,-4.7355,-4.7983,-4.9113,-5.072,-5.2377,-5.1046,-5.1448,-5.2779,-5.2277,-5.2452,-5.2929,-5.2929,-5.2929,-5.2929,-5.2929,-5.2929,-5.2929,-5.2929,-5.2929,-5.2929,-5.2929,-5.2929,-5.2929,-5.2929,-5.2929,-5.2804,-5.2327,-5.2528,-5.2703,-5.2302,-5.2528,-5.2829,-5.2829,-5.2829,-5.2603,-5.19,-5.0745,-4.9238,-4.733,-4.61,-4.5246,-4.4895,-4.4794,-4.4794,-4.4945,-4.5748,0.0,-4.5547,-4.4242,-4.374,-4.4568,-4.4116,-4.3589,-4.3112,-4.507,-4.6225,-4.6301,-4.7908,-4.9063,-4.969,-5.0117,-5.0117,-4.969,-4.9615,-4.959,-4.959,-4.959,-4.959,-4.9615,-5.0167,-5.0469,-5.0619,-5.1674,-5.2151,-5.2251,-5.2729,-5.2929,-5.2929,-5.2929,-5.2929,-5.2929,-5.2327,-5.2628,-5.2729,-5.2076,-5.2503,-5.3432,-5.4863,-5.5013,-5.5064,-5.534,-5.5691,-5.5541,-5.4536,-5.3984,-5.3482,-5.298,-5.2929,-5.2879,-5.2779,-5.3128,-5.3334,-5.3232,-5.4785,-5.5732,-5.595,-5.6369,-5.5648,-5.3734,-5.1816,-4.9819,-4.7732,-4.6301,-4.5874,-4.6326,-4.6401,-4.7004,-4.7983,-4.9113,-4.9816,-5.0243,-5.087,-5.1574,-5.2226,-5.2151,-5.2452,-5.2929,-5.2929,-5.2929,-5.2929,-5.2929,-5.2929,-5.2929,-5.2929,-5.2929,-5.2929,-5.2929,-5.2929,-5.2929,-5.2929,-5.2929,-5.2904,-5.2804,-5.2528,-5.2352,-5.2703,-5.2503,-5.2251,-5.2251,-5.2251,-5.18,-5.0318,-4.8385,-4.6903,-4.6527,-4.5497,-4.507,-4.5899,-4.5623,-4.5673,-4.6577,-4.6476,-4.61,-4.5547,-4.5623,-4.5422,-4.4694,-4.4116,-4.3765,-4.3664,-4.492,-4.5849,-4.6301,-4.7908,-4.9264,-5.0268,-4.9916,-4.9916,-5.0268,-4.9816,-4.959,-4.959,-4.959,-4.959,-4.9615,-5.0167,-5.0695,-5.1172,-5.185,-5.2377,-5.2804,-5.2879,-5.2929,-5.2929,-5.2929,-5.2929,-5.2929,-5.2578,-5.2528,-5.2503,-5.2528,-5.3231,-5.4135,-5.5214,-5.5867,-5.6043,-5.5465,-5.4863,-5.431,-5.3758,-5.3457,-5.3206,-5.2955,-5.2929,-5.2929,-5.2929,-5.2929,-5.2929,-5.2929,-5.3674,-5.4474,-5.5353,-5.5055,-5.4369,-5.3409,-5.1311,-4.9204,-4.7054,-4.6276,-4.5899,-4.5899,-4.6476,-4.733,-4.841,-4.9238,-4.9941,-5.0544,-5.1373,-5.2051,-5.2528,-5.2528,-5.2703,-5.2929,-5.2929,-5.2929,-5.2929,-5.2929,-5.2929,-5.2929,-5.2929,-5.2929,-5.2929,-5.2929,-5.2929,-5.2929,-5.2929,-5.2929,-5.2854,-5.2578,-5.2302,-5.2101,-5.2076,-5.1875,-5.1674,-5.1674,-5.1674,-5.1247,-4.9866,-4.8259,-4.723,-4.7531,-4.6878,-4.6627,-4.7456,-4.7104,-4.6828,-4.7043,-4.6652,-4.62,-4.5949,-4.615,-4.5598,-4.389,-4.3514,-4.3363,-4.3363,-4.4443,-4.5422,-4.6276,-4.7631,-4.8987,-5.0393,-5.0142,-5.0142,-5.0419,-4.9866,-4.959,-4.959,-4.959,-4.9741,-5.0067,-5.0619,-5.1197,-5.1749,-5.2302,-5.2678,-5.2929,-5.2929,-5.2929,-5.2929,-5.2929,-5.2929,-5.2929,-5.2929,-5.2678,-5.2578,-5.303,-5.4009,-5.4888,-5.5315,-5.6219,-5.6595,-5.5842,-5.431,-5.3281,-5.3281,-5.308,-5.2929,-5.2929,-5.2929,-5.2929,-5.2929,-5.2929,-5.2929,-5.2929,-5.2929,-5.3495,-5.4849,-5.3727,-5.2839,-5.226,-5.0577,-4.8507,-4.6125,-4.6125,-4.5849,-4.5347,-4.6451,-4.7506,-4.846,-4.9138,-5.0142,-5.1322,-5.1875,-5.2427,-5.2929,-5.2929,-5.2929,-5.2929,-5.2929,-5.2929,-5.2929,-5.2929,-5.2929,-5.2929,-5.2929,-5.2929,-5.2929,-5.2929,-5.2929,-5.2929,-5.2929,-5.2929,-5.2829,-5.2377,-5.2101,-5.1875,-5.1674,-5.1348,-5.1147,-5.1247,-5.1096,-5.0619,-4.9615,-4.8786,-4.8385,-4.8711,-4.8485,-4.8435,-4.8887,-4.8661,-4.8159,-4.738,-4.7129,-4.6677,-4.5849,-4.5999,-4.5221,-4.2961,-4.3011,-4.3212,-4.3313,-4.4041,-4.497,-4.61,-4.728,-4.8661,-5.0218,-5.0243,-5.0293,-5.0419,-4.9866,-4.959,-4.959,-4.9715,-5.0017,-5.0469,-5.1147,-5.1774,-5.2302,-5.2754,-5.2929,-5.2929,-5.2929,-5.2929,-5.2929,-5.2929,-5.2629,-5.2258,-5.2929,-5.3256,-5.3557,-5.3607,-5.4561,-5.534,-5.539,-5.5892,-5.642,-5.6821,-5.544,-5.4411,-5.4411,-5.3532,-5.2929,-5.2929,-5.2929,-5.2929,-5.2929,-5.2929,-5.2929,-5.2929,-5.2929,-5.2998,-5.311,-5.2094,-5.1008,-4.9923,-4.8737,-4.7227,-4.5573,-4.5573,-4.5271,-4.4744,-4.5899,-4.6728,-4.7355,-4.841,-4.9791,-5.1322,-5.1875,-5.2427,-5.2929,-5.2929,-5.2929,-5.2929,-5.2929,-5.2929,-5.2929,-5.2929,-5.2929,-5.2929,-5.2929,-5.2929,-5.2929,-5.2929,-5.2929,-5.2929,-5.2929,-5.2929,-5.2904,-5.2854,-5.2101,-5.1599,-5.2553,-5.1599,-5.0645,-5.1172,-5.0469,-4.9565,-4.8962,-4.9163,-4.9289,-4.8837,-4.9138,-4.9464,-4.9515,-4.9891,-4.959,-4.8033,-4.8686,-4.7908,-4.4392,-4.497,-4.4644,-4.2464,-4.3162,-4.394,-4.4443,-4.4091,-4.4392,-4.5522,-4.7079,-4.8485,-4.9665,-4.9665,-4.9916,-5.0419,-4.9866,-4.959,-4.9615,-5.0117,-5.0368,-5.0469,-5.1548,-5.2352,-5.2854,-5.2904,-5.2929,-5.2929,-5.2929,-5.2929,-5.2929,-5.2929,-5.1816,-5.0269,-5.3909,-5.3808,-5.3909,-5.4587,-5.4536,-5.4612,-5.529,-5.529,-5.5315,-5.5516,-5.4988,-5.4436,-5.4084,-5.3381,-5.2929,-5.2929,-5.2929,-5.2929,-5.2929,-5.2929,-5.2929,-5.2929,-5.2929,-5.2929,-5.2929,-5.185,-5.072,-4.959,-4.846,-4.7079,-4.5497,-4.5824,-4.6024,-4.609,-4.6928,-4.7581,-4.8209,-4.9665,-5.067,-5.1348,-5.2251,-5.2729,-5.2929,-5.2929,-5.2929,-5.2929,-5.2929,-5.2929,-5.2929,-5.2929,-5.2929,-5.2929,-5.2929,-5.2929,-5.2929,-5.2929,-5.2929,-5.2929,-5.2929,-5.2929,-5.2929,-5.2929,-5.2101,-5.1398,-5.185,-5.0896,-4.9992,-5.0218,-4.9916,-4.9515,-4.9314,-4.9439,-4.9741,-5.0193,-5.0469,-5.0845,-5.1498,-5.1222,-5.0444,-4.9088,-4.8159,-4.6878,-4.4995,-4.4618,-4.4518,-4.4644,-4.3815,-4.3413,-4.3639,-4.374,-4.4317,-4.5447,-4.6753,-4.8134,-4.959,-4.959,-4.9866,-5.0419,-4.9866,-4.9766,-5.0092,-5.0318,-5.0795,-5.1473,-5.2251,-5.2729,-5.2929,-5.2929,-5.2929,-5.2929,-5.2929,-5.2929,-5.2929,-5.2929,-5.1677,-4.9819,-5.4561,-5.4361,-5.4461,-5.5239,-5.4737,-5.4411,-5.5039,-5.4813,-5.4511,-5.4336,-5.431,-5.416,-5.3758,-5.3231,-5.2929,-5.2929,-5.2929,-5.2929,-5.2929,-5.2929,-5.2929,-5.2929,-5.2929,-5.2854,-5.2678,-5.1774,-5.072,-4.959,-4.846,-4.7154,-4.5748,-4.6301,-4.6853,-4.738,-4.8083,-4.8711,-4.9339,-5.0695,-5.1473,-5.1825,-5.2628,-5.2929,-5.2929,-5.2929,-5.2929,-5.2929,-5.2929,-5.2929,-5.2929,-5.2929,-5.2929,-5.2929,-5.2929,-5.2929,-5.2929,-5.2929,-5.2929,-5.2929,-5.2929,-5.2929,-5.2929,-5.2929,-5.2226,-5.1574,-5.1724,-5.077,-4.9791,-4.9615,-4.959,-4.959,-4.959,-4.9866,-5.0293,-5.0921,-5.1448,-5.1875,-5.2151,-5.18,-5.0921,-4.9289,-4.7732,-4.6376,-4.5347,-4.4367,-4.4292,-4.5472,-4.4267,-4.3539,-4.3714,-4.3765,-4.4317,-4.5447,-4.6702,-4.8008,-4.9339,-4.9515,-4.9791,-5.0167,-4.9941,-5.0042,-5.0419,-5.077,-5.1423,-5.2377,-5.2754,-5.2929,-5.2929,-5.2929,-5.2929,-5.2929,-5.2929,-5.2929,-5.2929,-5.2929,-5.1677,-4.9819,-5.4561,-5.4988,-5.5365,-5.539,-5.539,-5.5189,-5.4662,-5.4561,-5.4361,-5.3783,-5.3708,-5.3708,-5.3708,-5.3231,-5.2929,-5.2929,-5.2929,-5.2929,-5.2929,-5.2929,-5.2929,-5.2929,-5.2929,-5.2678,-5.2126,-5.1574,-5.072,-4.959,-4.846,-4.7355,-4.6301,-4.6853,-4.7405,-4.7958,-4.9063,-4.9891,-5.0444,-5.1021,-5.19,-5.2904,-5.2929,-5.2929,-5.2929,-5.2929,-5.2929,-5.2929,-5.2929,-5.2929,-5.2929,-5.2929,-5.2929,-5.2929,-5.2929,-5.2929,-5.2929,-5.2929,-5.2929,-5.2929,-5.2929,-5.2929,-5.2929,-5.2929,-5.2503,-5.2226,-5.2779,-5.1624,-5.0243,-4.9715,-4.959,-4.959,-4.959,-5.0494,-5.1071,-5.0519,-5.1825,-5.2327,-5.067,-5.1398,-5.1046,-4.8259,-4.7908,-4.7029,-4.4844,-4.4141,-4.3815,-4.384,-4.4317,-4.4844,-4.5422,-4.4418,-4.4317,-4.5447,-4.7054,-4.8184,-4.8786,-4.9314,-4.959,-4.9615,-5.0142,-5.0419,-5.0444,-5.1574,-5.2402,-5.2929,-5.2929,-5.2929,-5.2929,-5.2929,-5.2929,-5.2929,-5.2929,-5.2929,-5.2929,-5.2929,-5.1677,-4.9961,-5.4637,-5.4712,-5.4838,-5.4838,-5.4511,-5.4185,-5.4009,-5.3683,-5.3381,-5.3206,-5.3181,-5.3181,-5.3181,-5.303,-5.2929,-5.2929,-5.2929,-5.2929,-5.2929,-5.2929,-5.2929,-5.2929,-5.2578,-5.2277,-5.2101,-5.1172,-5.0519,-5.0167,-4.9414,-4.8686,-4.8008,-4.856,-4.8912,-4.9113,-5.0243,-5.1046,-5.1599,-5.2176,-5.2603,-5.2929,-5.2929,-5.2929,-5.2929,-5.2929,-5.2929,-5.2929,-5.2929,-5.2929,-5.2929,-5.2929,-5.2929,-5.2929,-5.2929,-5.2929,-5.2929,-5.2929,-5.2929,-5.2929,-5.2929,-5.2929,-5.2929,-5.2929,-5.2528,-5.2151,-5.2327,-5.1348,-5.0368,-5.0193,-5.0167,-5.0167,-5.0167,-5.1071,-5.1774,-5.1599,-5.2327,-5.2603,-5.1699,-5.1222,-5.0343,-4.8686,-4.7832,-4.6803,-4.5347,-4.5045,-4.5095,-4.5472,-4.497,-4.4694,-4.4895,-4.5648,-4.6075,-4.605,-4.7631,-4.8586,-4.8761,-4.969,-5.0167,-5.0167,-5.0745,-5.1197,-5.1599,-5.2327,-5.2754,-5.2929,-5.2929,-5.2929,-5.2929,-5.2929,-5.2929,-5.2929,-5.2929,-5.2929,-5.2929,-5.2929,-5.1677,-4.9819,-5.4712,-5.4737,-5.4737,-5.431,-5.3934,-5.3632,-5.3432,-5.313,-5.2929,-5.2929,-5.2929,-5.2929,-5.2929,-5.2929,-5.2929,-5.2929,-5.2929,-5.2929,-5.2929,-5.2929,-5.2929,-5.2929,-5.2603,-5.2327,-5.2101,-5.1423,-5.0845,-5.0419,-4.9866,-4.9414,-4.9113,-4.9866,-5.0343,-5.0569,-5.1498,-5.2101,-5.2427,-5.2779,-5.2929,-5.2929,-5.2929,-5.2929,-5.2929,-5.2929,-5.2929,-5.2929,-5.2929,-5.2929,-5.2929,-5.2929,-5.2929,-5.2929,-5.2929,-5.2929,-5.2929,-5.2929,-5.2929,-5.2929,-5.2929,-5.2929,-5.2929,-5.2929,-5.2678,-5.2352,-5.2151,-5.1548,-5.0996,-5.0795,-5.0745,-5.0745,-5.0745,-5.1498,-5.2101,-5.2101,-5.2402,-5.2427,-5.1875,-5.0996,-5.0017,-4.8912,-4.8159,-4.7405,-4.6476,-4.6225,-4.625,-4.6602,-4.6351,-4.5999,-4.5598,-4.6376,-4.6954,-4.723,-4.8435,-4.9188,-4.9389,-5.0293,-5.0619,-5.0419,-5.1222,-5.1875,-5.2427,-5.2779,-5.2929,-5.2929,-5.2929,-5.2929,-5.2929,-5.2929,-5.2929,-5.2929,-5.2929,-5.2929,-5.2929,-5.2929,-5.2119,-5.0928,-5.4712,-5.4913,-5.4938,-5.3833,-5.3658,-5.3482,-5.3005,-5.2929,-5.2929,-5.2929,-5.2929,-5.2929,-5.2929,-5.2929,-5.2929,-5.2929,-5.2929,-5.2929,-5.2929,-5.2929,-5.2929,-5.2929,-5.2879,-5.2628,-5.2126,-5.2026,-5.1473,-5.0419,-4.9941,-4.9715,-4.9741,-5.082,-5.1599,-5.2126,-5.2678,-5.2929,-5.2929,-5.2929,-5.2929,-5.2929,-5.2929,-5.2929,-5.2929,-5.2929,-5.2929,-5.2929,-5.2929,-5.2929,-5.2929,-5.2929,-5.2955,-5.298,-5.2929,-5.2955,-5.298,-5.2929,-5.2929,-5.2929,-5.2929,-5.2929,-5.2929,-5.2929,-5.2929,-5.2804,-5.2277,-5.2126,-5.195,-5.1448,-5.1348,-5.1348,-5.1348,-5.18,-5.2176,-5.2176,-5.2126,-5.1925,-5.1348,-5.0745,-4.9967,-4.8887,-4.8761,-4.8535,-4.7958,-4.7506,-4.7255,-4.7255,-4.8159,-4.8309,-4.7355,-4.6828,-4.723,-4.8786,-4.9414,-4.9967,-5.0469,-5.1046,-5.1096,-5.0594,-5.1649,-5.2427,-5.2929,-5.2929,-5.2929,-5.2929,-5.2929,-5.2929,-5.2929,-5.2929,-5.2929,-5.2929,-5.2929,-5.2929,-5.2929,-5.2929,-5.2929,-5.2861,-5.4135,-5.4009,-5.3884,-5.3231,-5.3105,-5.308,-5.2955,-5.2929,-5.2929,-5.2929,-5.2929,-5.2929,-5.2929,-5.2929,-5.2929,-5.2929,-5.2929,-5.2929,-5.2929,-5.2929,-5.2929,-5.2929,-5.2528,-5.2226,-5.2101,-5.1272,-5.0695,-5.0419,-5.072,-5.0896,-5.0896,-5.1599,-5.1975,-5.2126,-5.2678,-5.2929,-5.2929,-5.2929,-5.2929,-5.2929,-5.2929,-5.2929,-5.2929,-5.2929,-5.2929,-5.2929,-5.2929,-5.2929,-5.2929,-5.2929,-5.3181,-5.3457,-5.3055,-5.3206,-5.3432,-5.3055,-5.2929,-5.2929,-5.2929,-5.2929,-5.2929,-5.2929,-5.2929,-5.2904,-5.2754,-5.2402,-5.2076,-5.195,-5.19,-5.19,-5.19,-5.2352,-5.2729,-5.2729,-5.2377,-5.1925,-5.1348,-5.0419,-4.954,-4.8862,-4.8761,-4.8535,-4.7958,-4.8184,-4.8385,-4.8385,-4.8209,-4.8385,-4.8987,-4.8887,-4.8987,-4.9389,-5.0368,-5.0946,-5.1071,-5.1624,-5.2051,-5.2327,-5.2603,-5.2804,-5.2929,-5.2929,-5.2929,-5.2929,-5.2929,-5.2929,-5.2929,-5.2929,-5.2929,-5.2929,-5.2929,-5.2929,-5.2929,-5.2929,-5.2929,-5.2698,-5.431,-5.411,-5.3858,-5.3055,-5.2929,-5.2929,-5.2929,-5.2929,-5.2929,-5.2929,-5.2929,-5.2929,-5.2929,-5.2929,-5.2929,-5.2929,-5.2929,-5.2929,-5.2929,-5.2929,-5.2929,-5.2929,-5.2402,-5.2101,-5.2101,-5.1247,-5.0695,-5.0419,-5.0996,-5.1272,-5.1297,-5.2101,-5.2477,-5.2503,-5.2804,-5.2929,-5.2929,-5.2929,-5.2929,-5.2929,-5.2929,-5.2929,-5.2929,-5.2929,-5.2929,-5.2929,-5.2929,-5.2929,-5.2929,-5.2929,-5.3281,-5.3658,-5.3356,-5.3482,-5.3658,-5.3356,-5.3105,-5.2929,-5.2929,-5.2929,-5.2929,-5.2929,-5.2929,-5.2929,-5.2929,-5.2703,-5.2477,-5.2477,-5.2477,-5.2477,-5.2477,-5.2729,-5.2854,-5.2578,-5.2076,-5.1523,-5.0971,-5.0142,-4.949,-4.9188,-4.9364,-4.9389,-4.9088,-4.959,-4.9715,-4.9188,-4.9339,-4.949,-4.959,-5.0318,-5.0619,-5.0368,-5.1197,-5.1649,-5.1649,-5.195,-5.2377,-5.2929,-5.2929,-5.2929,-5.2929,-5.2929,-5.2929,-5.2929,-5.2929,-5.2929,-5.2929,-5.2929,-5.2929,-5.2929,-5.2929,-5.2929,-5.2929,-5.2929,-5.308,-5.3142,-5.4787,-5.4561,-5.421,-5.313,-5.2929,-5.2929,-5.2929,-5.2929,-5.2929,-5.2929,-5.2929,-5.2929,-5.2929,-5.2929,-5.2929,-5.2929,-5.2929,-5.2929,-5.2929,-5.2929,-5.2929,-5.2929,-5.2402,-5.2101,-5.2101,-5.1548,-5.0996,-5.0419,-5.0996,-5.1322,-5.1423,-5.2377,-5.2854,-5.2929,-5.2929,-5.2929,-5.2929,-5.2929,-5.2929,-5.2929,-5.2929,-5.2929,-5.2929,-5.3005,-5.3055,-5.3055,-5.313,-5.3181,-5.3181,-5.3181,-5.3507,-5.3934,-5.3858,-5.3884,-5.3909,-5.3758,-5.3381,-5.303,-5.2955,-5.2929,-5.2929,-5.2929,-5.2929,-5.2929,-5.2929,-5.2929,-5.2929,-5.2929,-5.2929,-5.2929,-5.2929,-5.2929,-5.2779,-5.2302,-5.1699,-5.1096,-5.0619,-4.9992,-4.9615,-4.9715,-5.0117,-5.0444,-5.0544,-5.0996,-5.0921,-5.0042,-5.0795,-5.0896,-5.0017,-5.1322,-5.19,-5.1423,-5.195,-5.2226,-5.2226,-5.2226,-5.2477,-5.2929,-5.2929,-5.2929,-5.2929,-5.2929,-5.2929,-5.2929,-5.2929,-5.2929,-5.2929,-5.2929,-5.2929,-5.2929,-5.3005,-5.3055,-5.3055,-5.313,-5.3457,-5.3833,-5.4787,-5.4561,-5.421,-5.313,-5.2929,-5.2929,-5.2929,-5.2929,-5.2929,-5.2929,-5.2929,-5.2929,-5.2929,-5.2929,-5.2929,-5.2929,-5.2929,-5.2929,-5.2929,-5.2929,-5.2929,-5.2929,-5.2402,-5.2101,-5.2101,-5.1548,-5.0996,-5.0419,-5.0996,-5.1523,-5.1975,-5.2151,-5.2477,-5.2929,-5.2929,-5.2929,-5.2929,-5.2929,-5.2929,-5.2929,-5.2929,-5.2929,-5.298,-5.3406,-5.3582,-5.3632,-5.4135,-5.431,-5.431,-5.431,-5.4662,-5.5039,-5.4587,-5.4737,-5.4938,-5.3984,-5.3632,-5.3482,-5.3055,-5.2929,-5.2929,-5.2929,-5.2929,-5.2929,-5.2929,-5.2929,-5.2929,-5.2929,-5.2929,-5.2929,-5.2929,-5.2929,-5.2904,-5.2804,-5.195,-5.1247,-5.1147,-5.0243,-4.9766,-5.0243,-5.0368,-5.0619,-5.1096,-5.1222,-5.1398,-5.1699,-5.1448,-5.1398,-5.1699,-5.1975,-5.2076,-5.1975,-5.2528,-5.2804,-5.2804,-5.2804,-5.2854,-5.2929,-5.2929,-5.2929,-5.2929,-5.2929,-5.2929,-5.2929,-5.2929,-5.2929,-5.2929,-5.2929,-5.2929,-5.298,-5.3406,-5.3582,-5.3632,-5.4135,-5.4361,-5.4436,-5.5164,-5.4762,-5.431,-5.3482,-5.3105,-5.2929,-5.2929,-5.2929,-5.2929,-5.2929,-5.2929,-5.2929,-5.2929,-5.2929,-5.2929,-5.2929,-5.2929,-5.2929,-5.2929,-5.2929,-5.2804,-5.2503,-5.195,-5.1373,-5.077,-5.0494,-5.0393,-5.0419,-5.0996,-5.1548,-5.2126,-5.2402,-5.2678,-5.2929,-5.2929,-5.2929,-5.2929,-5.2929,-5.2929,-5.2929,-5.2929,-5.308,-5.3381,-5.3607,-5.4084,-5.4637,-5.4913,-5.5013,-5.5013,-5.5013,-5.5189,-5.534,-5.5089,-5.5189,-5.529,-5.4762,-5.3984,-5.3231,-5.3005,-5.2929,-5.2929,-5.2929,-5.2929,-5.2929,-5.2929,-5.2929,-5.2929,-5.2929,-5.2929,-5.2929,-5.2929,-5.2929,-5.2829,-5.2528,-5.18,-5.1172,-5.087,-5.0368,-5.0117,-5.0393,-5.0946,-5.1423,-5.1699,-5.2,-5.2151,-5.2101,-5.1875,-5.1825,-5.2101,-5.2101,-5.2251,-5.2528,-5.2804,-5.2929,-5.2929,-5.2929,-5.2929,-5.2929,-5.2929,-5.2929,-5.2929,-5.2929,-5.2929,-5.2929,-5.2929,-5.308,-5.3331,-5.3331,-5.3532,-5.3833,-5.4084,-5.416,-5.421,-5.4461,-5.4762,-5.5013,-5.5315,-5.4863,-5.4336,-5.3632,-5.3181,-5.2929,-5.2929,-5.2929,-5.2929,-5.2929,-5.2929,-5.2929,-5.2929,-5.2929,-5.2929,-5.2929,-5.2929,-5.2929,-5.2929,-5.2929,-5.2678,-5.2126,-5.1448,-5.0619,-4.9615,-4.9715,-5.0067,-5.0619,-5.1197,-5.1749,-5.2302,-5.2729,-5.2929,-5.2929,-5.2929,-5.2929,-5.2929,-5.2929,-5.2929,-5.2929,-5.2929,-5.3231,-5.3708,-5.3858,-5.4511,-5.5415,-5.5666,-5.5691,-5.5591,-5.5717,-5.5691,-5.5591,-5.5591,-5.5591,-5.5541,-5.544,-5.4411,-5.3256,-5.3005,-5.2929,-5.2929,-5.2929,-5.2929,-5.2929,-5.2929,-5.2929,-5.2929,-5.2929,-5.2929,-5.2929,-5.2929,-5.2929,-5.2779,-5.2377,-5.1825,-5.1322,-5.087,-5.0695,-5.067,-5.0795,-5.1574,-5.2151,-5.2277,-5.2678,-5.2754,-5.2327,-5.2302,-5.2302,-5.2302,-5.2302,-5.2477,-5.2904,-5.2929,-5.2929,-5.2929,-5.2929,-5.2929,-5.2929,-5.2929,-5.2929,-5.2929,-5.2929,-5.2929,-5.2929,-5.3055,-5.3331,-5.3708,-5.3858,-5.416,-5.4587,-5.4712,-5.4838,-5.4963,-5.5089,-5.5415,-5.5792,-5.4737,-5.4658,-5.4235,-5.3181,-5.2955,-5.2929,-5.2929,-5.2929,-5.2929,-5.2929,-5.2929,-5.2929,-5.2929,-5.2929,-5.2929,-5.2929,-5.2929,-5.2929,-5.2929,-5.2929,-5.2678,-5.2126,-5.1071,-5.0193,-4.9615,-5.0092,-5.0645,-5.1222,-5.1774,-5.2327,-5.2879,-5.2904,-5.2929,-5.2929,-5.2929,-5.2929,-5.2929,-5.2929,-5.2929,-5.2929,-5.2929,-5.3231,-5.3758,-5.4285,-5.4863,-5.5516,-5.6545,-5.657,-5.6219,-5.6746,-5.657,-5.6143,-5.6143,-5.6143,-5.6043,-5.5541,-5.4938,-5.421,-5.3206,-5.2929,-5.2929,-5.2929,-5.2929,-5.2929,-5.2929,-5.2929,-5.2929,-5.2929,-5.2929,-5.2929,-5.2929,-5.2929,-5.2904,-5.2879,-5.2402,-5.2026,-5.1975,-5.1548,-5.1398,-5.1925,-5.2051,-5.2302,-5.2829,-5.2904,-5.2904,-5.2879,-5.2879,-5.2879,-5.2879,-5.2879,-5.2879,-5.2929,-5.2929,-5.2929,-5.2929,-5.2929,-5.2929,-5.2929,-5.2929,-5.2929,-5.2929,-5.2929,-5.2929,-5.2955,-5.3432,-5.3658,-5.3733,-5.4285,-5.4536,-5.4612,-5.5139,-5.5641,-5.6143,-5.6671,-5.6872,-5.6997,-5.4612,-5.4285,-5.3909,-5.3482,-5.313,-5.2929,-5.2929,-5.2929,-5.2929,-5.2929,-5.2929,-5.2929,-5.2929,-5.2929,-5.2929,-5.2929,-5.2929,-5.2929,-5.2929,-5.2603,-5.2327,-5.2126,-5.1021,-5.0318,-5.0117,-5.0318,-5.0695,-5.1272,-5.1825,-5.2377,-5.2929,-5.2929,-5.2929,-5.2929,-5.2929,-5.2929,-5.2929,-5.2929,-5.2929,-5.2929,-5.2929,-5.3457,-5.426,-5.4486,-5.5566,-5.6947,-5.7022,-5.7123,-5.7248,-5.7072,-5.6671,-5.6219,-5.6219,-5.6219,-5.6093,-5.5541,-5.5239,-5.4913,-5.416,-5.3934,-5.3858,-5.3507,-5.3683,-5.3934,-5.3934,-5.3658,-5.3406,-5.3406,-5.3155,-5.2929,-5.2929,-5.2929,-5.2929,-5.2929,-5.2477,-5.2101,-5.2101,-5.1925,-5.1875,-5.2076,-5.2402,-5.2703,-5.2904,-5.2929,-5.2929,-5.2929,-5.2929,-5.2929,-5.2929,-5.2929,-5.2929,-5.2929,-5.2929,-5.2929,-5.2929,-5.2929,-5.2929,-5.2929,-5.2929,-5.2929,-5.2929,-5.2929,-5.3105,-5.3406,-5.3607,-5.411,-5.4762,-5.4988,-5.529,-5.5616,-5.5817,-5.6018,-5.6269,-5.6821,-5.7022,-5.7123,-5.4285,-5.3984,-5.3658,-5.3482,-5.3155,-5.2929,-5.2929,-5.2929,-5.2929,-5.2929,-5.2929,-5.2929,-5.2929,-5.2929,-5.2929,-5.2929,-5.2929,-5.2929,-5.2929,-5.2578,-5.2126,-5.1599,-5.067,-5.0243,-5.0419,-5.0419,-5.0795,-5.1548,-5.1925,-5.2377,-5.2929,-5.2929,-5.2929,-5.2929,-5.2929,-5.2929,-5.2929,-5.2929,-5.2929,-5.2929,-5.2929,-5.3582,-5.4561,-5.4561,-5.5742,-5.7374,-5.7323,-5.7323,-5.7374,-5.7323,-5.6821,-5.6219,-5.6219,-5.6219,-5.6143,-5.5767,-5.5767,-5.5742,-5.5013,-5.5089,-5.5114,-5.421,-5.426,-5.4561,-5.4561,-5.426,-5.3959,-5.3959,-5.3683,-5.3381,-5.3206,-5.3181,-5.313,-5.2955,-5.2603,-5.2352,-5.2352,-5.2352,-5.2352,-5.2352,-5.2703,-5.2929,-5.2929,-5.2929,-5.2929,-5.2929,-5.2929,-5.2929,-5.2929,-5.2929,-5.2929,-5.2929,-5.2929,-5.2929,-5.2929,-5.2929,-5.2929,-5.2929,-5.2929,-5.3005,-5.3181,-5.3181,-5.3457,-5.3984,-5.416,-5.4662,-5.5415,-5.5767,-5.6018,-5.6219,-5.6394,-5.657,-5.6796,-5.7173,-5.7424,-5.765,-5.3708,-5.3708,-5.3532,-5.303,-5.2929,-5.2929,-5.2929,-5.2929,-5.2929,-5.2929,-5.2929,-5.2929,-5.2929,-5.2929,-5.2929,-5.2929,-5.2929,-5.2929,-5.2929,-5.2929,-5.2176,-5.0494,-4.9891,-4.9866,-5.0419,-5.0419,-5.0971,-5.2101,-5.2101,-5.2402,-5.2929,-5.2929,-5.2929,-5.2929,-5.2929,-5.2929,-5.2929,-5.2929,-5.2929,-5.2929,-5.2929,-5.3582,-5.4561,-5.4561,-5.5265,-5.6369,-5.7499,-5.7173,-5.6394,-5.7524,-5.7148,-5.6219,-5.6219,-5.6219,-5.6219,-5.6219,-5.6595,-5.6796,-5.5691,-5.6194,-5.6646,-5.4988,-5.4587,-5.4587,-5.4587,-5.4587,-5.4587,-5.4587,-5.4561,-5.4386,-5.3808,-5.3708,-5.3532,-5.303,-5.2929,-5.2929,-5.2929,-5.2929,-5.2929,-5.2929,-5.2929,-5.2929,-5.2929,-5.2929,-5.2929,-5.2929,-5.2929,-5.2929,-5.2929,-5.2929,-5.2929,-5.2929,-5.2929,-5.2929,-5.2929,-5.2929,-5.2929,-5.2929,-5.2929,-5.3206,-5.3708,-5.3708,-5.4034,-5.4612,-5.5164,-5.539,-5.5491,-5.6595,-5.6721,-5.6269,-5.6821,-5.7399,-5.7901,-5.7901,-5.8252,-5.8805,-5.3708,-5.3708,-5.3532,-5.303,-5.2929,-5.2929,-5.2929,-5.2929,-5.2929,-5.2929,-5.2929,-5.2929,-5.2929,-5.2929,-5.2929,-5.2929,-5.2929,-5.2754,-5.2377,-5.2352,-5.195,-5.1071,-5.087,-5.0845,-5.1021,-5.1021,-5.1373,-5.2101,-5.2503,-5.2754,-5.2929,-5.2929,-5.2929,-5.2929,-5.2929,-5.2929,-5.2929,-5.2929,-5.2929,-5.2929,-5.2929,-5.3582,-5.4561,-5.4561,-5.5742,-5.7374,-5.7323,-5.7575,-5.7901,-5.7449,-5.7072,-5.6721,-5.6344,-5.6219,-5.6294,-5.6671,-5.6897,-5.6972,-5.662,-5.7072,-5.7248,-5.5566,-5.544,-5.5717,-5.5717,-5.5415,-5.5139,-5.5139,-5.4838,-5.4511,-5.4336,-5.431,-5.426,-5.411,-5.4084,-5.4084,-5.4084,-5.4084,-5.4084,-5.4084,-5.4084,-5.4084,-5.4084,-5.3708,-5.3457,-5.3457,-5.313,-5.2929,-5.2929,-5.2929,-5.2929,-5.2929,-5.2929,-5.3105,-5.3457,-5.3457,-5.3457,-5.3482,-5.3884,-5.416,-5.431,-5.431,-5.4612,-5.5164,-5.5717,-5.6194,-5.6595,-5.7323,-5.7549,-5.7399,-5.7575,-5.775,-5.7951,-5.8328,-5.8579,-5.8805,-5.3708,-5.3532,-5.3306,-5.298,-5.2929,-5.2929,-5.2929,-5.2929,-5.2929,-5.2929,-5.2929,-5.2929,-5.2929,-5.2929,-5.2929,-5.2929,-5.2929,-5.2779,-5.2452,-5.2427,-5.2176,-5.1624,-5.1599,-5.1599,-5.1599,-5.1599,-5.1875,-5.2427,-5.2754,-5.2929,-5.2929,-5.2929,-5.2929,-5.2929,-5.2929,-5.2929,-5.2929,-5.2929,-5.2929,-5.2955,-5.3155,-5.3758,-5.4587,-5.4813,-5.5867,-5.7248,-5.7349,-5.7524,-5.7725,-5.77,-5.7549,-5.7273,-5.6721,-5.6545,-5.6595,-5.6922,-5.7198,-5.7374,-5.7374,-5.7801,-5.7926,-5.6696,-5.647,-5.6595,-5.6821,-5.6269,-5.5767,-5.5993,-5.5591,-5.5139,-5.4938,-5.4888,-5.4813,-5.4587,-5.4561,-5.4561,-5.4561,-5.4561,-5.4561,-5.4561,-5.4561,-5.4561,-5.4561,-5.4034,-5.3607,-5.3406,-5.3105,-5.2929,-5.2929,-5.2929,-5.2929,-5.2929,-5.313,-5.3381,-5.3708,-5.416,-5.426,-5.4059,-5.4411,-5.4687,-5.4888,-5.4888,-5.5315,-5.6068,-5.6394,-5.6872,-5.7424,-5.8001,-5.8102,-5.7926,-5.8127,-5.8227,-5.8252,-5.8604,-5.8855,-5.8902,-5.3758,-5.3356,-5.298,-5.2929,-5.2929,-5.2929,-5.2929,-5.2929,-5.2929,-5.2929,-5.2929,-5.2929,-5.2929,-5.2929,-5.2929,-5.2929,-5.2929,-5.2929,-5.2929,-5.2929,-5.2703,-5.2201,-5.2176,-5.2176,-5.2176,-5.2126,-5.2377,-5.2929,-5.2929,-5.2929,-5.2929,-5.2929,-5.2929,-5.2929,-5.2929,-5.2929,-5.2929,-5.2929,-5.2929,-5.298,-5.3432,-5.4009,-5.4612,-5.5114,-5.5717,-5.642,-5.7449,-5.7198,-5.6595,-5.8127,-5.8303,-5.7801,-5.7273,-5.7123,-5.7123,-5.7173,-5.7549,-5.7976,-5.7976,-5.8378,-5.8654,-5.8102,-5.7575,-5.7298,-5.7801,-5.7072,-5.6445,-5.6997,-5.6721,-5.6219,-5.5691,-5.5566,-5.5365,-5.4863,-5.4737,-5.4712,-5.4712,-5.4712,-5.4712,-5.4712,-5.4712,-5.4712,-5.4712,-5.416,-5.3557,-5.303,-5.3005,-5.3005,-5.3005,-5.3055,-5.3055,-5.3005,-5.3507,-5.3808,-5.3858,-5.4863,-5.5139,-5.4637,-5.4687,-5.4988,-5.5541,-5.5541,-5.6118,-5.7123,-5.7173,-5.7474,-5.8001,-5.8554,-5.8504,-5.8102,-5.8604,-5.878,-5.8703,-5.855,-5.8773,-5.8837,-5.4285,-5.3934,-5.3406,-5.3005,-5.2929,-5.2929,-5.2929,-5.2929,-5.2929,-5.2929,-5.2929,-5.2929,-5.2929,-5.2929,-5.2929,-5.2929,-5.2929,-5.2929,-5.2929,-5.2929,-5.2879,-5.2754,-5.2754,-5.2754,-5.2754,-5.2327,-5.2377,-5.2929,-5.2929,-5.2929,-5.2929,-5.2929,-5.2929,-5.2929,-5.2929,-5.2929,-5.2929,-5.2929,-5.2929,-5.2929,-5.3055,-5.3683,-5.4587,-5.4687,-5.5616,-5.6897,-5.7123,-5.7349,-5.76,-5.7951,-5.8001,-5.7876,-5.775,-5.77,-5.7801,-5.8227,-5.8453,-5.8554,-5.8554,-5.893,-5.9207,-5.8679,-5.8453,-5.8278,-5.7976,-5.7349,-5.7022,-5.76,-5.7625,-5.7499,-5.7374,-5.6972,-5.6646,-5.652,-5.6143,-5.5867,-5.5867,-5.5867,-5.5867,-5.5867,-5.5867,-5.5867,-5.5867,-5.4963,-5.4135,-5.3582,-5.3532,-5.3532,-5.3532,-5.3959,-5.4009,-5.3557,-5.4084,-5.4587,-5.5013,-5.5265,-5.534,-5.5214,-5.5641,-5.6143,-5.6671,-5.6671,-5.7047,-5.7725,-5.8177,-5.8428,-5.8579,-5.9106,-5.9257,-5.9156,-5.9282,-5.9332,-5.9075,-5.7364,-5.6804,-5.6375,-5.4511,-5.3909,-5.3256,-5.298,-5.2929,-5.2929,-5.2929,-5.2929,-5.2929,-5.2929,-5.2929,-5.2929,-5.2929,-5.2929,-5.2929,-5.2929,-5.2929,-5.2929,-5.2929,-5.2929,-5.2929,-5.2929,-5.2929,-5.2929,-5.2929,-5.2653,-5.2628,-5.2929,-5.2929,-5.2929,-5.2929,-5.2929,-5.2929,-5.2929,-5.2929,-5.2929,-5.2929,-5.2929,-5.2929,-5.2955,-5.3206,-5.3808,-5.4658,-5.4863,-5.5666,-5.6671,-5.6947,-5.7575,-5.8252,-5.8001,-5.8227,-5.8629,-5.8378,-5.8303,-5.8353,-5.8629,-5.873,-5.878,-5.9031,-5.9282,-5.9433,-5.9156,-5.8905,-5.8704,-5.8679,-5.8027,-5.76,-5.8177,-5.8077,-5.7901,-5.7901,-5.765,-5.7449,-5.7449,-5.7198,-5.7022,-5.7022,-5.6771,-5.6721,-5.6997,-5.6545,-5.6118,-5.5842,-5.529,-5.4712,-5.416,-5.411,-5.411,-5.411,-5.4411,-5.4436,-5.4135,-5.4662,-5.5214,-5.5767,-5.6043,-5.6319,-5.6595,-5.6595,-5.6897,-5.7449,-5.7449,-5.775,-5.8303,-5.8604,-5.8855,-5.9106,-5.9382,-5.9483,-5.9483,-5.9483,-5.9483,-5.9251,-5.7035,-5.4882,-5.2756,-5.4411,-5.3607,-5.2929,-5.2929,-5.2929,-5.2929,-5.2929,-5.2929,-5.2929,-5.2929,-5.2929,-5.2929,-5.2929,-5.2929,-5.2929,-5.2929,-5.2929,-5.2929,-5.2929,-5.2929,-5.2929,-5.2929,-5.2929,-5.2929,-5.2929,-5.2929,-5.2929,-5.2929,-5.2929,-5.2929,-5.2929,-5.2929,-5.2929,-5.2929,-5.2929,-5.2929,-5.2929,-5.2929,-5.2929,-5.2955,-5.3381,-5.3959,-5.4612,-5.5064,-5.5641,-5.6269,-5.6721,-5.7625,-5.8504,-5.8052,-5.8604,-5.9408,-5.8981,-5.8855,-5.8855,-5.8855,-5.8855,-5.8956,-5.9382,-5.9483,-5.9483,-5.9483,-5.9182,-5.8956,-5.9408,-5.873,-5.8202,-5.8755,-5.8478,-5.8177,-5.8177,-5.8102,-5.8052,-5.8052,-5.7951,-5.7901,-5.7901,-5.7474,-5.7374,-5.7851,-5.7072,-5.6319,-5.5867,-5.5641,-5.534,-5.4888,-5.4762,-5.4712,-5.4712,-5.4888,-5.4938,-5.4863,-5.5465,-5.6043,-5.6495,-5.6947,-5.7524,-5.8177,-5.76,-5.7575,-5.8052,-5.8052,-5.8328,-5.8855,-5.8855,-5.9106,-5.9483,-5.9483,-5.9483,-5.9483,-5.9483,-5.9483,-5.9173,-5.659,-5.2816,-4.9041,-5.3733,-5.3331,-5.2929,-5.2929,-5.2929,-5.2929,-5.2929,-5.2929,-5.2929,-5.2929,-5.2929,-5.2929,-5.2929,-5.2929,-5.2929,-5.2929,-5.2929,-5.2929,-5.2929,-5.2929,-5.2929,-5.2929,-5.2929,-5.2929,-5.2929,-5.2929,-5.2929,-5.2929,-5.2929,-5.2929,-5.2929,-5.2929,-5.2929,-5.2929,-5.2929,-5.2929,-5.2929,-5.2929,-5.2929,-5.2929,-5.3005,-5.3658,-5.4587,-5.4637,-5.5315,-5.6219,-5.6294,-5.7047,-5.8001,-5.7926,-5.8604,-5.9483,-5.9408,-5.9382,-5.9382,-5.9382,-5.9382,-5.9408,-5.9483,-5.9483,-5.9483,-5.9483,-5.9433,-5.9408,-5.9483,-5.9031,-5.8755,-5.9282,-5.9332,-5.9282,-5.9282,-5.8905,-5.8604,-5.8604,-5.8202,-5.7901,-5.7901,-5.7826,-5.7801,-5.7901,-5.775,-5.765,-5.7575,-5.6671,-5.6068,-5.5993,-5.5541,-5.5265,-5.5265,-5.6168,-5.647,-5.6018,-5.6997,-5.76,-5.7675,-5.775,-5.8278,-5.9282,-5.8755,-5.8529,-5.8604,-5.8604,-5.8905,-5.9382,-5.9382,-5.9433,-5.9483,-5.9483,-5.9483,-5.9483,-5.9483,-5.9483,-5.8993,-5.4882,-5.0526,-4.6726,-5.3658,-5.3281,-5.2929,-5.2929,-5.2929,-5.2929,-5.2929,-5.2929,-5.2929,-5.2929,-5.2929,-5.2929,-5.2929,-5.2929,-5.2929,-5.2929,-5.2929,-5.2929,-5.2929,-5.2929,-5.2929,-5.2929,-5.2929,-5.2929,-5.2929,-5.2929,-5.2929,-5.2929,-5.2929,-5.2929,-5.2929,-5.2929,-5.2929,-5.2929,-5.2929,-5.2929,-5.2929,-5.2929,-5.2929,-5.2929,-5.2929,-5.3582,-5.4561,-5.4561,-5.5239,-5.6219,-5.6219,-5.6947,-5.7901,-5.7901,-5.8604,-5.9483,-5.9483,-5.9483,-5.9483,-5.9483,-5.9483,-5.9483,-5.9483,-5.9483,-5.9483,-5.9483,-5.9483,-5.9483,-5.9483,-5.9307,-5.9307,-5.9859,-5.996,-6.006,-6.0387,-5.9985,-5.9608,-5.9608,-5.9156,-5.878,-5.878,-5.8554,-5.8252,-5.7926,-5.8177,-5.8102,-5.7474,-5.6972,-5.6545,-5.6244,-5.6269,-5.6319,-5.6319,-5.7072,-5.7399,-5.7173,-5.765,-5.8052,-5.8353,-5.8353,-5.873,-5.9483,-5.9257,-5.9156,-5.9156,-5.9156,-5.9282,-5.9483,-5.9483,-5.9483,-5.9483,-5.9483,-5.9483,-5.9483,-5.9483,-5.8006,-5.547,-5.226,-4.9041,-4.6308]},{"header":{"parameterUnit":"m.s-1","parameterCategory":1,"la1":30.6,"la2":28.766,"lo1":-90.7593,"lo2":-88.6598,"dy":0.0162,"dx":0.0183,"nx":116,"ny":114,"refTime":"2024-04-26T12:00:00:Z","depth":0,"parameterNumber":3,"parameterNumberName":"V-component_of_WINDS"},"data":[0.0,0.0,0.0,0.0,0.0,0.0,0.0,0.0,0.0,0.0,0.0,0.0,0.0,0.0,0.0,0.0,0.0,0.0,0.0,0.0,0.0,0.0,0.0,0.0,0.0,0.0,0.0,0.0,0.0,0.0,0.0,0.0,0.0,0.0,0.0,0.0,0.0,0.0,0.0,0.0,0.0,0.0,0.0,0.0,0.0,0.0,0.0,0.0,0.0,0.0,0.0,0.0,0.0,0.0,0.0,0.0,0.0,0.0,0.0,0.0,0.0,0.0,0.0,0.0,0.0,0.0,0.0,0.0,0.0,0.0,0.0,0.0,0.0,0.0,0.0,0.0,0.0,0.0,0.0,0.0,0.0,0.0,0.0,0.0,0.0,0.0,0.0,0.0,0.0,0.0,0.0,0.0,0.0,0.0,0.0,0.0,0.0,0.0,0.0,0.0,0.0,0.0,0.0,0.0,0.0,0.0,0.0,0.0,0.0,0.0,0.0,0.0,0.0,0.0,0.0,0.0,0.0,0.0,0.0,0.0,0.0,0.0,0.0,0.0,0.0,0.0,0.0,0.0,0.0,0.0,0.0,0.0,0.0,0.0,0.0,0.0,0.0,0.0,0.0,0.0,0.0,0.0,0.0,0.0,0.0,0.0,0.0,0.0,0.0,0.0,0.0,0.0,0.0,0.0,0.0,0.0,0.0,0.0,0.0,0.0,0.0,0.0,0.0,0.0,0.0,0.0,0.0,0.0,0.0,0.0,0.0,0.0,0.0,0.0,0.0,0.0,0.0,0.0,0.0,0.0,0.0,0.0,0.0,0.0,0.0,0.0,0.0,0.0,0.0,0.0,0.0,0.0,0.0,0.0,0.0,0.0,0.0,0.0,0.0,0.0,0.0,0.0,0.0,0.0,0.0,0.0,0.0,0.0,0.0,0.0,0.0,0.0,0.0,0.0,0.0,0.0,0.0,0.0,0.0,0.0,0.0,0.0,0.0,0.0,0.0,0.0,0.0,0.0,0.0,0.0,0.0,0.0,0.0,0.0,0.0,0.0,0.0,0.0,0.0,0.0,0.0,0.0,0.0,0.0,0.0,0.0,0.0,0.0,0.0,0.0,0.0,0.0,0.0,0.0,0.0,0.0,0.0,0.0,0.0,0.0,0.0,0.0,0.0,0.0,0.0,0.0,0.0,0.0,0.0,0.0,0.0,0.0,0.0,0.0,0.0,0.0,0.0,0.0,0.0,0.0,0.0,0.0,0.0,0.0,0.0,0.0,0.0,0.0,0.0,0.0,0.0,0.0,0.0,0.0,0.0,0.0,0.0,0.0,0.0,0.0,0.0,0.0,0.0,0.0,0.0,0.0,0.0,0.0,0.0,0.0,0.0,0.0,0.0,0.0,0.0,0.0,0.0,0.0,0.0,0.0,0.0,0.0,0.0,0.0,0.0,0.0,0.0,0.0,0.0,0.0,0.0,0.0,0.0,0.0,0.0,0.0,0.0,0.0,0.0,0.0,0.0,0.0,0.0,0.0,0.0,0.0,0.0,0.0,0.0,0.0,0.0,0.0,0.0,0.0,0.0,0.0,0.0,0.0,0.0,0.0,0.0,0.0,0.0,0.0,0.0,0.0,0.0,0.0,0.0,0.0,0.0,0.0,0.0,0.0,0.0,0.0,0.0,0.0,0.0,0.0,0.0,0.0,0.0,0.0,0.0,0.0,0.0,0.0,0.0,0.0,0.0,0.0,0.0,0.0,0.0,0.0,0.0,0.0,0.0,0.0,0.0,0.0,0.0,0.0,0.0,0.0,0.0,0.0,0.0,0.0,0.0,0.0,0.0,0.0,0.0,0.0,0.0,0.0,0.0,0.0,0.0,0.0,0.0,0.0,0.0,0.0,0.0,0.0,0.0,0.0,0.0,0.0,0.0,0.0,0.0,0.0,0.0,0.0,0.0,0.0,0.0,0.0,0.0,0.0,0.0,0.0,0.0,0.0,0.0,0.0,0.0,0.0,0.0,0.0,0.0,0.0,0.0,0.0,0.0,0.0,0.0,0.0,0.0,0.0,0.0,0.0,0.0,0.0,0.0,0.0,0.0,0.0,0.0,0.0,0.0,0.0,0.0,0.0,0.0,0.0,0.0,0.0,0.0,0.0,0.0,0.0,0.0,0.0,0.0,0.0,0.0,0.0,0.0,0.0,0.0,0.0,0.0,0.0,0.0,0.0,0.0,0.0,0.0,0.0,0.0,0.0,0.0,0.0,0.0,0.0,0.0,0.0,0.0,0.0,0.0,0.0,0.0,0.0,0.0,0.0,0.0,0.0,0.0,0.0,0.0,0.0,0.0,0.0,0.0,0.0,0.0,0.0,0.0,0.0,0.0,0.0,0.0,0.0,0.0,0.0,0.0,0.0,0.0,0.0,0.0,0.0,0.0,0.0,0.0,0.0,0.0,0.0,0.0,0.0,0.0,0.0,0.0,0.0,0.0,0.0,0.0,0.0,0.0,0.0,0.0,0.0,0.0,0.0,0.0,0.0,0.0,0.0,0.0,0.0,0.0,0.0,0.0,0.0,0.0,0.0,0.0,0.0,0.0,0.0,0.0,0.0,0.0,0.0,0.0,0.0,0.0,0.0,0.0,0.0,0.0,0.0,0.0,0.0,0.0,0.0,0.0,0.0,0.0,0.0,0.0,0.0,0.0,0.0,0.0,0.0,0.0,0.0,0.0,0.0,0.0,0.0,0.0,0.0,0.0,0.0,0.0,0.0,0.0,0.0,0.0,0.0,0.0,0.0,0.0,0.0,0.0,0.0,0.0,0.0,0.0,0.0,0.0,0.0,0.0,0.0,0.0,0.0,0.0,0.0,0.0,0.0,0.0,0.0,0.0,0.0,0.0,0.0,0.0,0.0,0.0,0.0,0.0,0.0,0.0,0.0,0.0,0.0,0.0,0.0,0.0,0.0,0.0,0.0,0.0,0.0,0.0,0.0,0.0,0.0,0.0,0.0,0.0,0.0,0.0,0.0,0.0,0.0,0.0,0.0,0.0,0.0,0.0,0.0,0.0,0.0,0.0,0.0,0.0,0.0,0.0,0.0,0.0,0.0,0.0,0.0,0.0,0.0,0.0,0.0,0.0,0.0,0.0,0.0,0.0,0.0,0.0,0.0,0.0,0.0,0.0,0.0,0.0,0.0,0.0,0.0,0.0,0.0,0.0,0.0,0.0,0.0,0.0,0.0,0.0,0.0,0.0,0.0,0.0,0.0,0.0,0.0,0.0,0.0,0.0,0.0,0.0,0.0,0.0,0.0,0.0,0.0,0.0,0.0,0.0,0.0,0.0,0.0,0.0,0.0,0.0,0.0,0.0,0.0,0.0,0.0,0.0,0.0,0.0,0.0,0.0,0.0,0.0,0.0,0.0,0.0,0.0,0.0,0.0,0.0,0.0,0.0,0.0,0.0,0.0,0.0,0.0,0.0,0.0,0.0,0.0,0.0,0.0,0.0,0.0,0.0,0.0,0.0,0.0,0.0,0.0,0.0,0.0,0.0,0.0,0.0,0.0,0.0,0.0,0.0,0.0,0.0,0.0,0.0,0.0,0.0,0.0,0.0,0.0,0.0,0.0,0.0,0.0,0.0,0.0,0.0,0.0,0.0,0.0,0.0,0.0,0.0,0.0,0.0,0.0,0.0,0.0,0.0,0.0,0.0,0.0,0.0,0.0,0.0,0.0,0.0,0.0,0.0,0.0,0.0,0.0,0.0,0.0,0.0,0.0,0.0,0.0,0.0,0.0,0.0,0.0,0.0,0.0,0.0,0.0,0.0,0.0,0.0,0.0,0.0,0.0,0.0,0.0,0.0,0.0,0.0,0.0,0.0,0.0,0.0,0.0,0.0,0.0,0.0,0.0,0.0,0.0,0.0,0.0,0.0,0.0,0.0,0.0,0.0,0.0,0.0,0.0,0.0,0.0,0.0,0.0,0.0,0.0,0.0,0.0,0.0,0.0,0.0,0.0,0.0,0.0,0.0,0.0,0.0,0.0,0.0,0.0,0.0,0.0,0.0,0.0,0.0,0.0,0.0,0.0,0.0,0.0,0.0,0.0,0.0,0.0,0.0,0.0,0.0,0.0,0.0,0.0,0.0,0.0,0.0,0.0,0.0,0.0,0.0,0.0,0.0,0.0,0.0,0.0,0.0,0.0,0.0,0.0,0.0,0.0,0.0,0.0,0.0,0.0,0.0,0.0,0.0,0.0,0.0,0.0,0.0,0.0,0.0,0.0,0.0,0.0,0.0,0.0,0.0,0.0,0.0,0.0,0.0,0.0,0.0,0.0,0.0,0.0,0.0,0.0,0.0,0.0,0.0,0.0,0.0,0.0,0.0,0.0,0.0,0.0,0.0,0.0,0.0,0.0,0.0,0.0,0.0,0.0,0.0,0.0,0.0,0.0,0.0,0.0,0.0,0.0,0.0,0.0,0.0,0.0,0.0,0.0,0.0,0.0,0.0,0.0,0.0,0.0,0.0,0.0,0.0,0.0,0.0,0.0,0.0,0.0,0.0,0.0,0.0,0.0,0.0,0.0,0.0,0.0,0.0,0.0,0.0,0.0,0.0,0.0,0.0,0.0,0.0,0.0,0.0,0.0,0.0,0.0,0.0,0.0,0.0,0.0,0.0,0.0,0.0,0.0,0.0,0.0,0.0,0.0,0.0,0.0,0.0,0.0,0.0,0.0,0.0,0.0,0.0,0.0,0.0,0.0,0.0,0.0,0.0,0.0,0.0,0.0,0.0,0.0,0.0,0.0,0.0,0.0,0.0,0.0,0.0,0.0,0.0,0.0,0.0,0.0,0.0,0.0,0.0,0.0,0.0,0.0,0.0,0.0,0.0,0.0,0.0,0.0,0.0,0.0,0.0,0.0,0.0,0.0,0.0,0.0,0.0,0.0,0.0,0.0,0.0,0.0,0.0,0.0,0.0,0.0,0.0,0.0,0.0,0.0,0.0,0.0,0.0,0.0,0.0,0.0,0.0,0.0,0.0,0.0,0.0,0.0,0.0,0.0,0.0,0.0,0.0,0.0,0.0,0.0,0.0,0.0,0.0,0.0,0.0,0.0,0.0,0.0,0.0,0.0,0.0,0.0,0.0,0.0,0.0,0.0,0.0,0.0,0.0,0.0,0.0,0.0,0.0,0.0,0.0,0.0,0.0,0.0,0.0,0.0,0.0,0.0,0.0,0.0,0.0,0.0,0.0,0.0,0.0,0.0,0.0,0.0,0.0,0.0,0.0,0.0,0.0,0.0,0.0,0.0,0.0,0.0,0.0,0.0,0.0,0.0,0.0,0.0,0.0,0.0,0.0,0.0,0.0,0.0,0.0,0.0,0.0,0.0,0.0,0.0,0.0,0.0,0.0,0.0,0.0,0.0,0.0,0.0,0.0,0.0,0.0,0.0,0.0,0.0,0.0,0.0,0.0,0.0,0.0,0.0,0.0,0.0,0.0,0.0,0.0,0.0,0.0,0.0,0.0,0.0,0.0,0.0,0.0,0.0,0.0,0.0,0.0,0.0,0.0,0.0,0.0,0.0,0.0,0.0,0.0,0.0,0.0,0.0,0.0,0.0,0.0,0.0,0.0,0.0,0.0,0.0,0.0,0.0,0.0,0.0,0.0,0.0,0.0,0.0,0.0,0.0,0.0,0.0,0.0,0.0,0.0,0.0,0.0,0.0,0.0,0.0,0.0,0.0,0.0,0.0,0.0,0.0,0.0,0.0,0.0,0.0,0.0,0.0,0.0,0.0,0.0,0.0,0.0,0.0,0.0,0.0,0.0,0.0,0.0,0.0,0.0,0.0,0.0,0.0,0.0,0.0,0.0,0.0,0.0,0.0,0.0,0.0,0.0,0.0,0.0,0.0,0.0,0.0,0.0,0.0,0.0,0.0,0.0,0.0,0.0,0.0,0.0,0.0,0.0,0.0,0.0,0.0,0.0,0.0,0.0,0.0,0.0,0.0,0.0,0.0,0.0,0.0,0.0,0.0,0.0,0.0,0.0,0.0,0.0,0.0,0.0,0.0,0.0,0.0,0.0,0.0,0.0,0.0,0.0,0.0,0.0,0.0,0.0,0.0,0.0,5.4769,5.2474,0.0,0.0,0.0,0.0,0.0,0.0,0.0,0.0,0.0,0.0,0.0,0.0,0.0,0.0,0.0,0.0,0.0,0.0,0.0,0.0,0.0,0.0,0.0,4.3781,4.3619,4.5716,4.6352,4.716,4.8589,4.9262,0.0,0.0,0.0,0.0,0.0,0.0,6.058,6.1762,6.1497,6.2204,6.362,6.244,6.0043,5.6569,0.0,0.0,0.0,0.0,0.0,0.0,0.0,0.0,0.0,0.0,0.0,0.0,0.0,0.0,0.0,0.0,0.0,0.0,0.0,0.0,0.0,0.0,0.0,0.0,0.0,0.0,0.0,0.0,0.0,0.0,0.0,0.0,0.0,0.0,0.0,0.0,0.0,0.0,0.0,0.0,0.0,0.0,0.0,0.0,0.0,0.0,0.0,0.0,0.0,0.0,0.0,0.0,0.0,0.0,0.0,0.0,0.0,0.0,0.0,0.0,0.0,0.0,0.0,0.0,0.0,0.0,0.0,0.0,0.0,0.0,5.8227,5.5736,0.0,0.0,0.0,0.0,0.0,0.0,0.0,0.0,0.0,0.0,0.0,0.0,0.0,0.0,0.0,0.0,0.0,0.0,0.0,0.0,0.0,4.6708,4.8157,4.4976,4.3594,4.5654,4.5582,4.5943,4.7092,4.8789,4.9741,4.9741,5.3913,5.6276,5.6276,6.0735,6.3222,6.3421,6.5183,6.6581,6.7703,6.7541,6.4918,6.0228,5.7632,0.0,0.0,0.0,0.0,0.0,0.0,0.0,0.0,0.0,0.0,0.0,0.0,0.0,0.0,0.0,0.0,0.0,0.0,0.0,0.0,0.0,0.0,0.0,0.0,0.0,0.0,0.0,0.0,0.0,0.0,0.0,0.0,0.0,0.0,0.0,0.0,0.0,0.0,0.0,0.0,0.0,0.0,0.0,0.0,0.0,0.0,0.0,0.0,0.0,0.0,0.0,0.0,0.0,0.0,0.0,0.0,0.0,0.0,0.0,0.0,0.0,0.0,0.0,6.3438,6.4156,6.5712,6.5144,6.4874,6.4755,6.257,6.0188,5.7736,5.6633,0.0,0.0,0.0,0.0,0.0,0.0,0.0,0.0,0.0,0.0,0.0,0.0,0.0,0.0,0.0,0.0,0.0,0.0,0.0,4.7045,4.818,4.674,4.595,4.6732,4.7884,4.8636,4.8774,4.9773,5.0318,5.0318,5.4155,5.6276,5.6276,6.0735,6.3706,6.4813,6.8166,6.9905,7.0074,7.1996,7.1686,6.9362,6.3334,6.0512,5.9979,0.0,0.0,0.0,0.0,0.0,0.0,0.0,0.0,0.0,0.0,0.0,0.0,0.0,0.0,0.0,0.0,0.0,0.0,0.0,0.0,0.0,0.0,0.0,0.0,0.0,0.0,0.0,0.0,0.0,0.0,0.0,0.0,0.0,0.0,0.0,0.0,0.0,0.0,0.0,0.0,0.0,5.5056,5.5557,0.0,0.0,0.0,0.0,0.0,0.0,0.0,0.0,0.0,0.0,0.0,0.0,0.0,6.2121,6.269,6.5024,6.6311,6.649,6.7567,6.8226,6.8465,6.8375,6.8345,6.8315,6.7986,0.0,6.1389,6.1211,0.0,0.0,0.0,0.0,0.0,0.0,0.0,0.0,0.0,0.0,0.0,0.0,0.0,0.0,0.0,0.0,0.0,0.0,0.0,0.0,0.0,4.8467,4.7654,4.8235,4.9062,4.9367,4.8772,5.0093,5.0745,5.0444,5.2971,5.5025,5.6249,5.9859,6.38,6.8049,7.0493,7.2496,7.404,7.5092,7.4942,7.375,7.0458,6.6521,6.2159,5.9209,0.0,0.0,0.0,0.0,0.0,0.0,0.0,0.0,0.0,0.0,0.0,0.0,0.0,0.0,0.0,0.0,0.0,0.0,0.0,0.0,0.0,0.0,0.0,0.0,0.0,0.0,0.0,0.0,0.0,0.0,0.0,0.0,0.0,0.0,0.0,0.0,0.0,0.0,0.0,5.6556,5.735,5.613,5.5903,5.5879,0.0,0.0,0.0,0.0,0.0,0.0,0.0,0.0,0.0,6.281,6.3797,6.4784,6.5832,6.7358,6.8465,6.9183,6.9782,7.047,7.1188,7.1188,7.0979,7.0649,7.1427,6.9752,6.637,6.4515,6.263,6.0685,0.0,0.0,0.0,0.0,5.6406,5.6599,0.0,0.0,0.0,0.0,0.0,0.0,0.0,0.0,0.0,0.0,0.0,0.0,5.1096,4.9842,4.9016,4.9459,5.0121,5.007,4.8982,5.0284,5.0996,5.0845,5.2244,5.4065,5.6215,6.0075,6.4643,7.0057,7.2481,7.4953,7.7423,7.8007,7.7905,7.7122,7.6468,7.2383,6.5823,6.279,6.0893,5.9659,0.0,0.0,0.0,0.0,0.0,0.0,0.0,0.0,0.0,0.0,0.0,0.0,0.0,0.0,0.0,0.0,0.0,0.0,0.0,0.0,0.0,0.0,0.0,0.0,0.0,0.0,0.0,0.0,0.0,0.0,0.0,0.0,0.0,0.0,0.0,0.0,0.0,5.9306,5.9685,5.7387,5.8287,5.8622,0.0,0.0,0.0,0.0,0.0,0.0,6.2331,6.3139,6.4425,6.6221,6.6909,6.7807,6.8974,6.9812,7.0739,7.1667,7.1846,7.2445,7.3402,7.3253,7.2894,7.2445,7.3283,7.2445,7.026,6.7448,6.5323,6.3588,6.1283,5.9847,5.9129,5.9129,5.9399,5.9971,0.0,0.0,0.0,0.0,0.0,0.0,0.0,0.0,0.0,0.0,0.0,4.9414,5.1096,5.0729,5.0178,5.0007,5.1186,5.1388,5.0008,5.0266,5.0921,5.1975,5.2686,5.4003,5.6182,6.2578,6.6981,6.925,7.4228,7.7472,7.906,8.1155,8.1699,8.08,8.0132,7.7248,7.2551,6.7698,6.5365,6.4584,5.9807,0.0,0.0,0.0,0.0,0.0,0.0,0.0,0.0,0.0,0.0,0.0,0.0,0.0,0.0,0.0,0.0,0.0,0.0,0.0,0.0,0.0,0.0,0.0,0.0,0.0,0.0,0.0,0.0,0.0,0.0,0.0,0.0,0.0,0.0,0.0,0.0,0.0,0.0,6.1022,6.2007,0.0,0.0,0.0,0.0,6.0864,6.269,6.4366,6.5682,6.6969,6.8286,6.9632,7.032,7.0979,7.1697,7.2984,7.3672,7.3762,7.436,7.4719,7.4749,7.4121,7.3821,7.3762,7.3223,7.2505,7.1697,7.029,6.8196,6.5712,6.4306,6.2989,6.1882,6.1882,6.2773,6.3986,0.0,0.0,0.0,0.0,0.0,4.1756,4.3458,4.6104,4.7908,4.7908,4.9038,5.0193,5.1172,5.1423,5.1605,5.1812,5.2615,5.2779,5.1911,5.1594,5.1523,5.1574,5.1122,5.3128,5.8112,6.3017,6.746,7.1278,7.4539,7.7164,7.916,8.0885,8.2046,8.2644,8.2375,8.084,7.8074,7.2495,6.8967,6.6914,6.2604,6.054,0.0,0.0,0.0,0.0,0.0,0.0,0.0,0.0,0.0,0.0,0.0,0.0,0.0,0.0,0.0,0.0,0.0,0.0,0.0,0.0,0.0,0.0,0.0,0.0,0.0,0.0,0.0,0.0,0.0,0.0,0.0,0.0,0.0,0.0,0.0,0.0,0.0,6.3797,6.5562,0.0,6.3498,6.4036,6.4455,6.4276,6.649,6.8226,6.9123,7.0021,7.1098,7.2445,7.2714,7.3133,7.3791,7.427,7.451,7.454,7.4779,7.4869,7.4869,7.418,7.3672,7.3253,7.3013,7.2265,7.1248,7.1218,6.9901,6.7837,6.6909,6.6369,6.5994,6.5994,6.6665,6.7684,0.0,0.0,0.0,0.0,0.0,4.1565,4.2706,4.5705,4.7908,4.7908,4.9213,5.0419,5.1197,5.1599,5.2126,5.2854,5.308,5.3105,5.2929,5.2051,5.1548,5.1548,5.1498,5.3625,5.8212,6.2395,6.6727,7.1324,7.3539,7.5931,7.8382,7.96,8.0953,8.2408,8.2644,8.2206,8.0983,7.703,7.3438,7.0104,6.616,6.4514,6.3916,0.0,0.0,0.0,0.0,0.0,0.0,0.0,0.0,0.0,0.0,0.0,0.0,0.0,0.0,0.0,0.0,0.0,0.0,0.0,0.0,0.0,0.0,0.0,0.0,0.0,0.0,0.0,0.0,0.0,0.0,0.0,0.0,0.0,0.0,6.5114,6.6909,6.5832,6.8016,6.8704,6.6251,6.7238,6.7897,6.7687,6.9722,7.1338,7.2206,7.2654,7.3402,7.454,7.436,7.442,7.4869,7.4869,7.4869,7.4869,7.4869,7.4869,7.4839,7.3971,7.3343,7.2894,7.2445,7.1727,7.0949,7.1368,7.0799,6.9666,6.9722,6.9578,6.9259,6.9802,7.0163,7.0558,0.0,0.0,0.0,0.0,0.0,4.1117,4.1117,4.4903,4.782,4.7845,4.8848,5.0042,5.1172,5.1322,5.1774,5.2829,5.2427,5.2327,5.2879,5.1348,5.0896,5.2,5.3957,5.5482,5.6361,6.0735,6.5014,6.904,7.1408,7.3957,7.6744,7.757,7.872,8.0209,8.0953,8.1325,8.1375,8.1303,7.885,7.4622,7.0388,6.9334,6.9673,0.0,0.0,0.0,0.0,0.0,0.0,0.0,0.0,0.0,0.0,0.0,0.0,0.0,0.0,0.0,0.0,0.0,0.0,0.0,0.0,0.0,0.0,0.0,0.0,0.0,0.0,0.0,0.0,0.0,0.0,0.0,0.0,0.0,6.4096,6.637,6.7837,6.7238,6.9453,7.026,6.8345,6.9363,7.038,7.0949,7.2235,7.3552,7.4839,7.4929,7.5228,7.5886,7.5258,7.4899,7.4869,7.4869,7.4869,7.4869,7.4869,7.4869,7.4839,7.3522,7.2924,7.2834,7.1487,7.0889,7.0889,7.0889,7.0889,7.1053,7.2643,7.2424,7.1453,7.2984,7.3101,7.2448,0.0,0.0,0.0,3.5976,3.7822,3.9322,3.9322,4.2816,4.5658,4.6021,4.8481,5.0469,5.1197,5.2,5.2603,5.2904,5.2427,5.2176,5.2327,5.1122,5.0544,5.087,5.1664,5.3558,5.6544,5.9699,6.2795,6.5881,6.9249,7.1639,7.3027,7.5291,7.7435,7.9464,8.0716,8.1866,8.2949,8.3436,8.2677,8.0601,7.5168,7.2595,7.1512,0.0,0.0,0.0,0.0,0.0,0.0,0.0,0.0,0.0,0.0,0.0,0.0,0.0,0.0,0.0,0.0,0.0,0.0,0.0,0.0,0.0,0.0,0.0,0.0,0.0,0.0,0.0,0.0,0.0,0.0,0.0,6.3617,6.5622,6.6101,6.8435,7.038,7.1188,7.2774,7.3373,7.2355,7.3043,7.3402,7.3103,7.433,7.5258,7.5617,7.6036,7.6185,7.5916,7.5707,7.5377,7.4869,7.4869,7.4869,7.4869,7.4869,7.4869,7.4839,7.3522,7.2924,7.2834,7.1487,7.0889,7.0859,7.041,7.0231,7.0423,7.1844,7.2557,7.2807,7.3825,7.4151,7.385,0.0,0.0,0.0,3.5976,3.7441,3.866,3.8849,4.2108,4.4617,4.4728,4.7508,4.9695,5.0327,5.1288,5.2104,5.256,5.2277,5.2,5.1774,5.1147,5.0469,4.9766,5.1287,5.3165,5.5437,5.7831,6.067,6.3745,6.6318,6.844,7.0182,7.2745,7.5136,7.7363,7.9128,8.0885,8.2644,8.3693,8.3896,8.3216,7.9791,7.7336,7.5196,7.0798,6.8976,6.8316,6.5288,6.4334,6.4005,6.0574,0.0,0.0,0.0,0.0,0.0,0.0,0.0,0.0,0.0,0.0,0.0,0.0,0.0,0.0,0.0,0.0,0.0,0.0,0.0,0.0,0.0,0.0,0.0,0.0,6.5951,6.8076,6.9303,7.0769,7.2235,7.3582,7.442,7.4719,7.436,7.4659,7.4719,7.433,7.5288,7.6006,7.6275,7.6395,7.6395,7.6305,7.5766,7.5288,7.4869,7.4869,7.4869,7.4869,7.4869,7.4869,7.4839,7.3522,7.2924,7.2834,7.1487,7.0889,7.0859,7.0231,6.9991,7.0187,0.0,0.0,0.0,0.0,7.361,7.351,0.0,0.0,3.5957,3.6016,3.7307,3.8433,3.8891,4.1918,4.4067,4.362,4.6081,4.8163,4.8661,4.9581,5.058,5.1476,5.1693,5.1647,5.1322,5.1096,5.0444,4.9213,5.182,5.3462,5.3722,5.5735,5.8457,6.1819,6.2965,6.5009,6.7726,7.0048,7.2262,7.4423,7.6575,7.8691,8.0778,8.2206,8.3019,8.3245,8.3076,8.1913,7.965,7.4073,7.2186,7.2166,6.9825,6.7903,6.6067,6.3801,0.0,0.0,0.0,0.0,0.0,0.0,0.0,0.0,0.0,0.0,0.0,0.0,0.0,0.0,0.0,0.0,0.0,0.0,0.0,0.0,0.0,0.0,0.0,0.0,6.8495,7.0829,7.2744,7.3103,7.3582,7.4749,7.4958,7.4958,7.4899,7.5018,7.5078,7.4988,7.5707,7.6365,7.6904,7.6485,0.0,0.0,0.0,7.5018,7.4869,7.4869,7.4869,7.4869,7.4869,7.4869,7.4839,7.3522,7.2954,7.2954,7.1517,7.0949,7.0949,7.026,6.9999,7.0265,7.2485,7.2531,7.1435,7.2233,7.2462,7.2293,0.0,3.5391,3.5625,3.5957,3.6287,3.6697,3.7133,3.9817,4.1723,4.1353,4.4642,4.6765,4.6348,4.7087,4.7754,4.7934,4.9062,5.0117,5.1231,5.0017,4.9916,5.1398,5.1655,5.2184,5.3029,5.4839,5.6046,5.6784,6.0846,6.3123,6.3776,6.7261,6.9749,7.1348,7.349,7.5284,7.6896,7.8323,7.9986,8.1514,8.0354,8.0709,8.1356,7.6112,7.382,7.282,6.8845,6.8236,6.8881,6.687,6.7043,6.7386,6.2947,6.1893,0.0,0.0,0.0,0.0,0.0,0.0,0.0,0.0,0.0,0.0,0.0,0.0,0.0,0.0,0.0,0.0,0.0,0.0,0.0,6.8166,7.0141,7.2026,7.3492,7.4151,7.4599,7.4839,7.5377,7.5497,7.4929,7.5826,7.6245,7.5736,7.6784,7.7502,7.7622,7.8011,7.7801,7.6844,7.6574,7.5946,7.4899,7.4869,7.4869,7.4869,7.4869,0.0,7.4839,7.3522,7.3223,7.3612,7.1727,7.1218,7.1607,7.044,7.009,7.033,7.197,7.2423,7.2259,7.3016,7.2902,7.2293,0.0,3.5566,3.5781,3.5976,3.6016,3.6172,3.6601,3.9224,4.1132,4.0989,4.3678,4.5599,4.5576,4.5574,4.5552,4.564,4.6841,4.8036,4.8913,4.8712,4.9029,5.0172,5.0489,5.1344,5.2836,5.3742,5.4541,5.5419,5.7811,5.9887,6.1616,6.4575,6.719,6.947,7.1528,7.346,7.5246,7.6272,7.7603,7.8942,7.8527,7.9046,7.9891,7.7604,7.5417,7.3191,7.1261,7.0361,6.9782,6.8435,6.8675,6.8997,6.6162,6.5405,6.4964,0.0,0.0,0.0,0.0,0.0,0.0,0.0,0.0,0.0,0.0,0.0,0.0,0.0,0.0,6.4755,6.5443,0.0,6.9123,7.1128,7.2535,7.3851,7.5168,7.5647,7.5736,7.5437,7.5377,7.5377,7.5377,7.5677,7.5856,7.5916,7.6784,7.7472,7.7801,7.813,7.7861,7.6874,7.6544,7.5886,7.4899,7.4869,7.4869,7.4869,7.4869,7.4869,7.4839,7.3851,7.3402,7.3343,7.1966,7.1398,7.1308,7.0021,6.9356,6.9243,7.0344,7.1252,7.192,7.2673,7.2496,7.1819,0.0,3.5664,3.5918,3.5996,3.6016,3.6172,3.6601,3.9224,4.1154,4.1053,4.284,4.4302,4.4671,4.3869,4.3436,4.3963,4.4798,4.5719,4.6789,4.7396,4.7911,4.824,4.9038,5.0127,5.1747,5.2119,5.3035,5.433,5.5089,5.6801,5.9536,6.1908,6.4479,6.7273,6.9384,7.1541,7.3591,7.4129,7.5098,7.6255,7.6601,7.6888,7.7166,7.7787,7.6108,7.354,7.3539,7.1921,6.9722,6.9333,6.9123,6.8914,6.8495,6.7986,6.7148,6.5024,6.5084,0.0,0.0,0.0,0.0,0.0,0.0,0.0,0.0,6.5825,6.6285,6.72,6.7622,6.8179,6.9336,7.041,7.1816,7.3941,7.4839,7.5617,7.6694,7.6814,7.6694,7.6305,7.5796,7.5557,7.5886,7.5736,7.5826,7.6245,7.6844,7.7442,7.7981,7.8011,7.7652,7.6844,7.6335,7.5707,7.4899,7.4869,7.4869,7.4869,7.4869,7.4869,7.4869,7.418,7.3612,7.3043,7.2116,7.1398,7.0799,6.9393,6.8555,6.8263,6.8928,6.9706,7.0609,7.1799,7.1794,7.1312,0.0,3.543,3.5586,3.5957,3.6016,3.6172,3.6601,3.9224,4.0912,4.0188,4.1931,4.2823,4.1806,4.0934,4.1102,4.2804,4.2266,4.3435,4.7304,4.646,4.6501,4.8231,4.7653,4.7467,4.7613,4.9391,5.0386,5.0574,5.3859,5.5617,5.6049,5.9318,6.1684,6.3269,6.5592,6.7729,6.9629,6.9689,7.1657,7.4562,7.3409,7.369,7.4749,7.4747,7.45,7.4005,7.1967,7.0363,6.9183,6.9692,6.9482,6.9093,6.9602,6.9692,6.9123,6.655,6.5473,6.4395,6.0924,6.0669,6.2114,6.4963,6.6596,6.8679,0.0,7.3539,7.2612,7.1846,7.3045,7.3717,7.1934,7.3582,7.5347,7.5647,7.6215,7.6664,7.6814,7.6814,7.7023,7.7532,7.7532,7.7053,7.6006,7.7382,7.813,7.7622,7.819,7.8609,7.8669,7.8669,7.81,7.6874,7.6754,7.6125,7.4899,7.4869,7.4869,7.4869,7.4869,7.4869,7.4869,7.418,7.3851,7.3672,7.1816,7.0979,7.0769,6.8854,6.8405,6.8923,6.9112,6.8536,6.7872,7.0457,7.137,7.1312,0.0,3.498,3.5215,3.5898,3.6016,3.6074,3.6269,3.8212,3.9996,4.0999,4.1164,4.1503,4.2323,4.0187,3.9612,4.1749,4.1485,4.2496,4.5299,4.5148,4.5685,4.7297,4.6717,4.6833,4.7753,4.9448,5.027,4.9961,5.2641,5.4588,5.5947,5.7759,5.9626,6.1461,6.2822,6.4698,6.6827,6.7237,6.9124,7.183,7.1585,7.1828,7.2284,7.1919,7.1524,7.1157,7.0547,6.9512,0.0,6.8286,6.8076,6.8016,6.9064,6.8884,6.7956,6.643,6.6071,6.5772,6.4006,6.4758,6.6384,6.7789,7.0935,7.4256,7.6523,7.6634,7.6182,7.5986,7.6245,7.6123,7.497,7.5677,7.6574,7.6963,7.7233,7.7532,7.7921,7.7981,7.7801,7.7293,7.7562,7.7592,7.7053,7.7412,7.7682,7.7801,7.8071,7.84,7.8759,7.8789,7.837,7.7442,7.7023,7.6395,7.5497,7.5078,7.4869,7.4869,7.4869,7.4689,7.43,7.4031,7.3462,7.2654,7.1038,7.038,7.0231,6.8645,6.8136,6.8318,6.7608,6.7249,6.7405,7.0266,7.0795,7.0216,0.0,3.4531,3.4766,3.5527,3.5762,3.5879,3.5996,3.7508,3.9363,4.1479,4.1021,4.0893,4.223,3.9684,3.8541,4.0053,4.0442,4.1234,4.2864,4.3521,4.4444,4.5798,4.5532,4.5837,4.6816,4.8501,4.9112,4.8703,5.1438,5.3568,5.5193,5.6919,5.8559,6.0157,6.1134,6.2777,6.4832,6.5117,6.6594,6.8708,6.8972,6.9354,6.9785,6.9163,6.8653,6.8256,6.8884,6.8136,6.6789,6.6131,6.5922,6.6101,6.7268,6.7208,6.658,6.5922,6.5562,6.5323,6.5024,6.6565,6.8521,6.94,7.3823,7.8136,7.874,7.9346,7.965,7.918,7.8785,7.8219,7.7264,7.7263,7.7532,7.8011,7.8071,7.819,7.8489,7.8519,7.8041,7.6724,7.6993,7.7293,7.7293,7.7173,7.7382,7.8041,7.8071,7.828,7.8759,7.8789,7.84,7.7562,7.7083,7.6425,7.5617,7.5138,7.4869,7.4869,7.4869,7.454,7.3881,7.3522,7.2804,7.1816,7.035,6.9812,6.9842,6.8136,6.7537,6.7567,6.6251,6.5916,6.654,6.8988,6.9346,6.8797,0.0,0.0,3.4219,3.4668,3.5117,3.5547,3.5957,3.7508,3.9256,4.1011,4.1564,4.1309,4.0146,3.8769,3.7773,3.7434,3.8158,3.9214,4.0526,4.1406,4.2443,4.3735,4.3774,4.3641,4.331,4.5142,4.5901,4.5538,5.0093,5.2342,5.249,5.675,5.8833,5.9017,6.0648,6.219,6.3405,6.2783,6.3626,6.5273,6.4621,6.5512,6.7142,6.6508,6.6148,6.6191,6.6849,6.5802,6.4036,6.3408,6.3199,6.3318,6.3947,6.5024,6.5922,6.5263,6.3258,6.1433,6.2061,6.367,6.6034,6.9437,7.4084,7.843,8.054,8.2719,8.3686,8.1121,8.1088,8.0803,7.8227,7.831,7.8729,7.8759,7.8759,7.8549,7.7921,7.7831,7.7382,7.6096,7.5946,7.5976,7.5976,7.7053,7.8041,7.8699,7.8759,7.8759,7.8789,7.8789,7.819,7.6904,7.6844,7.6215,7.4929,7.4899,7.4869,7.4869,7.4869,7.454,7.3851,7.2535,7.1936,7.1787,6.9871,6.9393,6.9782,6.7148,6.643,6.6879,6.5562,6.4635,6.4298,6.575,6.6645,6.7266,0.0,0.0,0.0,0.0,0.0,3.5527,3.5957,3.6471,3.761,3.9595,4.0501,0.0,0.0,0.0,0.0,0.0,3.7812,3.8711,4.0019,4.0918,4.1953,4.3223,4.3555,4.3633,4.3496,4.5166,4.5953,4.5786,4.8697,5.0247,5.0665,5.3918,5.5632,5.6127,5.7725,5.9646,6.1523,6.0978,6.2221,6.4453,6.3571,6.3845,6.4809,6.4954,6.3622,6.1876,0.0,6.272,6.1313,6.0655,6.0146,5.9967,6.1074,6.1104,6.0894,6.1553,6.1762,6.2091,6.3617,6.5589,6.7962,7.149,7.469,7.755,7.9747,8.0841,8.0961,7.9447,7.8593,7.7636,7.6159,7.6036,7.6335,7.6784,7.7592,7.822,7.843,7.846,7.7981,7.6664,7.6514,7.6365,7.5946,7.6305,7.6993,7.8071,7.813,7.834,7.8759,7.837,7.7921,7.7502,7.6664,7.6006,7.5557,7.5108,7.4869,7.4869,7.442,7.3881,7.3223,7.2295,7.1427,7.056,6.9482,6.8884,6.8495,6.6729,6.64,6.6849,6.5533,6.4874,6.4694,6.4709,6.4619,6.4734,0.0,0.0,0.0,0.0,0.0,0.0,0.0,0.0,0.0,0.0,0.0,0.0,0.0,0.0,0.0,0.0,0.0,3.8125,3.9121,4.0,4.1035,4.2344,4.2793,4.3027,4.3027,4.3979,4.4453,4.4453,4.6755,4.8068,4.8649,5.1222,5.2958,5.389,5.4887,5.6644,5.8698,5.8453,5.9507,6.1221,6.0184,6.0291,6.0975,6.0765,5.9622,0.0,5.9178,5.9046,5.8321,5.8112,5.7932,5.7872,5.8501,5.874,5.9039,6.0146,6.1553,6.3199,6.5203,6.7033,6.9209,7.2119,7.4624,7.6791,7.8244,7.9183,7.944,7.8203,7.6887,7.5569,7.4399,7.3791,7.3821,7.4988,7.5886,7.6814,7.7921,7.7891,7.7352,7.6245,7.5916,7.5617,7.5228,7.5198,7.5826,7.7352,7.7682,7.7981,7.843,7.825,7.7951,7.7472,7.6664,7.6006,7.5557,7.5108,7.4869,7.4869,7.421,7.3552,7.2894,7.2206,7.1308,7.026,6.9393,6.8764,6.8196,6.64,6.5922,6.6161,6.4844,6.4336,6.4276,6.3827,6.3408,6.3337,0.0,0.0,0.0,0.0,0.0,0.0,0.0,0.0,0.0,0.0,0.0,0.0,0.0,0.0,0.0,0.0,0.0,0.0,3.7832,3.8633,3.9668,4.0957,4.1465,4.1719,4.1738,4.1758,4.1777,4.1797,4.4317,4.5728,4.619,4.8796,5.0804,5.2045,5.2342,5.3497,5.5196,5.529,5.5591,5.5993,5.4838,5.5099,5.5974,5.4349,5.4572,5.567,5.5207,5.5137,5.5329,5.5987,5.6645,5.7094,5.6496,5.8082,6.0266,6.1014,6.26,6.4575,6.658,6.8136,6.9602,7.1517,7.4119,7.617,7.6201,7.7936,7.9063,7.7359,7.5923,7.452,7.2926,7.1637,7.1487,7.3432,7.3911,7.4719,7.6604,7.6395,7.5796,7.5108,7.448,7.4091,7.4061,7.4001,7.4779,7.6694,7.7412,7.7801,7.7861,7.84,7.81,7.6874,7.6754,7.6125,7.4899,7.4869,7.4869,7.4869,7.424,7.3582,7.2894,7.2235,7.1517,7.0739,6.9512,6.8974,6.8704,6.6101,6.4994,6.4934,6.3647,6.3139,6.3139,6.3139,6.3109,6.3137,0.0,0.0,0.0,0.0,0.0,0.0,0.0,0.0,0.0,0.0,0.0,0.0,0.0,0.0,0.0,0.0,0.0,0.0,3.6992,3.748,3.8066,3.873,3.9805,4.0527,4.084,4.1172,4.1484,4.1797,4.2427,4.2842,4.304,4.5685,4.7035,4.7521,5.0192,5.1898,5.2744,5.3296,5.3858,5.421,5.2729,5.2363,5.2685,5.3095,5.3281,5.3555,5.5678,5.6163,5.6017,5.6645,5.7633,5.856,5.8411,5.9488,6.1074,6.2241,6.4306,6.667,6.8645,7.0141,7.1517,7.3013,7.3948,7.4613,7.5127,7.5347,7.5028,7.3567,7.1869,7.0202,6.8737,6.9453,7.053,7.1517,7.4151,7.6425,7.7412,7.7831,7.7801,7.7143,7.6904,7.6604,7.6125,7.5647,7.5796,7.6754,7.6993,7.7502,7.8489,7.7771,7.7173,7.6844,7.5886,7.5198,7.4869,7.4869,7.4869,7.4869,7.4719,7.4031,7.2894,7.2744,7.1487,6.9482,6.9153,6.8435,6.7388,6.5712,6.5323,6.5622,6.4276,6.3767,6.3767,6.3767,6.3468,6.3222,0.0,0.0,0.0,0.0,0.0,0.0,0.0,0.0,0.0,0.0,0.0,0.0,0.0,0.0,0.0,0.0,0.0,0.0,0.0,3.6992,3.7285,3.7891,3.8633,3.9219,3.9668,4.0098,4.0527,4.0957,4.0957,4.1055,4.125,4.2548,4.3601,4.4525,4.7056,4.9014,5.0388,5.1129,5.1774,0.0,0.0,4.9791,4.987,5.0315,5.0722,5.1397,5.4005,5.6459,5.853,5.9727,6.0266,6.0505,6.1074,6.2361,6.3947,6.5293,6.7119,6.9064,7.0769,7.1996,7.2954,7.3702,7.4121,7.4121,7.3313,7.3073,7.2475,7.056,6.8854,6.7268,6.5922,6.7089,6.8525,6.9482,7.2714,7.5647,7.7173,7.7711,7.7891,7.7831,7.7562,7.7233,7.6874,7.6514,7.6574,7.7203,7.6993,7.7293,7.831,7.7921,7.7442,7.6844,7.6125,7.5467,7.4869,7.4869,7.4869,7.4869,7.4869,7.418,7.2924,7.2924,7.1637,6.9423,6.9123,6.8405,6.7298,6.5682,6.5233,6.5443,6.4126,6.3588,6.3588,6.3588,6.3722,6.4097,0.0,0.0,0.0,0.0,0.0,0.0,0.0,0.0,0.0,0.0,4.1363,4.2844,0.0,0.0,0.0,0.0,0.0,0.0,0.0,0.0,3.709,3.7812,3.7891,3.8105,3.8476,3.8906,3.9316,3.9726,3.9726,3.9902,4.0254,3.9883,4.0638,4.2303,4.3654,4.555,4.7898,4.8706,4.9471,4.9866,4.8385,4.7757,4.7657,0.0,4.8077,4.9711,5.2163,5.6307,6.1002,6.335,6.3528,6.2959,6.4246,6.5922,6.7627,6.8884,7.0171,7.1457,7.2714,7.3522,7.4031,7.4031,7.439,7.4091,7.1607,7.1338,7.0889,6.8256,6.6729,6.5473,6.4126,6.5054,6.646,6.7867,7.0799,7.3821,7.6455,7.6904,7.7203,7.7861,7.7442,7.7083,7.7083,7.6993,7.7233,7.7891,7.7322,7.7263,7.7921,7.84,7.8071,7.6754,7.6694,7.6125,7.4899,7.4869,7.4869,7.4869,7.4869,7.418,7.2924,7.2924,7.1787,6.9812,6.9243,6.8555,6.7749,6.6102,6.5381,6.517,6.4138,6.3709,6.3649,6.3649,6.4346,6.5436,0.0,0.0,0.0,0.0,0.0,0.0,0.0,0.0,0.0,0.0,4.1331,4.2881,0.0,0.0,0.0,0.0,0.0,0.0,0.0,0.0,0.0,3.7402,3.7734,3.7969,3.8027,3.8457,3.873,3.8809,3.8809,3.8848,3.8906,3.8848,3.9009,3.9427,4.1138,4.2736,4.4278,4.5946,4.7051,4.762,4.738,4.7004,4.6627,4.7004,0.0,0.0,5.4569,5.6938,5.8957,6.3357,6.5413,6.637,6.7717,6.8734,6.9602,7.035,7.1517,7.2744,7.3522,7.421,7.4719,7.4719,7.439,7.3642,7.2086,7.0979,6.9542,6.6909,6.5742,6.4784,6.3468,6.4755,6.661,6.8525,7.1128,7.3821,7.6455,7.7293,7.7891,7.8549,7.8519,7.846,7.846,7.7951,7.7921,7.8579,7.8011,7.7921,7.8579,7.822,7.7382,7.6096,7.6066,7.5677,7.4899,7.4869,7.4869,7.4869,7.4869,7.418,7.2924,7.2924,7.1547,6.9153,6.9064,6.8315,6.7211,6.75,6.7284,6.6756,6.7211,6.7029,6.6522,6.6522,6.6627,6.6958,0.0,0.0,0.0,0.0,0.0,0.0,0.0,3.6094,3.7094,3.9251,4.1383,4.3291,4.4887,4.5653,4.5357,0.0,0.0,0.0,0.0,0.0,0.0,0.0,3.8027,3.8262,3.8262,3.8691,3.8906,3.8906,0.0,3.8906,3.8887,3.8672,3.8574,3.8627,4.0197,4.1262,4.213,4.4573,4.5702,4.5906,4.6736,4.6979,4.6803,0.0,0.0,0.0,5.4036,5.6651,5.9592,6.2375,6.5196,6.7926,7.029,7.1487,7.2146,7.2774,7.3193,7.3582,7.424,7.4629,7.4869,7.4869,7.439,7.3283,7.0919,6.9632,6.8076,6.5084,6.4246,6.3707,6.275,6.4455,6.6221,6.6849,6.9423,7.2176,7.448,7.5647,7.6784,7.813,7.8579,7.8789,7.8789,7.8519,7.846,7.8759,7.8489,7.846,7.8759,7.816,7.7382,7.6425,7.6066,7.5587,7.4899,7.4869,7.4869,7.4869,7.4869,7.418,7.2924,7.2924,7.1667,6.9482,6.9153,6.8873,6.8634,6.7896,6.7884,6.8215,6.7831,6.7535,6.7164,6.7164,6.7622,6.8355,0.0,0.0,0.0,0.0,0.0,0.0,3.6406,3.6758,3.7676,3.9766,4.159,4.3724,4.6263,4.6248,4.6061,0.0,0.0,0.0,0.0,0.0,0.0,0.0,0.0,0.0,3.8574,0.0,0.0,3.9199,3.9297,0.0,0.0,0.0,0.0,0.0,3.9749,4.0352,4.0842,4.3617,4.4771,0.0,0.0,4.7305,4.7355,0.0,0.0,0.0,0.0,5.5422,5.9002,6.1167,6.4015,6.7284,7.0794,7.2595,7.3552,7.3911,7.3971,7.4001,7.451,7.4779,7.4869,7.4869,7.427,7.2864,6.9722,6.8345,6.6879,6.3737,6.3079,6.2929,6.2391,6.3977,6.5353,6.5263,6.7418,7.0021,7.2565,7.3911,7.5437,7.7562,7.84,7.8789,7.8789,7.8789,7.8789,7.8789,7.8669,7.8639,7.8789,7.831,7.7652,7.6844,7.6365,7.5707,7.4899,7.4869,7.4869,7.4869,7.4869,7.427,7.3133,7.2984,7.1906,7.0141,6.9482,6.9578,7.01,6.88,6.8829,6.9652,6.8881,6.8366,6.8057,6.8057,6.8781,6.9633,0.0,0.0,0.0,0.0,0.0,0.0,3.6016,3.707,3.8457,4.0234,4.2037,4.3964,4.5872,4.7097,4.7735,0.0,0.0,0.0,0.0,0.0,0.0,0.0,0.0,0.0,0.0,0.0,0.0,3.9199,3.9629,0.0,0.0,0.0,0.0,0.0,0.0,3.9775,4.0654,4.2654,0.0,0.0,0.0,0.0,0.0,0.0,0.0,0.0,0.0,5.2783,5.3751,6.0251,6.2369,6.2974,6.7165,7.0111,7.1966,7.1427,7.2505,7.3911,7.3971,7.442,7.4869,7.4869,7.3941,7.2295,6.9602,6.8016,6.6311,6.3617,6.3079,6.3049,6.2989,6.3169,6.3917,6.5652,6.6191,6.7897,7.2295,7.3522,7.4929,7.7502,7.84,7.8789,7.8789,7.8789,7.8789,7.8789,7.825,7.816,7.8759,7.8729,7.813,7.6874,7.6784,7.6125,7.4899,7.4869,7.4869,7.4869,7.4869,7.451,7.3791,7.3193,7.2146,7.0769,7.0111,6.9972,7.031,7.1471,7.1627,7.121,7.2443,7.2107,7.0916,7.0916,7.1007,7.1098,0.0,0.0,0.0,0.0,0.0,0.0,3.6992,3.7383,3.8359,4.0625,4.1334,4.3056,4.6773,4.6974,4.7283,4.8257,0.0,0.0,0.0,0.0,0.0,0.0,0.0,0.0,0.0,0.0,3.8945,3.9199,3.9394,0.0,0.0,0.0,0.0,0.0,0.0,3.9076,3.9172,4.2388,0.0,0.0,0.0,0.0,0.0,0.0,0.0,0.0,0.0,0.0,5.3465,5.5834,5.8328,6.0692,6.1872,6.4776,6.8016,6.9363,7.0859,7.2265,7.3073,7.4061,7.4869,7.4869,7.3582,7.1727,6.9512,6.7657,6.5772,6.3528,6.3079,6.3079,6.3079,6.3079,6.3318,6.4126,6.4246,6.5293,6.8345,6.9333,7.1158,7.4988,7.6036,7.7053,7.8639,7.8789,7.8789,7.8789,7.8549,7.8519,7.8789,7.84,7.7951,7.7442,7.7023,7.6395,7.5497,7.5078,7.4869,7.4869,7.4869,7.454,7.3881,7.3223,7.2385,7.1427,7.041,7.074,7.2027,7.1823,7.2033,7.2639,7.2785,7.2225,7.1312,7.1312,7.1312,7.1312,0.0,0.0,0.0,0.0,0.0,3.584,3.7148,3.7422,3.832,4.0664,4.0723,4.2388,4.7306,4.6614,4.6864,4.9516,4.7691,0.0,0.0,0.0,0.0,0.0,0.0,0.0,0.0,0.0,3.9671,3.9414,3.9668,3.9883,0.0,0.0,3.9883,3.9199,0.0,0.0,0.0,0.0,0.0,0.0,0.0,0.0,0.0,0.0,0.0,0.0,0.0,0.0,0.0,0.0,0.0,5.8677,5.8516,6.1116,6.4605,6.6849,6.9004,7.0889,7.2026,7.3432,7.4629,7.4839,7.3223,7.1128,6.9393,6.7298,6.5203,6.3438,6.3079,6.3079,6.3079,6.3079,6.3079,6.3079,6.3079,6.3767,6.5742,6.658,6.8405,7.2265,7.3313,7.4719,7.7382,7.834,7.8789,7.8789,7.843,7.831,7.8489,7.7711,7.7322,7.7502,7.6904,7.6245,7.5617,7.5108,7.4869,7.4869,7.4869,7.454,7.3881,7.3223,7.2535,7.1816,7.0739,7.1169,7.2636,7.2046,7.2366,7.313,7.2831,7.2394,7.1921,7.1481,7.1447,7.1616,0.0,0.0,0.0,0.0,0.0,3.5547,3.5976,3.7109,3.8555,4.0293,4.0527,4.2312,4.7157,4.6324,4.7189,5.1662,5.0042,0.0,0.0,0.0,0.0,0.0,0.0,0.0,0.0,0.0,4.1703,3.9883,4.0742,4.0937,4.0527,4.0957,4.0469,3.9219,0.0,0.0,0.0,0.0,0.0,0.0,0.0,0.0,5.0393,0.0,0.0,0.0,0.0,0.0,0.0,0.0,0.0,0.0,0.0,6.0178,6.2391,6.3677,6.6879,7.0141,7.0739,7.2385,7.4061,7.4719,7.2894,7.059,6.9303,6.6939,6.4665,6.3348,6.3079,6.3079,6.3079,6.3079,6.3079,6.3079,6.3079,6.3767,6.5742,6.658,6.7717,6.9722,7.053,7.1996,7.4659,7.7263,7.8789,7.8789,7.7592,7.7143,7.7771,7.6604,7.6215,7.6814,7.6245,7.5587,7.4899,7.4869,7.4869,7.4869,7.4869,7.454,7.3881,7.3223,7.2535,7.1846,7.1188,7.1034,7.1335,7.2699,7.2951,7.2447,7.3211,7.3477,7.3274,7.1853,7.1751,7.2293,0.0,0.0,0.0,0.0,0.0,0.0,3.6348,3.6562,3.7246,3.8965,3.8926,4.0785,4.6239,4.568,4.6889,5.1662,5.0419,0.0,0.0,0.0,0.0,0.0,0.0,0.0,0.0,4.3745,4.2585,4.2344,4.1254,4.082,4.0976,4.1113,4.0644,3.9687,3.9824,3.9766,0.0,0.0,0.0,0.0,0.0,5.0419,5.0419,0.0,0.0,0.0,0.0,0.0,0.0,0.0,0.0,0.0,0.0,0.0,0.0,6.1912,6.4515,6.7418,6.8046,6.9363,7.059,7.0799,6.9542,6.8016,6.7148,6.5592,6.4096,6.3258,6.3079,6.3079,6.3079,6.3079,6.3378,6.4276,6.4006,6.4096,6.5173,6.6281,6.7897,7.032,7.3971,7.6634,7.7472,7.831,7.8789,7.8789,7.7981,7.7592,7.7801,7.6604,7.6185,7.6814,7.6215,7.5796,7.5587,7.5108,7.4869,7.4869,7.442,7.4091,7.3851,7.2714,7.2086,7.1846,7.1188,7.1034,7.1275,7.2699,7.2951,7.248,7.3245,7.3172,7.2631,7.1684,7.1447,7.1616,0.0,0.0,0.0,0.0,0.0,0.0,3.6133,3.623,3.6699,3.793,3.7988,3.9778,4.4547,4.4901,4.6588,5.0994,5.0846,0.0,0.0,0.0,0.0,0.0,0.0,0.0,4.7698,4.5341,4.4004,4.3751,4.2039,4.1308,4.1406,4.1562,4.1016,3.9902,3.9902,3.984,0.0,0.0,0.0,0.0,5.0745,5.0745,5.072,0.0,0.0,0.0,0.0,0.0,0.0,0.0,0.0,0.0,0.0,0.0,0.0,0.0,6.3109,6.5144,6.6311,6.7597,6.8675,6.8944,6.7807,6.652,6.6101,6.4784,6.3528,6.3169,6.3079,6.3079,6.3079,6.3079,6.3348,6.4156,6.3917,6.3977,6.4904,6.5951,6.7597,7.0231,7.454,7.7322,7.7322,7.822,7.8789,7.8789,7.7951,7.7442,7.7442,7.6215,7.5677,7.6066,7.5707,7.5527,7.5527,7.5078,7.4869,7.4869,7.421,7.3762,7.3492,7.2385,7.1757,7.1487,7.1068,7.0685,0.0,7.2501,7.2626,7.1738,7.3021,7.3206,7.2699,7.1684,7.1481,7.1684,0.0,0.0,0.0,0.0,0.0,0.0,0.0,3.6133,3.6777,3.7207,3.7617,3.9114,4.2438,4.4091,4.6331,4.9747,5.1299,0.0,0.0,0.0,0.0,0.0,0.0,0.0,4.8088,4.7,4.5779,4.4323,4.3076,4.2308,4.1816,4.2207,4.1523,3.998,3.9961,4.0412,0.0,0.0,0.0,0.0,5.1197,5.1197,0.0,0.0,0.0,0.0,0.0,0.0,0.0,0.0,0.0,0.0,0.0,0.0,0.0,0.0,0.0,0.0,0.0,6.67,6.7777,6.8405,6.7178,6.5802,6.5802,6.4395,0.0,6.3079,6.3079,6.3079,6.3079,6.3079,6.3109,6.3199,6.3169,6.3588,6.4904,6.5862,6.7388,7.0051,7.3193,7.5138,7.5078,7.7322,7.8789,7.8789,7.7562,7.6814,7.6814,7.5587,7.4869,7.4869,7.4869,7.4869,7.4869,7.4839,7.4809,7.4809,7.4091,7.3432,7.2834,7.2116,7.1487,7.0889,7.0859,7.0205,6.9384,7.2122,7.2188,7.0706,7.2734,7.3477,7.3308,7.1853,7.1751,7.2225,0.0,0.0,0.0,0.0,0.0,0.0,0.0,0.0,0.0,0.0,3.7187,3.8436,4.0933,4.3407,4.5964,0.0,0.0,0.0,0.0,0.0,0.0,0.0,0.0,0.0,5.1067,4.9743,4.8174,4.6293,4.4533,4.3062,4.1797,4.1894,4.1562,4.0859,4.0527,4.0692,0.0,0.0,0.0,0.0,4.9768,5.0494,0.0,0.0,0.0,0.0,4.959,5.0318,0.0,0.0,0.0,0.0,0.0,0.0,0.0,0.0,6.257,6.3169,6.3647,0.0,6.4276,6.4425,6.4126,6.3767,0.0,6.3408,6.3079,6.3079,6.3079,6.3079,6.3079,6.3079,6.3408,6.4425,6.4126,6.4246,6.5592,6.8495,7.1487,7.418,7.6485,7.7682,7.7173,7.813,7.8789,7.8789,7.7562,7.6814,7.6814,7.5587,7.4869,7.4869,7.4869,7.4869,7.4869,7.436,7.4121,7.4121,7.2924,7.2265,7.2116,7.1427,7.1038,7.0889,7.041,7.0358,7.0796,7.2078,7.2692,7.2864,7.3304,7.3477,7.3308,7.1853,7.1413,7.1548,0.0,0.0,0.0,0.0,0.0,0.0,0.0,0.0,0.0,0.0,3.6914,3.7786,3.9039,4.2786,4.5751,0.0,0.0,0.0,0.0,0.0,0.0,0.0,0.0,5.2352,5.2126,5.0731,4.958,4.8611,4.5966,4.4153,4.315,4.2447,4.166,4.084,4.0195,4.0512,4.1733,4.3687,4.5852,4.8284,4.9446,0.0,0.0,0.0,0.0,0.0,4.959,5.0142,0.0,5.3608,5.5613,5.7527,0.0,0.0,0.0,0.0,6.281,6.3079,6.3079,6.3079,6.3079,6.3079,6.3079,6.3079,6.3079,6.3079,6.3079,6.3079,6.3079,6.3079,6.3079,6.3079,6.3318,6.4006,6.4306,6.5263,6.7508,7.044,7.3253,7.5617,7.7352,7.831,7.825,7.8579,7.8669,7.837,7.7412,7.6694,7.6425,7.5437,7.4749,7.442,7.442,7.442,7.442,7.4061,7.3762,7.3432,7.2385,7.1876,7.1876,7.1218,7.1096,7.1433,7.1068,7.1229,7.1824,7.2549,7.2744,7.2546,7.2862,7.28,7.2394,7.1616,7.1312,7.1312,0.0,0.0,0.0,0.0,0.0,0.0,0.0,0.0,0.0,0.0,0.0,0.0,0.0,0.0,0.0,0.0,0.0,0.0,0.0,0.0,0.0,0.0,5.2678,5.2703,5.2251,5.1059,5.0484,5.0531,4.7711,4.5855,4.4824,4.3637,4.223,4.0684,3.9941,4.0344,4.1783,4.3682,4.5574,4.7522,4.9173,0.0,0.0,0.0,0.0,0.0,0.0,0.0,0.0,5.4448,5.6369,5.7768,6.1175,0.0,0.0,0.0,0.0,0.0,6.3049,6.3139,6.3199,6.3109,6.3079,6.3079,6.3079,6.3079,6.3079,6.3079,6.3079,6.3079,6.3079,6.3169,6.3258,6.3348,6.4635,6.6729,6.9842,7.1876,7.3762,7.5677,7.7023,7.7981,7.846,7.8579,7.837,7.7711,7.7053,7.6455,7.5946,7.5168,7.448,7.3911,7.3791,7.3702,7.3582,7.3582,7.3313,7.2744,7.1966,7.1607,7.1577,7.1148,7.1344,7.1932,7.1956,7.2176,7.2604,7.2933,7.2529,7.1671,7.2216,7.2022,7.1447,7.1345,7.1312,7.1312,0.0,0.0,0.0,0.0,0.0,0.0,0.0,0.0,0.0,0.0,0.0,0.0,0.0,0.0,0.0,0.0,0.0,0.0,0.0,0.0,0.0,5.2804,5.2879,5.2879,5.2804,5.2579,5.1702,5.008,5.0449,4.899,4.5807,4.6108,4.4598,4.1601,4.1465,4.0955,4.0345,4.1794,4.3807,4.6027,4.6961,0.0,0.0,0.0,0.0,0.0,0.0,0.0,0.0,5.2135,5.4697,5.7361,5.8231,0.0,0.0,0.0,0.0,0.0,6.2929,6.3468,6.3737,6.3199,6.3079,6.3079,6.3079,6.3079,6.3079,6.3079,6.3079,6.3079,6.3079,6.3498,6.4036,6.4635,6.6789,6.9153,7.1278,7.2834,7.427,7.5736,7.7023,7.7622,7.7173,7.7622,7.7682,7.7023,7.6395,7.6006,7.5916,7.4719,7.4001,7.3881,7.3343,7.2774,7.2206,7.2206,7.2146,7.2026,7.0829,7.026,7.0325,7.0893,7.1194,7.1309,7.1314,7.2035,7.3154,7.2097,7.2213,7.3096,7.2573,7.2326,7.2157,7.1548,7.1312,7.1312,0.0,0.0,0.0,0.0,0.0,0.0,0.0,0.0,0.0,0.0,0.0,0.0,0.0,0.0,0.0,0.0,0.0,0.0,0.0,0.0,5.2628,5.2904,5.2929,5.2929,5.2929,5.3206,5.3188,5.2882,5.262,5.1938,5.0804,4.9128,4.7165,4.5019,4.3468,4.2383,4.1868,4.2167,4.2937,4.417,0.0,0.0,0.0,0.0,0.0,0.0,0.0,0.0,0.0,0.0,5.443,5.6915,5.7938,0.0,0.0,0.0,0.0,0.0,6.1942,6.3044,6.4087,6.4204,6.5089,6.5551,6.4453,6.4483,6.4467,6.3312,6.3079,6.3457,6.4554,6.5666,6.713,6.9212,6.9812,7.059,7.2206,7.3283,7.439,7.5736,7.6425,7.6933,7.7322,7.7322,7.7023,7.6365,7.6066,7.5736,7.5377,7.442,7.3732,7.3373,7.2714,7.1876,7.0859,7.1668,7.1668,7.0859,7.1062,7.0983,7.0648,7.144,7.197,7.2362,7.196,7.2405,7.3384,7.2348,7.2277,7.2834,7.209,7.1819,7.1751,7.1447,7.1312,7.1312,0.0,0.0,0.0,0.0,0.0,0.0,0.0,0.0,0.0,0.0,0.0,0.0,0.0,0.0,0.0,0.0,0.0,0.0,0.0,5.2101,5.2352,5.2904,5.2929,5.298,5.3105,5.3758,5.4587,5.5591,5.5038,5.4957,5.5213,5.156,4.9333,4.8104,4.5673,4.4284,4.3625,4.3068,4.2785,4.3005,0.0,0.0,0.0,0.0,0.0,0.0,0.0,0.0,0.0,0.0,0.0,0.0,0.0,0.0,0.0,6.1253,6.1014,6.098,6.1614,6.2884,6.4311,6.5345,6.6775,6.7745,6.6808,6.6925,6.6838,6.5626,6.5189,6.5355,6.6264,6.7847,6.9837,7.2609,7.2542,7.2425,7.326,7.3821,7.4569,7.5766,7.5916,7.6275,7.7263,7.6904,7.6275,7.5497,7.5437,7.5138,7.445,7.3791,7.3193,7.2684,7.1876,7.0979,6.9991,7.0737,7.0645,6.9816,7.1229,7.1485,7.072,7.1593,7.2355,7.2871,7.2481,7.2653,7.3172,7.2462,7.2157,7.209,7.1548,7.1312,7.1312,7.1312,7.1312,7.1312,0.0,0.0,0.0,0.0,0.0,0.0,0.0,0.0,0.0,0.0,0.0,0.0,0.0,0.0,0.0,0.0,0.0,0.0,0.0,5.2101,5.2352,5.2904,5.2929,5.3155,5.3632,5.4712,5.5566,5.6143,5.8076,5.8147,5.6232,5.2822,5.0445,4.9189,4.8347,4.6485,4.4012,4.3625,4.3362,4.3245,4.3099,0.0,0.0,0.0,0.0,0.0,0.0,0.0,0.0,0.0,0.0,0.0,0.0,0.0,6.1164,6.1134,6.0655,6.0661,6.3125,6.3896,6.4464,6.6355,6.7083,6.7956,7.0546,7.0642,7.0524,7.174,7.1429,7.0249,6.7672,6.8878,7.0683,7.1902,7.4251,7.5652,7.4872,7.4779,7.5078,7.5826,7.5916,7.5946,7.6036,7.6006,7.5437,7.4121,7.4031,7.3762,7.3103,7.2415,7.1996,7.1966,7.0769,7.0081,6.9991,6.886,6.856,6.9127,7.0558,7.0557,6.9325,7.0724,7.139,7.149,7.215,7.2438,7.2428,7.1684,7.1379,7.1379,7.1345,7.1312,7.1312,7.1312,7.1312,7.1312,0.0,0.0,0.0,0.0,0.0,0.0,0.0,0.0,0.0,0.0,0.0,0.0,0.0,0.0,0.0,0.0,0.0,0.0,0.0,5.1046,5.1322,5.1875,5.2226,5.2678,5.3206,5.4988,5.6846,5.8755,6.0311,5.9943,5.7773,5.5775,5.3849,5.1971,5.019,4.878,4.7613,4.5008,4.3823,4.3781,4.332,4.4366,0.0,0.0,0.0,0.0,0.0,0.0,0.0,0.0,5.1883,5.4421,5.4638,5.6899,5.9506,5.9811,5.9668,5.9783,6.108,6.3067,6.5103,6.6653,6.8399,7.0067,7.1269,7.2013,7.2522,7.268,7.287,7.298,7.2703,7.3553,7.4734,7.6071,7.7461,7.7905,7.6603,7.6768,7.6726,7.5995,7.5527,7.5437,7.5856,7.5138,7.445,7.3941,7.3522,7.2984,7.2295,7.1637,7.1098,7.0709,6.9842,6.8974,6.8136,6.8577,6.797,6.652,6.9321,7.0336,6.9864,7.1342,7.1988,7.1969,7.1794,7.1718,7.1718,7.1413,7.1312,7.1312,7.1312,7.1312,7.1312,7.1312,7.1312,7.1312,0.0,0.0,0.0,0.0,0.0,0.0,0.0,0.0,0.0,0.0,0.0,0.0,0.0,0.0,0.0,0.0,0.0,0.0,5.0237,5.0419,5.067,5.1247,5.18,5.2427,5.3155,5.5164,5.7399,5.9809,6.1115,6.0713,5.8704,5.7374,5.5867,5.4114,5.1905,5.0648,5.0056,4.7169,4.5466,4.472,4.4399,4.4974,0.0,0.0,0.0,0.0,0.0,0.0,0.0,0.0,5.1396,5.3296,5.3734,5.5734,5.7974,5.8291,5.8985,5.9848,6.0664,6.2984,6.5493,6.697,6.901,7.0985,7.2504,7.3974,7.5201,7.5685,7.4919,7.4603,7.5964,7.6121,7.6511,7.7959,7.8765,7.881,7.7517,7.7297,7.68,7.5695,7.5168,7.4988,7.5258,7.445,7.3642,7.2984,7.2535,7.1906,7.1009,7.056,7.0021,6.9363,6.8704,6.7837,6.67,6.7238,6.6691,6.5024,6.7467,6.8987,6.9681,7.0828,7.1623,7.2022,7.1548,7.1312,7.1312,7.1312,7.1312,7.1312,7.1312,7.1312,7.1312,7.1312,7.1312,7.1312,0.0,0.0,0.0,0.0,0.0,0.0,0.0,0.0,0.0,0.0,0.0,0.0,0.0,0.0,0.0,0.0,0.0,0.0,5.0237,5.0419,5.067,5.1247,5.18,5.2603,5.3658,5.534,5.7022,5.873,6.0362,6.0311,5.8654,5.6972,5.5917,5.529,5.3658,5.2112,5.077,5.0246,4.8492,4.624,4.6217,4.6721,4.7519,0.0,0.0,0.0,0.0,0.0,0.0,0.0,5.1062,5.2068,5.2586,5.4589,5.6679,5.6707,5.8752,6.1294,6.2634,6.3919,6.5381,6.7358,6.8504,7.0297,7.4695,7.6893,7.8822,8.1799,7.8363,7.5285,7.665,7.5806,7.5252,7.6478,7.7787,7.8332,7.7455,7.5966,7.4937,7.4869,7.4869,7.4599,7.3941,7.3881,7.3043,7.1038,7.0889,7.032,6.9064,6.8974,6.8675,6.7956,6.7298,6.667,6.6011,6.4665,6.4336,6.4994,6.5044,6.6157,6.82,6.8879,6.9949,7.1267,7.1312,7.1312,7.1312,7.1312,7.1312,7.1312,7.1312,7.1312,7.1312,7.1312,7.1312,7.1312,0.0,0.0,0.0,0.0,0.0,0.0,0.0,0.0,0.0,0.0,0.0,0.0,0.0,0.0,0.0,0.0,0.0,0.0,5.0197,5.0067,5.0092,5.0645,5.1222,5.185,5.2578,5.4587,5.6646,5.873,5.9583,5.8755,5.6369,5.5867,5.4913,5.3658,5.3532,5.2984,5.2178,5.0215,4.8944,4.8122,4.643,4.6677,4.8062,0.0,0.0,0.0,0.0,0.0,0.0,0.0,0.0,0.0,5.138,5.3809,5.6307,5.6137,5.8369,6.0913,6.0757,6.2782,6.5281,6.6752,6.9282,7.2326,7.5743,7.6893,7.8348,8.234,8.1169,7.9499,7.9921,7.9634,7.9479,7.9831,8.1103,8.1341,7.9308,7.8691,7.7328,7.4549,7.418,7.3941,7.3283,7.2355,7.1547,7.0949,7.0081,6.9004,6.7657,6.7597,6.7059,6.5951,6.5712,6.5293,6.4605,6.4186,6.3887,6.3647,6.3659,6.4769,6.6815,6.8449,6.9409,6.9902,7.0882,7.1312,7.1312,7.1312,7.1312,7.1312,7.1312,7.1312,7.1312,7.1312,7.1312,7.1312,0.0,0.0,0.0,0.0,0.0,0.0,0.0,0.0,0.0,0.0,4.1016,4.1074,0.0,0.0,0.0,0.0,0.0,0.0,5.0131,4.9891,4.9841,5.0393,5.0971,5.1749,5.2729,5.426,5.5616,5.6721,5.7926,5.7323,5.5064,5.5516,5.5064,5.3934,5.4687,5.4486,5.3487,5.2168,5.0993,4.9858,4.8703,4.8532,4.9101,0.0,0.0,0.0,0.0,0.0,0.0,0.0,0.0,0.0,5.0212,5.2471,5.4786,5.5164,5.7928,6.0984,6.1392,6.3538,6.6122,6.8094,7.0534,7.3341,7.6961,7.8686,8.0378,8.3321,8.2543,8.1393,8.1663,8.1257,8.1054,8.1629,8.2206,8.2034,8.0516,7.9234,7.7434,7.4724,7.3864,7.3253,7.2565,7.1547,7.0679,7.0201,6.9183,6.8016,6.667,6.661,6.5981,6.4665,6.4605,6.4306,6.3647,6.3617,6.3438,6.3079,6.3079,6.3746,6.4958,6.6733,6.8174,6.9265,7.0699,7.1312,7.1312,7.1312,7.1312,7.1312,7.1312,7.1312,7.1312,7.1312,7.1312,7.1312,0.0,0.0,4.0664,4.1094,0.0,0.0,0.0,0.0,0.0,0.0,4.1152,4.1152,0.0,0.0,0.0,0.0,0.0,0.0,0.0,4.9826,4.9866,5.0469,5.1096,5.2126,5.3607,5.416,5.416,5.3632,5.5817,5.6043,5.4436,5.5591,5.5842,5.5365,5.642,5.5993,5.4511,5.4863,5.3532,5.1247,5.1749,5.1322,5.0419,5.0368,0.0,0.0,0.0,0.0,0.0,0.0,0.0,0.0,4.9188,5.0918,5.2694,5.3858,5.7185,6.0994,6.3196,6.514,6.7294,7.0421,7.2056,7.4018,7.8314,8.1426,8.3625,8.437,8.2915,8.1697,8.2374,8.146,8.1021,8.2306,8.183,8.1312,8.111,7.841,7.6116,7.5212,7.3768,7.2535,7.1787,7.1128,7.0201,6.8914,6.8196,6.7208,6.5892,6.5832,6.5233,6.3947,6.3917,6.3647,6.3079,6.3079,6.3079,6.3079,6.3079,6.3079,6.3137,6.4512,6.6543,6.9121,7.0482,7.1098,7.1098,7.1267,7.1312,7.1312,7.1312,7.1312,7.1312,7.1312,7.1312,7.1312,0.0,0.0,4.0664,4.1094,0.0,0.0,0.0,0.0,0.0,0.0,0.0,0.0,0.0,0.0,0.0,0.0,0.0,0.0,0.0,4.9149,5.0042,5.1046,5.2051,5.2729,5.308,5.3206,5.3231,5.308,5.4863,5.4888,5.3306,5.4863,5.5265,5.4762,5.544,5.5064,5.3808,5.2653,5.1548,5.0619,5.072,5.0645,5.0368,4.9941,4.9967,0.0,0.0,0.0,0.0,0.0,0.0,0.0,4.8862,5.0436,5.2286,5.2678,5.5108,5.8204,6.0916,6.3056,6.5469,6.9434,7.3646,7.7502,8.0209,8.1765,8.2847,8.3592,8.3355,8.3084,8.3219,8.349,8.3592,8.3321,8.3091,8.2536,8.1279,7.8978,7.6698,7.4656,7.3039,7.1667,7.05,6.9782,6.8854,6.7537,6.6819,6.5832,6.4515,6.4425,6.4066,6.3288,6.3258,6.3199,6.3079,6.3079,6.3079,6.3079,6.3079,6.3079,6.3137,6.4512,6.6048,6.7673,6.9073,6.9633,6.9727,7.0837,7.1312,7.1312,7.1312,7.1312,7.1312,7.1312,7.1312,7.1312,0.0,0.0,0.0,0.0,0.0,0.0,0.0,0.0,0.0,0.0,0.0,0.0,0.0,0.0,0.0,0.0,0.0,0.0,0.0,4.9346,5.0092,5.1222,5.2076,5.2653,5.2929,5.3674,5.4122,5.4122,5.5789,5.5381,5.2955,5.4336,5.4838,5.4612,5.5691,5.5114,5.3306,5.298,5.19,5.0444,5.072,5.0494,4.9992,4.9715,4.9439,4.9063,4.7933,0.0,0.0,0.0,0.0,0.0,0.0,0.0,5.0929,5.1949,5.4145,5.6805,5.9723,6.262,6.6088,7.1074,7.4897,7.7942,7.9803,8.0818,8.1562,8.2272,8.2712,8.2983,8.2983,8.3592,8.3828,8.3084,8.3253,8.2956,8.1404,7.9537,7.7345,7.4684,7.2984,7.1274,6.925,6.8435,6.7627,6.661,6.5922,6.5084,6.4066,6.4006,6.3707,6.3109,6.3079,6.3079,6.3079,6.3079,6.3079,6.3079,6.3079,6.3079,6.3137,6.4512,6.5357,6.5775,6.7157,6.7931,6.8291,6.9377,7.0208,7.0804,7.1176,7.1312,7.1312,7.1312,7.1312,7.1312,0.0,0.0,0.0,0.0,0.0,0.0,0.0,0.0,0.0,0.0,0.0,0.0,0.0,0.0,0.0,0.0,0.0,0.0,0.0,0.0,0.0,5.0946,5.1699,5.2277,5.2628,5.4092,5.4905,5.5063,5.6638,5.6245,5.3989,5.4689,5.489,5.4637,5.5993,5.5239,5.298,5.3582,5.2402,5.0167,5.0544,5.0142,4.9289,4.9213,4.8636,4.7832,4.733,4.7143,4.728,4.728,0.0,0.0,0.0,0.0,4.9311,5.1091,5.2991,5.5165,5.8374,6.2481,6.7155,7.2532,7.5051,7.6583,7.8163,7.9092,7.9803,8.0412,8.1426,8.2205,8.2205,8.2915,8.3219,8.234,8.2847,8.2847,8.146,7.9528,7.7311,7.4911,7.2798,7.0557,6.8083,6.7208,6.649,6.5712,6.5173,6.4545,6.3887,6.3827,6.3617,6.3079,6.3079,6.3079,6.3079,6.3079,6.3079,6.3079,6.3079,6.3079,6.3137,6.4265,6.4388,6.3819,6.5344,6.617,6.6478,6.7659,6.8785,6.976,7.0715,7.1109,7.1142,7.1278,7.1312,7.1312,0.0,0.0,0.0,0.0,0.0,0.0,0.0,0.0,0.0,0.0,4.0801,4.0391,0.0,0.0,3.9985,4.1699,4.328,4.4846,4.652,0.0,0.0,4.9816,5.1297,5.1925,5.1498,5.222,5.2972,5.3877,5.4675,5.616,5.8161,5.7208,5.6003,5.4587,5.4787,5.416,5.2829,5.1523,5.0218,4.8962,4.8535,4.8259,4.8083,4.7631,4.7657,4.7832,4.733,4.7431,4.7807,4.7807,4.7807,0.0,0.0,0.0,4.7678,4.9251,4.9573,5.0487,5.5233,6.0833,6.629,7.0105,7.215,7.3691,7.5706,7.6758,7.7367,7.7468,7.96,8.1426,8.1426,8.2577,8.305,8.1663,8.2069,8.2272,8.1393,7.7773,7.5032,7.4669,7.1036,6.8174,6.727,6.652,6.5622,6.4366,6.4186,6.3857,6.3228,6.3199,6.3169,6.3079,6.3079,6.3079,6.3079,6.3079,6.3079,6.3079,6.3079,6.3079,6.3137,6.3279,6.3033,6.2487,6.4412,6.4639,6.3849,6.6891,6.7862,6.7691,6.9637,7.0331,7.0398,7.1075,7.1312,7.1312,0.0,0.0,0.0,0.0,0.0,0.0,0.0,0.0,0.0,0.0,0.0,4.1386,4.1448,4.0817,4.1485,4.4162,4.4866,4.5719,4.6993,4.8043,4.8937,4.9565,5.0318,5.072,5.0795,5.2265,5.3553,5.4553,5.6114,5.8115,6.0404,6.0234,5.8681,5.6116,5.5805,5.4262,5.1925,5.087,4.9791,4.8711,4.8134,4.7732,4.7456,4.723,4.7079,4.6979,4.6753,4.6828,4.7004,4.7004,4.723,4.7481,4.7481,0.0,0.0,0.0,4.8536,5.0432,5.649,5.9927,6.2953,6.7995,6.9441,7.03,7.2794,7.3954,7.4685,7.5465,7.6961,7.8551,7.9837,8.0953,8.1426,8.0784,8.1291,8.1528,8.0784,7.8612,7.6231,7.377,7.1408,6.8729,6.5622,6.5054,6.4485,6.3558,6.3498,6.3378,6.3079,6.3079,6.3079,6.3079,6.3079,6.3079,6.3079,6.3079,6.3079,6.3079,6.3079,6.3079,6.3079,6.269,6.2181,6.1609,6.2435,6.2503,6.2053,6.4019,6.501,6.5623,6.729,6.8399,6.9136,6.987,7.062,7.1312,0.0,0.0,0.0,0.0,0.0,0.0,0.0,0.0,0.0,0.0,0.0,4.2792,4.3133,0.0,0.0,0.0,4.6209,4.6448,4.7633,4.7707,4.8083,4.8937,4.9238,4.9515,4.9766,5.1601,5.3005,5.4041,5.6213,5.8842,6.187,6.2649,6.1973,6.0145,5.8523,5.5867,5.2537,5.1518,5.0369,4.9088,4.7807,4.7054,4.6702,4.6702,4.6451,4.6125,4.625,4.6301,4.6301,4.6301,4.6577,4.6842,4.6753,4.6702,0.0,0.0,0.0,4.9825,5.5526,5.7063,5.8543,6.4621,6.6028,6.6687,6.9707,7.0992,7.1869,7.3242,7.4085,7.5291,7.7555,7.8889,7.9634,7.9634,8.0242,8.0479,7.9735,7.8488,7.6369,7.2777,7.1032,6.8506,6.4419,6.3857,6.3558,6.3109,6.3079,6.3079,6.3079,6.3079,6.3079,6.3079,6.3079,6.3079,6.3079,6.3079,6.3079,6.3079,6.2899,6.2839,6.281,6.2151,6.1493,6.0864,6.1044,6.0899,6.0567,6.1691,6.2617,6.3475,6.5066,6.6582,6.798,6.8657,6.9923,7.1312,0.0,0.0,0.0,0.0,0.0,0.0,0.0,0.0,0.0,0.0,0.0,4.4553,4.4575,4.4199,4.4528,4.5893,4.6019,4.6303,4.7107,4.7118,4.7143,4.7193,4.8259,0.0,4.8058,4.8712,4.9563,5.0559,5.2404,5.6534,6.2782,6.3838,6.565,6.7641,6.3454,5.9533,5.5919,5.3847,5.1972,5.0067,4.6878,4.5598,4.5573,4.5573,4.5547,4.5598,4.6125,4.6301,4.6301,4.6301,4.6326,4.625,4.5723,4.5573,4.5472,0.0,0.0,0.0,4.8699,5.0615,5.3415,5.8942,6.1187,6.2939,6.6572,6.7991,6.8917,7.0223,7.1144,7.2364,7.4424,7.6623,7.8111,7.8111,7.872,7.8957,7.8213,7.5656,7.3304,7.1778,6.8493,6.5786,6.4182,6.3468,6.3109,6.3079,6.3079,6.3079,6.3079,6.3079,6.3079,6.3079,6.3079,6.3079,6.3079,6.3079,6.3079,6.3079,6.245,6.2151,6.2121,6.1463,6.0805,6.0176,6.0835,6.0411,5.9345,6.1252,6.164,6.1368,6.3444,6.5415,6.7221,6.798,6.9569,7.1312,0.0,0.0,0.0,0.0,0.0,0.0,0.0,0.0,0.0,0.0,0.0,0.0,0.0,4.5564,4.5804,4.7135,4.6918,4.6675,4.6592,4.6602,4.6753,4.7043,4.7832,4.8134,4.7908,4.8485,4.9249,5.0307,5.0941,5.3985,5.9313,6.1213,6.3,6.4583,6.3887,6.1548,5.7976,5.5551,5.2914,5.027,4.9722,4.8673,4.7464,4.802,4.7898,4.7322,4.6777,4.6473,4.625,4.5899,4.6024,4.6225,4.5673,4.5497,4.5372,4.4794,4.4814,4.5602,4.8078,4.9003,5.0397,5.531,5.7653,5.9481,6.2401,6.4395,6.587,6.6852,6.7914,6.9225,7.0961,7.3783,7.598,7.6454,7.6758,7.6826,7.6555,7.5224,7.354,7.1709,6.9146,6.6735,6.4881,6.3713,6.3079,6.3079,6.3079,6.3079,6.3079,6.3079,6.3079,6.3079,6.3079,6.2869,6.245,6.2869,6.266,6.1822,6.245,6.2271,6.1463,6.1224,6.0745,6.0086,5.9907,5.9548,5.9183,5.9848,6.0243,6.0509,6.1714,6.3163,6.4779,6.6817,6.8306,6.9503,0.0,0.0,0.0,5.2929,0.0,5.2477,5.1925,5.1348,5.0406,4.8931,0.0,0.0,0.0,0.0,4.714,4.7583,4.7154,4.6702,4.6326,4.6301,4.6476,4.6853,4.7179,4.7456,4.7631,4.7832,4.839,4.923,4.9412,5.1697,5.6025,5.797,6.0318,6.2943,6.3145,6.2114,6.0013,5.7739,5.516,5.2514,5.1752,5.0841,5.0017,5.0544,5.0566,5.0144,4.9338,4.8784,4.8243,4.6726,4.6371,4.6331,4.5271,4.4794,4.4568,4.4192,4.4066,4.4471,4.6544,4.6934,4.7827,5.2403,5.421,5.5679,5.887,6.085,6.2401,6.3746,6.4948,6.6242,6.7997,7.0557,7.2976,7.4681,7.4965,7.4965,7.4965,7.4322,7.3144,7.1292,6.9595,6.7708,6.5305,6.429,6.3592,6.3137,6.3079,6.3079,6.3079,6.3079,6.3079,6.3079,6.2869,6.254,6.2091,6.254,6.2181,6.1134,6.2002,6.1822,6.0775,6.0535,6.0206,5.9727,5.9279,5.9099,5.9099,5.9099,5.9368,5.9817,6.0505,6.174,6.3348,6.5418,6.7157,6.8701,5.2929,5.2929,5.2929,5.2929,5.2477,5.195,5.1398,5.082,5.0243,4.969,0.0,0.0,0.0,0.0,0.0,4.728,4.6677,4.6351,4.6326,4.6326,4.6301,4.6301,4.6326,4.6577,4.7068,4.6602,4.6637,4.7191,4.773,4.9827,5.3317,5.449,5.8035,6.3478,6.1562,6.1235,6.1997,6.0458,5.8753,5.6651,5.268,5.1878,5.2963,5.302,5.3382,5.3826,5.374,5.3236,5.223,4.8869,4.7457,4.6678,4.456,4.347,4.2961,4.2961,4.2961,4.3062,0.0,0.0,0.0,4.9973,5.0744,5.157,5.5957,5.7344,5.8434,6.0972,6.2232,6.3548,6.5676,6.72,6.9216,7.2726,7.3363,7.3409,7.3409,7.28,7.1879,7.0482,6.9661,6.8124,6.5436,6.5111,6.4568,6.3164,6.3079,6.3079,6.3079,6.3079,6.3079,6.3049,6.2421,6.2061,6.2032,6.2061,6.1762,6.1074,6.1134,6.0775,6.0057,5.9428,5.9129,5.9099,5.9129,5.9129,5.9129,5.9129,5.9159,5.9249,5.9907,6.1376,6.3158,6.3893,6.6218,6.9055,5.2929,5.2929,5.2929,5.2929,5.2804,5.2528,5.1975,5.1398,5.0845,0.0,0.0,0.0,4.9038,4.8862,4.8661,4.836,4.7782,4.7305,4.6928,4.6527,4.6301,4.6301,4.6702,4.6979,4.7068,4.7966,4.851,4.8692,4.9551,5.0318,5.1081,5.2664,5.4635,5.7065,5.8686,5.9626,5.9957,5.9981,5.8835,5.6937,5.6887,5.6139,5.5135,5.5746,5.5387,5.4482,5.3568,5.3021,5.2399,5.0627,5.0515,5.0479,4.7163,4.4421,4.2439,4.2439,4.2439,4.2564,4.3062,0.0,0.0,0.0,0.0,0.0,5.1148,5.2636,5.4177,5.6045,5.7618,5.9553,6.2378,6.4189,6.6047,6.8533,7.0595,7.1921,7.1921,7.1751,7.1447,7.1094,6.9955,6.8552,6.6751,6.5674,6.4568,6.3164,6.3079,6.3079,6.3079,6.3079,6.2869,6.2391,6.2181,6.1613,6.0655,6.1613,6.1523,6.0386,6.1343,6.1224,6.0086,5.9907,5.9548,5.9129,5.9608,5.9817,5.9817,5.9817,6.0386,6.1283,6.1463,6.1894,6.2607,6.4234,6.4808,6.5231,5.2929,5.2929,5.2929,5.2929,5.2729,5.2477,5.2151,5.1423,5.0795,0.0,0.0,0.0,4.8837,4.9188,4.9188,4.8485,4.8109,4.7682,4.7179,4.6627,4.6301,4.6301,4.6627,4.7004,4.7431,4.847,4.9185,4.966,5.034,5.0624,5.0416,5.1393,5.2713,5.426,5.6021,5.7368,5.8321,5.8979,5.8723,5.7886,5.8446,5.8431,5.8121,5.8565,5.858,5.8127,5.6891,5.6517,5.6165,5.3241,5.1987,5.11,4.8056,4.5762,4.4035,4.3518,4.3284,4.3212,4.3288,4.3489,4.394,4.5045,0.0,0.0,4.8229,4.9387,5.0699,5.2434,5.4093,5.6121,5.9082,6.1111,6.2973,6.5144,6.7557,6.9476,7.0322,7.0402,7.062,7.1222,7.0574,6.9537,6.8206,6.6803,6.5436,6.404,6.3451,6.2959,6.269,6.266,6.2361,6.1702,6.1403,6.1014,6.0505,6.1014,6.0864,6.0086,6.0864,6.0715,5.9668,5.9668,5.9608,5.9548,5.9907,6.0416,6.0924,6.0924,6.1224,6.1702,6.2002,6.2091,6.2295,6.3741,6.4101,6.4293,0.0,5.2929,5.2929,5.2929,5.2528,5.2226,5.2277,5.1322,5.0619,0.0,5.0167,4.9615,4.9188,4.9967,4.9916,4.841,4.8109,4.7782,4.7193,4.6602,4.625,4.6301,4.625,4.6702,4.7707,4.8354,4.9213,5.0135,5.0763,5.0987,5.0823,5.0823,5.1924,5.3823,5.3881,5.5031,5.6944,5.7782,5.8411,5.886,5.8471,5.9458,6.1104,6.1104,6.1792,6.26,6.1433,6.1313,6.1025,5.6147,5.2712,5.0148,4.8395,4.7428,4.6751,4.5687,4.5152,4.4802,4.4251,4.4547,4.5195,4.5899,4.5547,0.0,4.6516,4.7177,4.8052,4.966,5.1107,5.2906,5.5766,5.7948,5.9934,6.1958,6.4162,6.6452,6.8699,6.9121,6.968,7.0916,7.1222,7.0745,6.9313,6.7974,6.6627,6.5219,6.3845,6.278,6.2121,6.2091,6.1762,6.1014,6.0416,6.0356,6.0894,6.0356,6.0086,6.0086,6.0086,5.9787,5.9219,5.9129,5.9458,6.0086,6.0176,6.0924,6.2091,6.2181,6.1852,6.1403,6.1972,6.2211,6.2271,6.2869,6.3815,6.483,5.2929,5.2929,5.2929,5.2929,5.2829,5.2904,5.3331,5.2477,5.1925,5.2377,5.1574,5.1071,5.1423,5.1247,5.0971,5.0645,4.9389,4.836,4.7782,4.6426,4.5849,4.6301,4.5874,4.5949,4.6602,4.9014,5.0103,4.9801,5.23,5.2916,5.1766,5.1766,5.2268,5.3218,5.3708,5.451,5.5688,5.7393,5.7872,5.7603,5.9099,6.0266,6.1104,6.1104,6.0924,6.0625,6.0386,6.0027,5.9434,5.7821,5.5148,5.2354,5.1598,4.9446,4.7304,4.7576,4.7231,4.6676,4.6365,4.7027,4.7308,4.5388,4.6125,0.0,4.5447,4.5531,4.6205,4.6967,4.7675,4.9013,5.1853,5.4402,5.6271,5.7134,6.0027,6.3372,6.7055,6.8503,6.9313,6.9585,7.062,7.0745,6.9313,6.7974,6.6627,6.5219,6.3845,6.278,6.2121,6.2091,6.1553,6.0326,6.0146,5.9907,5.9488,5.9877,6.0086,6.0086,6.0086,6.0027,5.9877,5.9338,5.9458,6.0116,6.0685,6.1373,6.2121,6.266,6.281,6.272,6.2839,6.2869,6.2899,6.3019,6.2892,6.2924,5.2929,5.2929,5.2929,5.2929,5.2929,5.3105,5.3632,5.2804,5.2402,5.3206,5.2603,5.1875,5.1322,5.1272,5.0946,5.0092,4.8987,4.7983,4.7179,4.61,4.5472,4.5472,4.5472,4.5874,4.6702,4.8976,5.0299,5.0546,5.2661,5.3308,5.2599,5.2599,5.2776,5.3128,5.3774,5.428,5.482,5.6795,5.7423,5.7244,5.8919,6.0206,6.1104,6.1104,6.1104,6.1104,6.1104,6.0446,5.9488,5.883,5.7476,5.5819,5.423,5.2764,5.1428,5.0464,4.983,4.9333,4.8627,4.9002,4.9171,4.7412,4.739,0.0,0.0,4.4844,4.4895,4.5723,4.5642,4.6425,4.9772,5.0963,5.2463,5.5526,5.7491,5.9802,6.3193,6.5701,6.7419,6.8157,6.883,6.9217,6.9217,6.7368,6.5598,6.4209,6.3478,6.266,6.1642,6.1613,6.0984,5.9638,5.9608,5.9608,5.9608,5.9608,5.9757,6.0086,5.9757,5.9608,5.9578,5.9249,5.9668,6.0625,6.0954,6.1672,6.26,6.2929,6.3079,6.3079,6.3079,6.3079,6.3079,6.3079,6.2869,6.2744,5.2929,5.2929,5.2929,5.2929,5.2929,5.3105,5.3632,5.2879,5.2689,5.3891,5.3853,5.3078,5.1372,5.1347,5.0861,4.9428,4.8234,4.738,4.6828,4.5773,4.4995,4.4644,4.497,4.5573,4.6476,4.8239,4.9694,5.0738,5.1998,5.2721,5.2995,5.2995,5.3144,5.3384,5.3832,5.4221,5.47,5.6256,5.7064,5.7393,5.862,5.9847,6.0924,6.1074,6.1433,6.1882,6.1762,6.1104,6.0146,5.9368,5.9189,5.889,5.6645,5.6149,5.5907,5.4013,5.3217,5.2714,5.1513,5.171,5.1847,5.0166,4.9239,4.8163,0.0,0.0,0.0,4.4895,4.4267,4.4592,4.7794,4.7973,4.9106,5.3554,5.5212,5.6654,5.8762,6.1898,6.4537,6.6202,6.6774,6.7494,6.8699,6.6321,6.4292,6.3164,6.2839,6.2241,6.1164,6.1104,6.0505,5.9159,5.9099,5.9368,5.9877,5.9368,5.9368,5.9877,5.9368,5.9099,5.9099,5.9099,5.9847,6.1104,6.1104,6.1852,6.3079,6.3079,6.3079,6.3079,6.3079,6.3079,6.3079,6.3079,6.3079,6.3079,5.2929,5.2929,5.2929,5.2929,5.2929,5.3105,5.3632,5.3206,5.3376,5.4994,5.5972,5.5925,5.4325,5.2817,5.1687,5.1053,4.8234,4.7054,4.841,4.5673,4.4192,4.4593,4.4217,4.4041,4.4166,4.6152,4.7566,4.8314,4.9807,5.113,5.2306,5.2306,5.2965,5.4072,5.3533,5.4281,5.5957,5.6248,5.6944,5.8082,5.88,5.9548,6.0266,6.0894,6.1164,6.1134,6.0535,6.0595,6.0805,5.9548,5.9488,5.9817,5.8949,5.8304,5.7874,5.8226,5.788,5.7183,5.6326,5.6852,5.6649,5.2458,5.1907,5.1284,4.6882,0.0,4.492,4.3539,0.0,4.3344,4.4244,0.0,0.0,4.7689,5.1959,5.5282,5.5481,5.7996,6.0721,6.3233,6.5192,6.6593,6.7355,6.4915,6.3248,6.3104,6.2002,6.1283,6.1134,6.1104,6.0505,5.9159,5.9099,5.9129,5.9219,5.9129,5.9129,5.9219,5.9129,5.9099,5.9099,5.9099,5.9847,6.1104,6.1104,6.1852,6.3079,6.3079,6.3079,6.3079,6.3079,6.3079,6.3079,6.3079,6.3079,6.3079,5.2929,5.3674,5.4263,5.3886,5.3875,5.4363,5.5816,5.6851,5.7251,5.699,5.7944,5.8136,5.6786,5.4484,5.2855,5.2426,4.9494,4.7631,4.7355,4.6024,4.5221,4.5121,4.4593,4.4593,4.5246,4.674,4.7809,4.8452,4.9989,5.1065,5.1618,5.1618,5.2336,5.3593,5.3324,5.4281,5.6248,5.6555,5.7483,5.871,5.9009,5.9488,6.0146,6.0835,6.1583,6.2121,6.1074,6.1104,6.1493,6.0116,6.0386,6.1014,5.9548,5.9727,6.0266,5.9368,5.9189,5.911,5.836,5.8493,5.8073,5.4769,5.3724,5.2368,4.7841,4.6256,4.5371,4.4162,0.0,0.0,0.0,0.0,0.0,0.0,4.9599,5.1961,5.3579,5.5463,5.7823,6.094,6.1445,6.1751,6.243,6.2548,6.2226,6.1395,6.0835,6.0356,5.9967,6.0326,6.0086,5.9129,5.9099,5.9099,5.9099,5.871,5.874,5.9099,5.871,5.874,5.9099,5.9099,5.9847,6.1104,6.1104,6.1852,6.3079,6.3079,6.3079,6.3079,6.3079,6.3079,6.3079,6.3079,6.3079,6.3079,5.401,5.464,5.5063,5.48,5.4872,5.5589,5.7303,5.8951,5.9687,5.8808,5.9549,5.9871,5.9136,5.6734,5.5095,5.4746,5.1706,4.9249,4.7962,4.6869,4.5999,4.5271,4.4844,4.4869,4.5372,4.6694,4.7669,4.8342,4.9869,5.0959,5.1498,5.1319,5.2007,5.3473,5.3473,5.4581,5.6466,5.7304,5.8321,5.9398,5.9578,5.9937,6.0416,6.0924,6.1942,6.2929,6.1792,6.1792,6.2181,6.1014,6.1403,6.2121,6.0655,6.1074,6.1822,6.0356,6.0266,6.0505,5.9847,5.9787,5.9245,5.6472,5.4848,5.2883,4.8845,4.7129,4.6163,4.5527,4.4529,0.0,0.0,0.0,4.4896,4.7262,0.0,4.9643,5.2533,5.3582,5.5346,5.8638,5.88,5.886,5.9338,6.0418,6.0791,6.0166,5.9428,5.9039,5.9099,5.9398,5.9398,5.9129,5.9099,5.9009,5.883,5.8351,5.8351,5.883,5.8351,5.8471,5.9099,5.9279,5.9907,6.0835,6.1044,6.1642,6.254,6.272,6.281,6.2839,6.3019,6.3079,6.3079,6.3079,6.3079,6.3079,5.6667,5.5633,5.4721,5.5248,5.5699,5.6218,5.6913,5.7902,5.8977,6.0275,6.0792,6.1197,6.1562,5.9908,5.8791,5.8903,5.4808,5.2095,5.1918,4.841,4.5824,4.4694,4.4644,4.4141,4.3112,4.4996,4.6357,4.715,4.8567,5.0243,5.2157,5.1498,5.2276,5.4192,5.4192,5.5269,5.7154,5.8471,5.9428,6.0116,6.0775,6.1074,6.1074,6.1104,6.1942,6.2989,6.2301,6.248,6.2929,6.2271,6.248,6.3019,6.2959,6.254,6.2091,6.2032,6.2002,6.1882,6.1224,6.1523,6.1074,5.7132,5.5119,5.3184,4.9918,4.8238,4.7411,4.7438,4.7539,4.7732,4.7782,4.7355,4.7004,4.714,4.787,0.0,0.0,5.2363,5.314,5.5982,5.8501,6.0027,6.0057,5.8973,5.8764,5.9997,5.7723,5.7124,5.9009,5.853,5.8471,5.9069,5.9099,5.88,5.8171,5.8141,5.8141,5.8141,5.8141,5.8471,5.9129,5.9757,6.0086,6.0146,6.0835,6.1134,6.1224,6.1852,6.2121,6.2181,6.2839,6.3079,6.3079,6.3079,6.3079,6.3079,5.7602,5.741,5.7103,5.6908,5.6996,5.7355,5.8039,5.9684,6.1495,6.3268,6.3594,6.4099,6.5105,6.2864,6.1167,6.0846,5.7605,5.4743,5.281,5.1485,4.9889,4.7995,4.7556,4.6853,4.5748,4.7853,4.8545,4.765,5.0043,5.1517,5.2187,5.1977,5.2695,5.4221,5.467,5.5688,5.7184,5.853,5.9757,6.0835,6.1493,6.2032,6.2331,6.1433,6.1672,6.245,6.266,6.2899,6.3049,6.281,6.2899,6.2989,6.257,6.257,6.257,6.1702,6.2061,6.26,6.1942,6.2241,6.2002,5.889,5.7107,5.5129,5.1338,5.0507,5.0288,4.9392,5.0333,5.1287,5.1287,5.0525,4.9768,4.9403,4.8652,4.8718,0.0,5.1116,5.2309,5.462,5.6436,5.7334,5.6885,5.6825,5.7004,5.7453,5.5867,5.5538,5.7094,5.7334,5.7752,5.8441,5.889,5.9009,5.877,5.8351,5.8351,5.877,5.8321,5.8471,5.9129,5.9338,5.9668,6.0086,6.0326,6.0685,6.1164,6.1822,6.2091,6.2151,6.281,6.3079,6.3079,6.3079,6.3079,6.3079,5.9371,5.9273,5.8899,5.8348,5.861,5.9069,5.9478,6.1223,6.3079,6.4814,6.5024,6.5533,6.6849,6.4831,6.322,6.2871,6.0337,5.7595,5.4895,5.386,5.2376,5.0243,4.9254,4.8259,4.7093,4.9244,4.9662,4.8257,5.0991,5.2546,5.2905,5.2665,5.3264,5.4581,5.5239,5.6107,5.7214,5.9039,6.0176,6.0775,6.1224,6.1912,6.26,6.1523,6.1792,6.281,6.2989,6.3079,6.3079,6.3079,6.3079,6.2989,6.257,6.257,6.257,6.1702,6.2061,6.26,6.1942,6.2241,6.2151,5.9727,5.8441,5.7004,5.395,5.3675,5.3783,5.2963,5.3861,5.4793,5.4793,5.3812,5.2789,5.2009,5.0571,4.9652,0.0,5.1337,5.2665,5.3713,5.5029,5.5927,5.6196,5.6196,5.6218,5.6218,5.473,5.4311,5.5418,5.6077,5.6825,5.7723,5.8411,5.877,5.877,5.8351,5.8351,5.874,5.8321,5.8471,5.9129,5.9338,5.9548,5.9757,5.9997,6.0206,6.0475,6.1373,6.1732,6.1822,6.272,6.3079,6.3079,6.3079,6.3079,6.3079,6.1955,6.1104,6.009,5.9653,6.0408,6.1044,6.1104,6.2181,6.3468,6.4844,6.5084,6.5592,6.6849,6.5832,6.4994,6.4994,6.2873,6.0574,5.8205,5.5566,5.3359,5.1591,4.9984,4.8561,4.7428,4.9179,4.9769,4.9138,5.1431,5.3198,5.4281,5.3563,5.3922,5.5179,5.5897,5.6526,5.7214,5.9907,6.0715,6.0146,6.0176,6.0984,6.2061,6.1403,6.2331,6.3917,6.3288,6.3079,6.3079,6.3079,6.3079,6.3079,6.3079,6.266,6.2121,6.2121,6.2121,6.2002,6.1343,6.1642,6.1672,5.9727,5.9189,5.88,5.7483,5.7478,5.7715,5.7715,5.8047,5.823,5.8174,5.7169,5.5917,5.4643,5.3315,5.2073,5.1093,5.27,5.3803,5.3294,5.4281,5.5777,5.7752,5.6795,5.6128,5.6017,5.4192,5.3384,5.4132,5.482,5.5748,5.7004,5.7782,5.8171,5.8171,5.8171,5.8171,5.8171,5.8171,5.8501,5.9129,5.9757,5.9697,5.9129,5.9757,5.9697,5.9249,6.0565,6.1134,6.1283,6.257,6.3079,6.3079,6.3079,6.3079,6.3079,6.2782,6.2151,6.141,6.0805,6.0079,5.9967,6.0954,6.1403,6.245,6.4665,6.5892,6.661,6.6939,6.6251,6.5353,6.4336,6.3296,6.188,5.9996,5.9152,5.7836,5.5717,5.4421,5.3022,5.1544,5.1747,5.2044,5.223,5.259,5.3798,5.5658,5.4491,5.4132,5.4521,5.6137,5.6705,5.6585,5.9219,6.0535,6.0894,6.1373,6.2091,6.275,6.2091,6.275,6.3917,6.3288,6.3079,6.3079,6.3079,6.3079,6.3079,6.3079,6.2959,6.272,6.2241,6.245,6.269,6.2032,6.2331,6.26,6.1583,6.0565,5.9608,5.877,5.9011,5.9448,5.9448,6.0701,6.1498,6.05,5.8984,5.7219,5.5054,5.2724,5.101,5.0363,5.0817,5.187,5.3743,5.2935,5.3025,5.5029,5.491,5.4491,5.3982,5.2576,5.2217,5.3384,5.4551,5.5568,5.6376,5.7992,5.886,5.886,5.886,5.886,5.886,5.886,5.8949,5.9099,5.9279,5.9249,5.9129,5.9279,5.9548,5.9907,6.0745,6.1403,6.1942,6.275,6.3079,6.3079,6.3079,6.3079,6.3079,6.3079,6.278,6.2241,6.1283,6.0954,6.1194,6.2211,6.2151,6.281,6.5144,6.5862,6.6011,6.5712,6.5353,6.4725,6.3677,6.3288,6.2553,6.1292,6.0785,5.9829,5.8292,5.6894,5.5307,5.3382,5.3229,5.3235,5.3389,5.3107,5.4086,5.6188,5.5119,5.464,5.47,5.6077,5.6645,5.6705,5.877,6.0565,6.1942,6.1433,6.1972,0.0,6.2361,6.272,6.3558,6.3199,6.3079,6.3079,6.3079,6.3079,6.3079,6.3079,6.3079,6.3019,6.263,6.278,6.2989,6.263,6.278,6.2929,6.2271,6.1732,6.1224,6.0565,6.0924,6.1403,6.1403,6.2301,6.275,6.1732,6.0252,5.8393,5.5816,5.3656,5.2105,5.1511,5.1469,5.2067,5.3593,5.3294,5.3294,5.4132,5.3414,5.2995,5.3174,5.2217,5.1858,5.2306,5.4132,5.5359,5.5718,5.7663,5.88,5.9099,5.9398,5.9398,5.9099,5.9099,5.9099,5.9099,5.9099,5.9099,5.9129,5.9398,5.9727,6.0146,6.1134,6.1762,6.2151,6.281,6.3079,6.3079,6.3079,6.3079,6.3079,6.2959,6.3019,6.269,6.1463,6.2271,6.3348,6.4126,6.3797,6.4066,6.5772,6.5592,6.4994,6.4216,6.4066,6.3737,6.3139,6.3079,6.2839,6.2271,6.1322,6.0549,6.0,5.8438,5.6706,5.4744,5.433,5.4125,5.4099,5.3619,5.44,5.6286,5.5448,5.5119,5.5209,5.5777,5.6436,5.7184,5.853,6.0446,6.2421,6.0835,6.1313,6.2899,6.2301,6.251,6.3079,6.3079,6.3079,6.3079,6.3079,6.3079,6.3079,6.3079,6.3079,6.3079,6.3079,6.3079,6.3079,6.3079,6.3079,6.2929,6.2361,6.26,6.281,6.2331,6.26,6.2959,6.2959,6.2959,6.269,6.1852,6.0475,5.868,5.6406,5.494,5.3922,5.3503,5.3384,5.3384,5.3563,5.4521,0.0,5.4281,5.2725,5.2127,5.3114,5.2576,5.1947,5.1379,5.3713,5.5089,5.5179,5.7094,5.8471,5.9219,5.9727,5.9727,5.9219,5.9129,5.9099,5.9099,5.9099,5.9099,5.9129,5.9787,6.0146,6.0326,6.1583,6.2151,6.2271,6.2839,6.3079,6.3079,6.3079,6.3079,6.3079,6.2361,6.272,6.2839,6.2061,6.257,6.3677,6.5383,6.5562,6.5622,6.5951,6.637,6.6191,6.4994,6.4336,6.3737,6.3139,6.3079,6.3019,6.2899,6.2758,6.2584,6.2465,6.0845,5.9765,5.9347,5.6987,5.6381,5.7623,5.5566,5.5329,5.6885,5.5179,5.467,5.5209,5.5299,5.6017,5.7184,5.853,5.9368,5.9877,6.0625,6.1463,6.2241,6.2151,6.251,6.3079,6.3079,6.3079,6.3079,6.3079,6.3079,6.3079,6.3079,6.3079,6.3079,6.3079,6.3079,6.3079,6.3079,6.3079,6.3049,6.2929,6.26,6.2391,6.281,6.257,6.2271,6.2271,6.2271,6.1732,5.9967,5.7663,5.5897,5.5448,5.4221,5.3713,5.47,5.4371,5.4431,5.5508,5.5388,5.494,5.4281,5.4371,5.4132,5.3264,5.2576,5.2157,5.2037,5.3533,5.464,5.5179,5.7094,5.871,5.9907,5.9488,5.9488,5.9907,5.9368,5.9099,5.9099,5.9099,5.9099,5.9129,5.9787,6.0416,6.0984,6.1792,6.2421,6.2929,6.3019,6.3079,6.3079,6.3079,6.3079,6.3079,6.266,6.26,6.257,6.26,6.3438,6.4515,6.5802,6.658,6.6789,6.6101,6.5383,6.4725,6.4066,6.3707,6.3408,6.3109,6.3079,6.3079,6.3079,6.3079,6.3079,6.3079,6.2292,6.1437,6.054,5.8526,5.767,5.803,5.5873,5.525,5.6077,5.5149,5.47,5.47,5.5388,5.6406,5.7693,5.868,5.9518,6.0236,6.1224,6.2032,6.26,6.26,6.281,6.3079,6.3079,6.3079,6.3079,6.3079,6.3079,6.3079,6.3079,6.3079,6.3079,6.3079,6.3079,6.3079,6.3079,6.3079,6.2989,6.266,6.2331,6.2091,6.2061,6.1822,6.1583,6.1583,6.1583,6.1074,5.9428,5.7513,5.6286,5.6645,5.5867,5.5568,5.6555,5.6137,5.5807,5.6188,5.5598,5.5059,5.476,5.4999,5.4341,5.2306,5.1858,5.1678,5.1678,5.2965,5.4132,5.5149,5.6765,5.8381,6.0057,5.9757,5.9757,6.0086,5.9428,5.9099,5.9099,5.9099,5.9279,5.9668,6.0326,6.1014,6.1672,6.2331,6.278,6.3079,6.3079,6.3079,6.3079,6.3079,6.3079,6.3079,6.3079,6.278,6.266,6.3199,6.4366,6.5413,6.5922,6.6999,6.7448,6.655,6.4725,6.3498,6.3498,6.3258,6.3079,6.3079,6.3079,6.3079,6.3079,6.3079,6.3079,6.3079,6.3079,6.2497,6.105,5.98,5.8812,5.7914,5.6171,5.519,5.497,5.497,5.464,5.4042,5.5359,5.6615,5.7752,5.856,5.9757,6.1164,6.1822,6.248,6.3079,6.3079,6.3079,6.3079,6.3079,6.3079,6.3079,6.3079,6.3079,6.3079,6.3079,6.3079,6.3079,6.3079,6.3079,6.3079,6.3079,6.3079,6.2959,6.2421,6.2091,6.1822,6.1583,6.1194,6.0954,6.1074,6.0894,6.0326,5.9129,5.8141,5.7663,5.8052,5.7782,5.7723,5.8261,5.7992,5.7393,5.6466,5.6166,5.5628,5.464,5.482,5.3892,5.1199,5.1259,5.1498,5.1618,5.2486,5.3593,5.494,5.6346,5.7992,5.9847,5.9877,5.9937,6.0086,5.9428,5.9099,5.9099,5.9249,5.9608,6.0146,6.0954,6.1702,6.2331,6.2869,6.3079,6.3079,6.3079,6.3079,6.3079,6.3079,6.3279,6.3535,6.3079,6.3468,6.3827,6.3887,6.5024,6.5951,6.6011,6.661,6.7238,6.7717,6.6071,6.4844,6.4844,6.3797,6.3079,6.3079,6.3079,6.3079,6.3079,6.3079,6.3079,6.3079,6.3079,6.3021,6.2875,6.1535,6.0253,5.8971,5.757,5.6034,5.4311,5.4311,5.3952,5.3324,5.47,5.5688,5.6436,5.7693,5.9338,6.1164,6.1822,6.248,6.3079,6.3079,6.3079,6.3079,6.3079,6.3079,6.3079,6.3079,6.3079,6.3079,6.3079,6.3079,6.3079,6.3079,6.3079,6.3079,6.3079,6.3079,6.3049,6.2989,6.2091,6.1493,6.263,6.1493,6.0356,6.0984,6.0146,5.9069,5.8351,5.859,5.874,5.8201,5.856,5.8949,5.9009,5.9458,5.9099,5.7244,5.8022,5.7094,5.2905,5.3593,5.3204,5.0495,5.1439,5.2366,5.2965,5.2546,5.2905,5.4251,5.6107,5.7782,5.9189,5.9189,5.9488,6.0086,5.9428,5.9099,5.9129,5.9727,6.0027,6.0146,6.1433,6.2391,6.2989,6.3049,6.3079,6.3079,6.3079,6.3079,6.3079,6.3079,6.3845,6.4923,6.4246,6.4126,6.4246,6.5054,6.4994,6.5084,6.5892,6.5892,6.5922,6.6161,6.5533,6.4874,6.4455,6.3617,6.3079,6.3079,6.3079,6.3079,6.3079,6.3079,6.3079,6.3079,6.3079,6.3079,6.3079,6.1792,6.0446,5.9099,5.7752,5.6107,5.4221,5.461,5.485,5.505,5.5927,5.6705,5.7453,5.9189,6.0386,6.1194,6.2271,6.2839,6.3079,6.3079,6.3079,6.3079,6.3079,6.3079,6.3079,6.3079,6.3079,6.3079,6.3079,6.3079,6.3079,6.3079,6.3079,6.3079,6.3079,6.3079,6.3079,6.3079,6.2091,6.1253,6.1792,6.0655,5.9578,5.9847,5.9488,5.9009,5.877,5.8919,5.9279,5.9817,6.0146,6.0595,6.1373,6.1044,6.0116,5.8501,5.7393,5.5867,5.3623,5.3174,5.3054,5.3204,5.2217,5.1738,5.2007,5.2127,5.2815,5.4162,5.5718,5.7363,5.9099,5.9099,5.9428,6.0086,5.9428,5.9308,5.9697,5.9967,6.0535,6.1343,6.2271,6.2839,6.3079,6.3079,6.3079,6.3079,6.3079,6.3079,6.3079,6.3079,6.3958,6.5219,6.5024,6.4784,6.4904,6.5832,6.5233,6.4844,6.5592,6.5323,6.4964,6.4755,6.4725,6.4545,6.4066,6.3438,6.3079,6.3079,6.3079,6.3079,6.3079,6.3079,6.3079,6.3079,6.3079,6.2989,6.278,6.1702,6.0446,5.9099,5.7752,5.6196,5.4521,5.5179,5.5837,5.6466,5.7304,5.8052,5.88,6.0416,6.1343,6.1762,6.272,6.3079,6.3079,6.3079,6.3079,6.3079,6.3079,6.3079,6.3079,6.3079,6.3079,6.3079,6.3079,6.3079,6.3079,6.3079,6.3079,6.3079,6.3079,6.3079,6.3079,6.3079,6.2241,6.1463,6.1642,6.0505,5.9338,5.9129,5.9099,5.9099,5.9099,5.9428,5.9937,6.0685,6.1313,6.1822,6.2151,6.1732,6.0685,5.874,5.6885,5.5269,5.4042,5.2875,5.2785,5.4192,5.2755,5.1887,5.2097,5.2157,5.2815,5.4162,5.5658,5.7214,5.88,5.9009,5.9338,5.9787,5.9518,5.9638,6.0086,6.0505,6.1283,6.2421,6.2869,6.3079,6.3079,6.3079,6.3079,6.3079,6.3079,6.3079,6.3079,6.3079,6.3958,6.5219,6.5024,6.5533,6.5981,6.6011,6.6011,6.5772,6.5144,6.5024,6.4784,6.4096,6.4006,6.4006,6.4006,6.3438,6.3079,6.3079,6.3079,6.3079,6.3079,6.3079,6.3079,6.3079,6.3079,6.278,6.2121,6.1463,6.0446,5.9099,5.7752,5.6436,5.5179,5.5837,5.6496,5.7154,5.8471,5.9458,6.0116,6.0805,6.1852,6.3049,6.3079,6.3079,6.3079,6.3079,6.3079,6.3079,6.3079,6.3079,6.3079,6.3079,6.3079,6.3079,6.3079,6.3079,6.3079,6.3079,6.3079,6.3079,6.3079,6.3079,6.3079,6.3079,6.257,6.2241,6.2899,6.1523,5.9877,5.9249,5.9099,5.9099,5.9099,6.0176,6.0864,6.0206,6.1762,6.2361,6.0386,6.1253,6.0835,5.7513,5.7094,5.6047,5.3443,5.2606,5.2217,5.2247,5.2815,5.3443,5.4132,5.2935,5.2815,5.4162,5.6077,5.7423,5.8141,5.877,5.9099,5.9129,5.9757,6.0086,6.0116,6.1463,6.245,6.3079,6.3079,6.3079,6.3079,6.3079,6.3079,6.3079,6.3079,6.3079,6.3079,6.3079,6.3958,6.5111,6.5114,6.5203,6.5353,6.5353,6.4964,6.4575,6.4366,6.3977,6.3617,6.3408,6.3378,6.3378,6.3378,6.3199,6.3079,6.3079,6.3079,6.3079,6.3079,6.3079,6.3079,6.3079,6.266,6.2301,6.2091,6.0984,6.0206,5.9787,5.889,5.8022,5.7214,5.7872,5.8291,5.853,5.9877,6.0835,6.1493,6.2181,6.269,6.3079,6.3079,6.3079,6.3079,6.3079,6.3079,6.3079,6.3079,6.3079,6.3079,6.3079,6.3079,6.3079,6.3079,6.3079,6.3079,6.3079,6.3079,6.3079,6.3079,6.3079,6.3079,6.3079,6.26,6.2151,6.2361,6.1194,6.0027,5.9817,5.9787,5.9787,5.9787,6.0864,6.1702,6.1493,6.2361,6.269,6.1613,6.1044,5.9997,5.8022,5.7004,5.5777,5.4042,5.3683,5.3743,5.4192,5.3593,5.3264,5.3503,5.4401,5.491,5.488,5.6765,5.7902,5.8112,5.9219,5.9787,5.9787,6.0475,6.1014,6.1493,6.2361,6.2869,6.3079,6.3079,6.3079,6.3079,6.3079,6.3079,6.3079,6.3079,6.3079,6.3079,6.3079,6.3958,6.5219,6.5203,6.5233,6.5233,6.4725,6.4276,6.3917,6.3677,6.3318,6.3079,6.3079,6.3079,6.3079,6.3079,6.3079,6.3079,6.3079,6.3079,6.3079,6.3079,6.3079,6.3079,6.3079,6.269,6.2361,6.2091,6.1283,6.0595,6.0086,5.9428,5.889,5.853,5.9428,5.9997,6.0266,6.1373,6.2091,6.248,6.2899,6.3079,6.3079,6.3079,6.3079,6.3079,6.3079,6.3079,6.3079,6.3079,6.3079,6.3079,6.3079,6.3079,6.3079,6.3079,6.3079,6.3079,6.3079,6.3079,6.3079,6.3079,6.3079,6.3079,6.3079,6.278,6.2391,6.2151,6.1433,6.0775,6.0535,6.0475,6.0475,6.0475,6.1373,6.2091,6.2091,6.245,6.248,6.1822,6.0775,5.9608,5.8291,5.7393,5.6496,5.5388,5.5089,5.5119,5.5538,5.5239,5.482,5.4341,5.5269,5.5957,5.6286,5.7723,5.862,5.886,5.9937,6.0326,6.0086,6.1044,6.1822,6.248,6.2899,6.3079,6.3079,6.3079,6.3079,6.3079,6.3079,6.3079,6.3079,6.3079,6.3079,6.3079,6.3079,6.3649,6.4457,6.5203,6.5443,6.5473,6.4156,6.3947,6.3737,6.3169,6.3079,6.3079,6.3079,6.3079,6.3079,6.3079,6.3079,6.3079,6.3079,6.3079,6.3079,6.3079,6.3079,6.3079,6.3079,6.3019,6.272,6.2121,6.2002,6.1343,6.0086,5.9518,5.9249,5.9279,6.0565,6.1493,6.2121,6.278,6.3079,6.3079,6.3079,6.3079,6.3079,6.3079,6.3079,6.3079,6.3079,6.3079,6.3079,6.3079,6.3079,6.3079,6.3079,6.3109,6.3139,6.3079,6.3109,6.3139,6.3079,6.3079,6.3079,6.3079,6.3079,6.3079,6.3079,6.3079,6.2929,6.2301,6.2121,6.1912,6.1313,6.1194,6.1194,6.1194,6.1732,6.2181,6.2181,6.2121,6.1882,6.1194,6.0475,5.9548,5.8261,5.8112,5.7842,5.7154,5.6615,5.6316,5.6316,5.7393,5.7573,5.6436,5.5807,5.6286,5.8141,5.889,5.9548,6.0146,6.0835,6.0894,6.0296,6.1553,6.248,6.3079,6.3079,6.3079,6.3079,6.3079,6.3079,6.3079,6.3079,6.3079,6.3079,6.3079,6.3079,6.3079,6.3079,6.3079,6.3137,6.4515,6.4366,6.4216,6.3438,6.3288,6.3258,6.3109,6.3079,6.3079,6.3079,6.3079,6.3079,6.3079,6.3079,6.3079,6.3079,6.3079,6.3079,6.3079,6.3079,6.3079,6.3079,6.26,6.2241,6.2091,6.1104,6.0416,6.0086,6.0446,6.0655,6.0655,6.1493,6.1942,6.2121,6.278,6.3079,6.3079,6.3079,6.3079,6.3079,6.3079,6.3079,6.3079,6.3079,6.3079,6.3079,6.3079,6.3079,6.3079,6.3079,6.3378,6.3707,6.3228,6.3408,6.3677,6.3228,6.3079,6.3079,6.3079,6.3079,6.3079,6.3079,6.3079,6.3049,6.2869,6.245,6.2061,6.1912,6.1852,6.1852,6.1852,6.2391,6.2839,6.2839,6.2421,6.1882,6.1194,6.0086,5.9039,5.8231,5.8112,5.7842,5.7154,5.7423,5.7663,5.7663,5.7453,5.7663,5.8381,5.8261,5.8381,5.886,6.0027,6.0715,6.0864,6.1523,6.2032,6.2361,6.269,6.2929,6.3079,6.3079,6.3079,6.3079,6.3079,6.3079,6.3079,6.3079,6.3079,6.3079,6.3079,6.3079,6.3079,6.3079,6.3079,6.3222,6.4725,6.4485,6.4186,6.3228,6.3079,6.3079,6.3079,6.3079,6.3079,6.3079,6.3079,6.3079,6.3079,6.3079,6.3079,6.3079,6.3079,6.3079,6.3079,6.3079,6.3079,6.3079,6.245,6.2091,6.2091,6.1074,6.0416,6.0086,6.0775,6.1104,6.1134,6.2091,6.254,6.257,6.2929,6.3079,6.3079,6.3079,6.3079,6.3079,6.3079,6.3079,6.3079,6.3079,6.3079,6.3079,6.3079,6.3079,6.3079,6.3079,6.3498,6.3947,6.3588,6.3737,6.3947,6.3588,6.3288,6.3079,6.3079,6.3079,6.3079,6.3079,6.3079,6.3079,6.3079,6.281,6.254,6.254,6.254,6.254,6.254,6.2839,6.2989,6.266,6.2061,6.1403,6.0745,5.9757,5.8979,5.862,5.883,5.886,5.8501,5.9099,5.9249,5.862,5.88,5.8979,5.9099,5.9967,6.0326,6.0027,6.1014,6.1553,6.1553,6.1912,6.2421,6.3079,6.3079,6.3079,6.3079,6.3079,6.3079,6.3079,6.3079,6.3079,6.3079,6.3079,6.3079,6.3079,6.3079,6.3079,6.3079,6.3079,6.3258,6.3614,6.5293,6.5024,6.4605,6.3318,6.3079,6.3079,6.3079,6.3079,6.3079,6.3079,6.3079,6.3079,6.3079,6.3079,6.3079,6.3079,6.3079,6.3079,6.3079,6.3079,6.3079,6.3079,6.245,6.2091,6.2091,6.1433,6.0775,6.0086,6.0775,6.1164,6.1283,6.2421,6.2989,6.3079,6.3079,6.3079,6.3079,6.3079,6.3079,6.3079,6.3079,6.3079,6.3079,6.3169,6.3228,6.3228,6.3318,6.3378,6.3378,6.3378,6.3767,6.4276,6.4186,6.4216,6.4246,6.4066,6.3617,6.3199,6.3109,6.3079,6.3079,6.3079,6.3079,6.3079,6.3079,6.3079,6.3079,6.3079,6.3079,6.3079,6.3079,6.3079,6.2899,6.2331,6.1613,6.0894,6.0326,5.9578,5.9129,5.9249,5.9727,6.0116,6.0236,6.0775,6.0685,5.9638,6.0535,6.0655,5.9608,6.1164,6.1852,6.1283,6.1912,6.2241,6.2241,6.2241,6.254,6.3079,6.3079,6.3079,6.3079,6.3079,6.3079,6.3079,6.3079,6.3079,6.3079,6.3079,6.3079,6.3079,6.3169,6.3228,6.3228,6.3318,6.3707,6.4156,6.5293,6.5024,6.4605,6.3318,6.3079,6.3079,6.3079,6.3079,6.3079,6.3079,6.3079,6.3079,6.3079,6.3079,6.3079,6.3079,6.3079,6.3079,6.3079,6.3079,6.3079,6.3079,6.245,6.2091,6.2091,6.1433,6.0775,6.0086,6.0775,6.1403,6.1942,6.2151,6.254,6.3079,6.3079,6.3079,6.3079,6.3079,6.3079,6.3079,6.3079,6.3079,6.3139,6.3647,6.3857,6.3917,6.4515,6.4725,6.4725,6.4725,6.5144,6.5592,6.5054,6.5233,6.5473,6.4336,6.3917,6.3737,6.3228,6.3079,6.3079,6.3079,6.3079,6.3079,6.3079,6.3079,6.3079,6.3079,6.3079,6.3079,6.3079,6.3079,6.3049,6.2929,6.1912,6.1074,6.0954,5.9877,5.9308,5.9877,6.0027,6.0326,6.0894,6.1044,6.1253,6.1613,6.1313,6.1253,6.1613,6.1942,6.2061,6.1942,6.26,6.2929,6.2929,6.2929,6.2989,6.3079,6.3079,6.3079,6.3079,6.3079,6.3079,6.3079,6.3079,6.3079,6.3079,6.3079,6.3079,6.3139,6.3647,6.3857,6.3917,6.4515,6.4784,6.4874,6.5742,6.5263,6.4725,6.3737,6.3288,6.3079,6.3079,6.3079,6.3079,6.3079,6.3079,6.3079,6.3079,6.3079,6.3079,6.3079,6.3079,6.3079,6.3079,6.3079,6.2929,6.257,6.1912,6.1224,6.0505,6.0176,6.0057,6.0086,6.0775,6.1433,6.2121,6.245,6.278,6.3079,6.3079,6.3079,6.3079,6.3079,6.3079,6.3079,6.3079,6.3258,6.3617,6.3887,6.4455,6.5114,6.5443,6.5562,6.5562,6.5562,6.5772,6.5951,6.5652,6.5772,6.5892,6.5263,6.4336,6.3438,6.3169,6.3079,6.3079,6.3079,6.3079,6.3079,6.3079,6.3079,6.3079,6.3079,6.3079,6.3079,6.3079,6.3079,6.2959,6.26,6.1732,6.0984,6.0625,6.0027,5.9727,6.0057,6.0715,6.1283,6.1613,6.1972,6.2151,6.2091,6.1822,6.1762,6.2091,6.2091,6.2271,6.26,6.2929,6.3079,6.3079,6.3079,6.3079,6.3079,6.3079,6.3079,6.3079,6.3079,6.3079,6.3079,6.3079,6.3258,6.3558,6.3558,6.3797,6.4156,6.4455,6.4545,6.4605,6.4904,6.5263,6.5562,6.5922,6.5383,6.4755,6.3917,6.3378,6.3079,6.3079,6.3079,6.3079,6.3079,6.3079,6.3079,6.3079,6.3079,6.3079,6.3079,6.3079,6.3079,6.3079,6.3079,6.278,6.2121,6.1313,6.0326,5.9129,5.9249,5.9668,6.0326,6.1014,6.1672,6.2331,6.2839,6.3079,6.3079,6.3079,6.3079,6.3079,6.3079,6.3079,6.3079,6.3079,6.3438,6.4006,6.4186,6.4964,6.6041,6.634,6.637,6.6251,6.64,6.637,6.6251,6.6251,6.6251,6.6191,6.6071,6.4844,6.3468,6.3169,6.3079,6.3079,6.3079,6.3079,6.3079,6.3079,6.3079,6.3079,6.3079,6.3079,6.3079,6.3079,6.3079,6.2899,6.2421,6.1762,6.1164,6.0625,6.0416,6.0386,6.0535,6.1463,6.2151,6.2301,6.278,6.2869,6.2361,6.2331,6.2331,6.2331,6.2331,6.254,6.3049,6.3079,6.3079,6.3079,6.3079,6.3079,6.3079,6.3079,6.3079,6.3079,6.3079,6.3079,6.3079,6.3228,6.3558,6.4006,6.4186,6.4545,6.5054,6.5203,6.5353,6.5503,6.5652,6.6041,6.649,6.5233,6.4994,6.4635,6.3378,6.3109,6.3079,6.3079,6.3079,6.3079,6.3079,6.3079,6.3079,6.3079,6.3079,6.3079,6.3079,6.3079,6.3079,6.3079,6.3079,6.278,6.2121,6.0864,5.9817,5.9129,5.9697,6.0356,6.1044,6.1702,6.2361,6.3019,6.3049,6.3079,6.3079,6.3079,6.3079,6.3079,6.3079,6.3079,6.3079,6.3079,6.3438,6.4066,6.4695,6.5383,6.6161,6.7388,6.7418,6.6999,6.7627,6.7418,6.6909,6.6909,6.6909,6.6789,6.6191,6.5473,6.4605,6.3408,6.3079,6.3079,6.3079,6.3079,6.3079,6.3079,6.3079,6.3079,6.3079,6.3079,6.3079,6.3079,6.3079,6.3049,6.3019,6.245,6.2002,6.1942,6.1433,6.1253,6.1882,6.2032,6.2331,6.2959,6.3049,6.3049,6.3019,6.3019,6.3019,6.3019,6.3019,6.3019,6.3079,6.3079,6.3079,6.3079,6.3079,6.3079,6.3079,6.3079,6.3079,6.3079,6.3079,6.3079,6.3109,6.3677,6.3947,6.4036,6.4695,6.4994,6.5084,6.5712,6.6311,6.6909,6.7537,6.7777,6.7926,6.5084,6.4695,6.4246,6.3737,6.3318,6.3079,6.3079,6.3079,6.3079,6.3079,6.3079,6.3079,6.3079,6.3079,6.3079,6.3079,6.3079,6.3079,6.3079,6.269,6.2361,6.2121,6.0805,5.9967,5.9727,5.9967,6.0416,6.1104,6.1762,6.2421,6.3079,6.3079,6.3079,6.3079,6.3079,6.3079,6.3079,6.3079,6.3079,6.3079,6.3079,6.3707,6.4665,6.4934,6.6221,6.7867,6.7956,6.8076,6.8226,6.8016,6.7537,6.6999,6.6999,6.6999,6.6849,6.6191,6.5832,6.5443,6.4545,6.4276,6.4186,6.3767,6.3977,6.4276,6.4276,6.3947,6.3647,6.3647,6.3348,6.3079,6.3079,6.3079,6.3079,6.3079,6.254,6.2091,6.2091,6.1882,6.1822,6.2061,6.245,6.281,6.3049,6.3079,6.3079,6.3079,6.3079,6.3079,6.3079,6.3079,6.3079,6.3079,6.3079,6.3079,6.3079,6.3079,6.3079,6.3079,6.3079,6.3079,6.3079,6.3079,6.3288,6.3647,6.3887,6.4485,6.5263,6.5533,6.5892,6.6281,6.652,6.6759,6.7059,6.7717,6.7956,6.8076,6.4695,6.4336,6.3947,6.3737,6.3348,6.3079,6.3079,6.3079,6.3079,6.3079,6.3079,6.3079,6.3079,6.3079,6.3079,6.3079,6.3079,6.3079,6.3079,6.266,6.2121,6.1493,6.0386,5.9877,6.0086,6.0086,6.0535,6.1433,6.1882,6.2421,6.3079,6.3079,6.3079,6.3079,6.3079,6.3079,6.3079,6.3079,6.3079,6.3079,6.3079,6.3857,6.5024,6.5024,6.643,6.8375,6.8315,6.8315,6.8375,6.8315,6.7717,6.6999,6.6999,6.6999,6.6909,6.646,6.646,6.643,6.5562,6.5652,6.5682,6.4605,6.4665,6.5024,6.5024,6.4665,6.4306,6.4306,6.3977,6.3617,6.3408,6.3378,6.3318,6.3109,6.269,6.2391,6.2391,6.2391,6.2391,6.2391,6.281,6.3079,6.3079,6.3079,6.3079,6.3079,6.3079,6.3079,6.3079,6.3079,6.3079,6.3079,6.3079,6.3079,6.3079,6.3079,6.3079,6.3079,6.3079,6.3169,6.3378,6.3378,6.3707,6.4336,6.4545,6.5144,6.6041,6.646,6.6759,6.6999,6.7208,6.7418,6.7687,6.8136,6.8435,6.8704,6.4006,6.4006,6.3797,6.3199,6.3079,6.3079,6.3079,6.3079,6.3079,6.3079,6.3079,6.3079,6.3079,6.3079,6.3079,6.3079,6.3079,6.3079,6.3079,6.3079,6.2181,6.0176,5.9458,5.9428,6.0086,6.0086,6.0745,6.2091,6.2091,6.245,6.3079,6.3079,6.3079,6.3079,6.3079,6.3079,6.3079,6.3079,6.3079,6.3079,6.3079,6.3857,6.5024,6.5024,6.5862,6.7178,6.8525,6.8136,6.7208,6.8555,6.8106,6.6999,6.6999,6.6999,6.6999,6.6999,6.7448,6.7687,6.637,6.6969,6.7508,6.5533,6.5054,6.5054,6.5054,6.5054,6.5054,6.5054,6.5024,6.4814,6.4126,6.4006,6.3797,6.3199,6.3079,6.3079,6.3079,6.3079,6.3079,6.3079,6.3079,6.3079,6.3079,6.3079,6.3079,6.3079,6.3079,6.3079,6.3079,6.3079,6.3079,6.3079,6.3079,6.3079,6.3079,6.3079,6.3079,6.3079,6.3079,6.3408,6.4006,6.4006,6.4395,6.5084,6.5742,6.6011,6.6131,6.7448,6.7597,6.7059,6.7717,6.8405,6.9004,6.9004,6.9423,7.0081,6.4006,6.4006,6.3797,6.3199,6.3079,6.3079,6.3079,6.3079,6.3079,6.3079,6.3079,6.3079,6.3079,6.3079,6.3079,6.3079,6.3079,6.2869,6.2421,6.2391,6.1912,6.0864,6.0625,6.0595,6.0805,6.0805,6.1224,6.2091,6.257,6.2869,6.3079,6.3079,6.3079,6.3079,6.3079,6.3079,6.3079,6.3079,6.3079,6.3079,6.3079,6.3857,6.5024,6.5024,6.643,6.8375,6.8315,6.8615,6.9004,6.8465,6.8016,6.7597,6.7148,6.6999,6.7089,6.7537,6.7807,6.7897,6.7478,6.8016,6.8226,6.6221,6.6071,6.64,6.64,6.6041,6.5712,6.5712,6.5353,6.4964,6.4755,6.4725,6.4665,6.4485,6.4455,6.4455,6.4455,6.4455,6.4455,6.4455,6.4455,6.4455,6.4455,6.4006,6.3707,6.3707,6.3318,6.3079,6.3079,6.3079,6.3079,6.3079,6.3079,6.3288,6.3707,6.3707,6.3707,6.3737,6.4216,6.4545,6.4725,6.4725,6.5084,6.5742,6.64,6.6969,6.7448,6.8315,6.8585,6.8405,6.8615,6.8824,6.9064,6.9512,6.9812,7.0081,6.4006,6.3797,6.3528,6.3139,6.3079,6.3079,6.3079,6.3079,6.3079,6.3079,6.3079,6.3079,6.3079,6.3079,6.3079,6.3079,6.3079,6.2899,6.251,6.248,6.2181,6.1523,6.1493,6.1493,6.1493,6.1493,6.1822,6.248,6.2869,6.3079,6.3079,6.3079,6.3079,6.3079,6.3079,6.3079,6.3079,6.3079,6.3079,6.3109,6.3348,6.4066,6.5054,6.5323,6.658,6.8226,6.8345,6.8555,6.8794,6.8764,6.8585,6.8256,6.7597,6.7388,6.7448,6.7837,6.8166,6.8375,6.8375,6.8884,6.9034,6.7567,6.7298,6.7448,6.7717,6.7059,6.646,6.6729,6.6251,6.5712,6.5473,6.5413,6.5323,6.5054,6.5024,6.5024,6.5024,6.5024,6.5024,6.5024,6.5024,6.5024,6.5024,6.4395,6.3887,6.3647,6.3288,6.3079,6.3079,6.3079,6.3079,6.3079,6.3318,6.3617,6.4006,6.4545,6.4665,6.4425,6.4844,6.5173,6.5413,6.5413,6.5922,6.6819,6.7208,6.7777,6.8435,6.9123,6.9243,6.9034,6.9273,6.9393,6.9423,6.9842,7.0141,7.0509,6.4066,6.3588,6.3139,6.3079,6.3079,6.3079,6.3079,6.3079,6.3079,6.3079,6.3079,6.3079,6.3079,6.3079,6.3079,6.3079,6.3079,6.3079,6.3079,6.3079,6.281,6.2211,6.2181,6.2181,6.2181,6.2121,6.2421,6.3079,6.3079,6.3079,6.3079,6.3079,6.3079,6.3079,6.3079,6.3079,6.3079,6.3079,6.3079,6.3139,6.3677,6.4366,6.5084,6.5682,6.64,6.7238,6.8465,6.8166,6.7448,6.9273,6.9482,6.8884,6.8256,6.8076,6.8076,6.8136,6.8585,6.9093,6.9093,6.9572,6.9901,6.9243,6.8615,6.8286,6.8884,6.8016,6.7268,6.7926,6.7597,6.6999,6.637,6.6221,6.5981,6.5383,6.5233,6.5203,6.5203,6.5203,6.5203,6.5203,6.5203,6.5203,6.5203,6.4545,6.3827,6.3199,6.3169,6.3169,6.3169,6.3228,6.3228,6.3169,6.3767,6.4126,6.4186,6.5383,6.5712,6.5114,6.5173,6.5533,6.6191,6.6191,6.6879,6.8076,6.8136,6.8495,6.9123,6.9782,6.9722,6.9243,6.9842,7.0051,7.0115,7.0243,7.0667,7.1375,6.4695,6.4276,6.3647,6.3169,6.3079,6.3079,6.3079,6.3079,6.3079,6.3079,6.3079,6.3079,6.3079,6.3079,6.3079,6.3079,6.3079,6.3079,6.3079,6.3079,6.3019,6.2869,6.2869,6.2869,6.2869,6.2361,6.2421,6.3079,6.3079,6.3079,6.3079,6.3079,6.3079,6.3079,6.3079,6.3079,6.3079,6.3079,6.3079,6.3079,6.3228,6.3977,6.5054,6.5173,6.6281,6.7807,6.8076,6.8345,6.8645,6.9064,6.9123,6.8974,6.8824,6.8764,6.8884,6.9393,6.9662,6.9782,6.9782,7.0231,7.056,6.9931,6.9662,6.9453,6.9093,6.8345,6.7956,6.8645,6.8675,6.8525,6.8375,6.7897,6.7508,6.7358,6.6909,6.658,6.658,6.658,6.658,6.658,6.658,6.658,6.658,6.5503,6.4515,6.3857,6.3797,6.3797,6.3797,6.4306,6.4366,6.3827,6.4455,6.5054,6.5562,6.5862,6.5951,6.5802,6.6311,6.6909,6.7537,6.7537,6.7986,6.8794,6.9333,6.9632,6.9812,7.044,7.062,7.05,7.0649,7.0709,7.0873,7.2116,7.2706,7.3138,6.4964,6.4246,6.3468,6.3139,6.3079,6.3079,6.3079,6.3079,6.3079,6.3079,6.3079,6.3079,6.3079,6.3079,6.3079,6.3079,6.3079,6.3079,6.3079,6.3079,6.3079,6.3079,6.3079,6.3079,6.3079,6.275,6.272,6.3079,6.3079,6.3079,6.3079,6.3079,6.3079,6.3079,6.3079,6.3079,6.3079,6.3079,6.3079,6.3109,6.3408,6.4126,6.4994,6.5383,6.634,6.7537,6.7867,6.8615,6.9423,6.9123,6.9393,6.9871,6.9572,6.9482,6.9542,6.9871,6.9991,7.0051,7.035,7.0649,7.0829,7.05,7.0201,6.9961,6.9931,6.9153,6.8645,6.9333,6.9213,6.9004,6.9004,6.8704,6.8465,6.8465,6.8166,6.7956,6.7956,6.7657,6.7597,6.7926,6.7388,6.6879,6.655,6.5892,6.5203,6.4545,6.4485,6.4485,6.4485,6.4844,6.4874,6.4515,6.5144,6.5802,6.646,6.6789,6.7119,6.7448,6.7448,6.7807,6.8465,6.8465,6.8824,6.9482,6.9842,7.0141,7.044,7.0769,7.0889,7.0889,7.0889,7.0889,7.1083,7.2674,7.4168,7.5695,6.4844,6.3887,6.3079,6.3079,6.3079,6.3079,6.3079,6.3079,6.3079,6.3079,6.3079,6.3079,6.3079,6.3079,6.3079,6.3079,6.3079,6.3079,6.3079,6.3079,6.3079,6.3079,6.3079,6.3079,6.3079,6.3079,6.3079,6.3079,6.3079,6.3079,6.3079,6.3079,6.3079,6.3079,6.3079,6.3079,6.3079,6.3079,6.3079,6.3109,6.3617,6.4306,6.5084,6.5622,6.6311,6.7059,6.7597,6.8675,6.9722,6.9183,6.9842,7.0799,7.029,7.0141,7.0141,7.0141,7.0141,7.026,7.0769,7.0889,7.0889,7.0889,7.053,7.026,7.0799,6.9991,6.9363,7.0021,6.9692,6.9333,6.9333,6.9243,6.9183,6.9183,6.9064,6.9004,6.9004,6.8495,6.8375,6.8944,6.8016,6.7119,6.658,6.6311,6.5951,6.5413,6.5263,6.5203,6.5203,6.5413,6.5473,6.5383,6.6101,6.6789,6.7328,6.7867,6.8555,6.9333,6.8645,6.8615,6.9183,6.9183,6.9512,7.0141,7.0141,7.044,7.0889,7.0889,7.0889,7.0889,7.0889,7.0889,7.1148,7.2923,7.5605,7.8291,6.4036,6.3558,6.3079,6.3079,6.3079,6.3079,6.3079,6.3079,6.3079,6.3079,6.3079,6.3079,6.3079,6.3079,6.3079,6.3079,6.3079,6.3079,6.3079,6.3079,6.3079,6.3079,6.3079,6.3079,6.3079,6.3079,6.3079,6.3079,6.3079,6.3079,6.3079,6.3079,6.3079,6.3079,6.3079,6.3079,6.3079,6.3079,6.3079,6.3079,6.3169,6.3947,6.5054,6.5114,6.5922,6.6999,6.7089,6.7986,6.9123,6.9034,6.9842,7.0889,7.0799,7.0769,7.0769,7.0769,7.0769,7.0799,7.0889,7.0889,7.0889,7.0889,7.0829,7.0799,7.0889,7.035,7.0021,7.0649,7.0709,7.0649,7.0649,7.0201,6.9842,6.9842,6.9363,6.9004,6.9004,6.8914,6.8884,6.9004,6.8824,6.8704,6.8615,6.7537,6.6819,6.6729,6.6191,6.5862,6.5862,6.6939,6.7298,6.6759,6.7926,6.8645,6.8734,6.8824,6.9453,7.0649,7.0021,6.9752,6.9842,6.9842,7.0201,7.0769,7.0769,7.0829,7.0889,7.0889,7.0889,7.0889,7.0889,7.0889,7.1247,7.4168,7.7248,7.9921,6.3947,6.3498,6.3079,6.3079,6.3079,6.3079,6.3079,6.3079,6.3079,6.3079,6.3079,6.3079,6.3079,6.3079,6.3079,6.3079,6.3079,6.3079,6.3079,6.3079,6.3079,6.3079,6.3079,6.3079,6.3079,6.3079,6.3079,6.3079,6.3079,6.3079,6.3079,6.3079,6.3079,6.3079,6.3079,6.3079,6.3079,6.3079,6.3079,6.3079,6.3079,6.3857,6.5024,6.5024,6.5832,6.6999,6.6999,6.7867,6.9004,6.9004,6.9842,7.0889,7.0889,7.0889,7.0889,7.0889,7.0889,7.0889,7.0889,7.0889,7.0889,7.0889,7.0889,7.0889,7.0889,7.0679,7.0679,7.1338,7.1457,7.1577,7.1966,7.1487,7.1038,7.1038,7.05,7.0051,7.0051,6.9782,6.9423,6.9034,6.9333,6.9243,6.8495,6.7897,6.7388,6.7029,6.7059,6.7119,6.7119,6.8016,6.8405,6.8136,6.8704,6.9183,6.9542,6.9542,6.9991,7.0889,7.062,7.05,7.05,7.05,7.0649,7.0889,7.0889,7.0889,7.0889,7.0889,7.0889,7.0889,7.0889,7.1952,7.3778,7.6038,7.8291,8.0209]}]]